[[{"header":{"parameterUnit":"m.s-1","parameterCategory":1,"la1":31.0,"la2":29.5877,"lo1":-88.7671,"lo2":-86.6584,"dy":0.0162,"dx":0.0185,"nx":115,"ny":88,"refTime":"2024-07-20T00:00:00:Z","depth":0,"parameterNumber":2,"parameterNumberName":"U-component_of_WINDS"},"data":[0.0,0.0,0.0,0.0,0.0,0.0,0.0,0.0,0.0,0.0,0.0,0.0,0.0,0.0,0.0,0.0,0.0,0.0,0.0,0.0,0.0,0.0,0.0,0.0,0.0,0.0,0.0,0.0,0.0,0.0,0.0,0.0,0.0,0.0,0.0,0.0,0.0,0.0,0.0,0.0,0.0,0.0,0.0,0.0,0.0,0.0,0.0,0.0,0.0,0.0,0.0,0.0,0.0,0.0,0.0,0.0,0.0,0.0,0.0,0.0,0.0,0.0,0.0,0.0,0.0,0.0,0.0,0.0,0.0,0.0,0.0,0.0,0.0,0.0,0.0,0.0,0.0,0.0,0.0,0.0,0.0,0.0,0.0,0.0,0.0,0.0,0.0,0.0,0.0,0.0,0.0,0.0,0.0,0.0,0.0,0.0,0.0,0.0,0.0,0.0,0.0,0.0,0.0,0.0,0.0,0.0,0.0,0.0,0.0,0.0,0.0,0.0,0.0,0.0,0.0,0.0,0.0,0.0,0.0,0.0,0.0,0.0,0.0,0.0,0.0,0.0,0.0,0.0,0.0,0.0,0.0,0.0,0.0,0.0,0.0,0.0,0.0,0.0,0.0,0.0,0.0,0.0,0.0,0.0,0.0,0.0,0.0,0.0,0.0,0.0,0.0,0.0,0.0,0.0,0.0,0.0,0.0,0.0,0.0,0.0,0.0,0.0,0.0,0.0,0.0,0.0,0.0,0.0,0.0,0.0,0.0,0.0,0.0,0.0,0.0,0.0,0.0,0.0,0.0,0.0,0.0,0.0,0.0,0.0,0.0,0.0,0.0,0.0,0.0,0.0,0.0,0.0,0.0,0.0,0.0,0.0,0.0,0.0,0.0,0.0,0.0,0.0,0.0,0.0,0.0,0.0,0.0,0.0,0.0,0.0,0.0,0.0,0.0,0.0,0.0,0.0,0.0,0.0,0.0,0.0,0.0,0.0,0.0,0.0,0.0,0.0,0.0,0.0,0.0,0.0,0.0,0.0,0.0,0.0,0.0,0.0,0.0,0.0,0.0,0.0,0.0,0.0,0.0,0.0,0.0,0.0,0.0,0.0,0.0,0.0,0.0,0.0,0.0,0.0,0.0,0.0,0.0,0.0,0.0,0.0,0.0,0.0,0.0,0.0,0.0,0.0,0.0,0.0,0.0,0.0,0.0,0.0,0.0,0.0,0.0,0.0,0.0,0.0,0.0,0.0,0.0,0.0,0.0,0.0,0.0,0.0,0.0,0.0,0.0,0.0,0.0,0.0,0.0,0.0,0.0,0.0,0.0,0.0,0.0,0.0,0.0,0.0,0.0,0.0,0.0,0.0,0.0,0.0,0.0,0.0,0.0,0.0,0.0,0.0,0.0,0.0,0.0,0.0,0.0,0.0,0.0,0.0,0.0,0.0,0.0,0.0,0.0,0.0,0.0,0.0,0.0,0.0,0.0,0.0,0.0,0.0,0.0,0.0,0.0,0.0,0.0,0.0,0.0,0.0,0.0,0.0,0.0,0.0,0.0,0.0,0.0,0.0,0.0,0.0,0.0,0.0,0.0,0.0,0.0,0.0,0.0,0.0,0.0,0.0,0.0,0.0,0.0,0.0,0.0,0.0,0.0,0.0,0.0,0.0,0.0,0.0,0.0,0.0,0.0,0.0,0.0,0.0,0.0,0.0,0.0,0.0,0.0,0.0,0.0,0.0,0.0,0.0,0.0,0.0,0.0,0.0,0.0,0.0,0.0,0.0,0.0,0.0,0.0,0.0,0.0,0.0,0.0,0.0,0.0,0.0,0.0,0.0,0.0,0.0,0.0,0.0,0.0,0.0,0.0,0.0,0.0,0.0,0.0,0.0,0.0,0.0,0.0,0.0,0.0,0.0,0.0,0.0,0.0,0.0,0.0,0.0,0.0,0.0,0.0,0.0,0.0,0.0,0.0,0.0,0.0,0.0,0.0,0.0,0.0,0.0,0.0,0.0,0.0,0.0,0.0,0.0,0.0,0.0,0.0,0.0,0.0,0.0,0.0,0.0,0.0,0.0,0.0,0.0,0.0,0.0,0.0,0.0,0.0,0.0,0.0,0.0,0.0,0.0,0.0,0.0,0.0,0.0,0.0,0.0,0.0,0.0,0.0,0.0,0.0,0.0,0.0,0.0,0.0,0.0,0.0,0.0,0.0,0.0,0.0,0.0,0.0,0.0,0.0,0.0,0.0,0.0,0.0,0.0,0.0,0.0,0.0,0.0,0.0,0.0,0.0,0.0,0.0,0.0,0.0,0.0,0.0,0.0,0.0,0.0,0.0,0.0,0.0,0.0,0.0,0.0,0.0,0.0,0.0,0.0,0.0,0.0,0.0,0.0,0.0,0.0,0.0,0.0,0.0,0.0,0.0,0.0,0.0,0.0,0.0,0.0,0.0,0.0,0.0,0.0,0.0,0.0,0.0,0.0,0.0,0.0,0.0,0.0,0.0,0.0,0.0,0.0,0.0,0.0,0.0,0.0,0.0,0.0,0.0,0.0,0.0,0.0,0.0,0.0,0.0,0.0,0.0,0.0,0.0,0.0,0.0,0.0,0.0,0.0,0.0,0.0,0.0,0.0,0.0,0.0,0.0,0.0,0.0,0.0,0.0,0.0,0.0,0.0,0.0,0.0,0.0,0.0,0.0,0.0,0.0,0.0,0.0,0.0,0.0,0.0,0.0,0.0,0.0,0.0,0.0,0.0,0.0,0.0,0.0,0.0,0.0,0.0,0.0,0.0,0.0,0.0,0.0,0.0,0.0,0.0,0.0,0.0,0.0,0.0,0.0,0.0,0.0,0.0,0.0,0.0,0.0,0.0,0.0,0.0,0.0,0.0,0.0,0.0,0.0,0.0,0.0,0.0,0.0,0.0,0.0,0.0,0.0,0.0,0.0,0.0,0.0,0.0,0.0,0.0,0.0,0.0,0.0,0.0,0.0,0.0,0.0,0.0,0.0,0.0,0.0,0.0,0.0,0.0,0.0,0.0,0.0,0.0,0.0,0.0,0.0,0.0,0.0,0.0,0.0,0.0,0.0,0.0,0.0,0.0,0.0,0.0,0.0,0.0,0.0,0.0,0.0,0.0,0.0,0.0,0.0,0.0,0.0,0.0,0.0,0.0,0.0,0.0,0.0,0.0,0.0,0.0,0.0,0.0,0.0,0.0,0.0,0.0,0.0,0.0,0.0,0.0,0.0,0.0,0.0,0.0,0.0,0.0,0.0,0.0,0.0,0.0,0.0,0.0,0.0,0.0,0.0,0.0,0.0,0.0,0.0,0.0,0.0,0.0,0.0,0.0,0.0,0.0,0.0,0.0,0.0,0.0,0.0,0.0,0.0,0.0,0.0,0.0,0.0,0.0,0.0,0.0,0.0,0.0,0.0,0.0,0.0,0.0,0.0,0.0,0.0,0.0,0.0,0.0,0.0,0.0,0.0,0.0,0.0,0.0,0.0,0.0,0.0,0.0,0.0,0.0,0.0,0.0,0.0,0.0,0.0,0.0,0.0,0.0,0.0,0.0,0.0,0.0,0.0,0.0,0.0,0.0,0.0,0.0,0.0,0.0,0.0,0.0,0.0,0.0,0.0,0.0,0.0,0.0,0.0,0.0,0.0,0.0,0.0,0.0,0.0,0.0,0.0,0.0,0.0,0.0,0.0,0.0,0.0,0.0,0.0,0.0,0.0,0.0,0.0,0.0,0.0,0.0,0.0,0.0,0.0,0.0,0.0,0.0,0.0,0.0,0.0,0.0,0.0,0.0,0.0,0.0,0.0,0.0,0.0,0.0,0.0,0.0,0.0,0.0,0.0,0.0,0.0,0.0,0.0,0.0,0.0,0.0,0.0,0.0,0.0,0.0,0.0,0.0,0.0,0.0,0.0,0.0,0.0,0.0,0.0,0.0,0.0,0.0,0.0,0.0,0.0,0.0,0.0,0.0,0.0,0.0,0.0,0.0,0.0,0.0,0.0,0.0,0.0,0.0,0.0,0.0,0.0,0.0,0.0,0.0,0.0,0.0,0.0,0.0,0.0,0.0,0.0,0.0,0.0,0.0,0.0,0.0,0.0,0.0,0.0,0.0,0.0,0.0,0.0,0.0,0.0,0.0,0.0,0.0,0.0,0.0,0.0,0.0,0.0,0.0,0.0,0.0,0.0,0.0,0.0,0.0,0.0,0.0,0.0,0.0,0.0,0.0,0.0,0.0,0.0,0.0,0.0,0.0,0.0,0.0,0.0,0.0,1.2413,0.0,0.0,0.0,0.0,0.0,0.0,0.0,0.0,0.0,0.0,0.0,0.0,0.0,0.0,0.0,0.0,0.0,0.0,0.0,0.0,0.0,0.0,0.0,0.0,0.0,0.0,0.0,0.0,0.0,0.0,0.0,0.0,0.0,0.0,0.0,0.0,0.0,0.0,0.0,0.0,0.0,0.0,0.0,0.0,0.0,0.0,0.0,0.0,0.0,0.0,0.0,0.0,0.0,0.0,0.0,0.0,0.0,0.0,0.0,0.0,0.0,0.0,0.0,0.0,0.0,0.0,0.0,0.0,0.0,0.0,0.0,0.0,0.0,0.0,0.0,0.0,0.0,0.0,0.0,0.0,0.0,0.0,0.0,0.0,0.0,0.0,0.0,0.0,0.0,0.0,0.0,0.0,0.0,0.0,0.0,0.0,0.0,0.0,0.0,0.0,0.0,0.0,0.0,0.0,0.0,0.0,0.0,0.0,0.0,0.0,1.4111,1.4052,1.3994,1.3729,1.3233,0.0,0.0,0.0,0.0,0.0,0.0,0.0,0.0,0.0,0.0,0.0,0.0,0.0,0.0,0.0,0.0,0.0,0.0,0.0,0.0,0.0,0.0,0.0,0.0,0.0,0.0,0.0,0.0,0.0,0.0,0.0,0.0,0.0,0.0,0.0,0.0,0.0,0.0,0.0,0.0,0.0,0.0,0.0,0.0,0.0,0.0,0.0,0.0,0.0,0.0,0.0,0.0,0.0,0.0,0.0,0.0,0.0,0.0,0.0,0.0,0.0,0.0,0.0,0.0,0.0,0.0,0.0,0.0,0.0,0.0,0.0,0.0,0.0,0.0,0.0,0.0,0.0,0.0,0.0,0.0,0.0,0.0,0.0,0.0,0.0,0.0,0.0,0.0,0.0,0.0,0.0,0.0,0.0,0.0,0.0,0.0,0.0,0.0,0.0,0.0,0.0,0.0,0.0,0.0,0.0,0.0,0.0,0.0,0.0,0.0,0.0,0.0,1.5146,1.468,1.3786,0.0,0.0,0.0,0.0,0.0,0.0,0.0,0.0,0.0,0.0,0.0,0.0,0.0,0.0,0.0,0.0,0.0,0.0,0.0,0.0,0.0,0.0,0.0,0.0,0.0,0.0,0.0,0.0,0.0,0.0,0.0,0.0,0.0,0.0,0.0,0.0,0.0,0.0,0.0,0.0,0.0,0.0,0.0,0.0,0.0,0.0,0.0,0.0,0.0,0.0,0.0,0.0,0.0,0.0,0.0,0.0,0.0,0.0,0.0,0.0,0.0,0.0,0.0,0.0,0.0,0.0,0.0,0.0,0.0,0.0,0.0,0.0,0.0,0.0,0.0,0.0,0.0,0.0,0.0,0.0,0.0,0.0,0.0,0.0,0.0,0.0,0.0,0.0,0.0,0.0,0.0,0.0,0.0,0.0,0.0,0.0,0.0,0.0,0.0,0.0,0.0,0.0,0.0,0.0,0.0,0.0,0.0,0.0,0.0,0.0,1.5278,1.5209,1.5146,0.0,1.3736,0.0,0.0,0.0,0.0,0.0,0.0,0.0,0.0,0.0,0.0,0.0,0.0,0.0,0.0,0.0,0.0,0.0,0.0,0.0,0.0,0.0,0.0,0.0,0.0,0.0,0.0,0.0,0.0,0.0,0.0,0.0,0.0,0.0,0.0,0.0,0.0,0.0,0.0,0.0,0.0,0.0,0.0,0.0,0.0,0.0,0.0,0.0,0.0,0.0,0.0,0.0,0.0,0.0,0.0,0.0,0.0,0.0,0.0,0.0,0.0,0.0,0.0,0.0,0.0,0.0,0.0,0.0,0.0,0.0,0.0,0.0,0.0,0.0,0.0,0.0,0.0,0.0,0.0,0.0,0.0,0.0,0.0,0.0,0.0,0.0,0.0,0.0,0.0,0.0,0.0,0.0,0.0,0.0,0.0,0.0,0.0,0.0,0.0,0.0,0.0,0.0,0.0,0.0,0.0,0.0,0.0,0.0,0.0,0.0,0.0,0.0,1.5133,1.5073,1.4612,0.0,0.0,0.0,0.0,0.0,0.0,0.0,0.0,0.0,0.0,0.0,0.0,0.0,0.0,0.0,0.0,0.0,0.0,0.0,0.0,0.0,0.0,0.0,0.0,0.0,0.0,0.0,0.0,0.0,0.0,0.0,0.0,0.0,0.0,0.0,0.0,0.0,0.0,0.0,0.0,0.0,0.0,0.0,0.0,0.0,0.0,0.0,0.0,0.0,0.0,0.0,0.0,0.0,0.0,0.0,0.0,0.0,0.0,0.0,0.0,0.0,0.0,0.0,0.0,0.0,0.0,0.0,0.0,0.0,0.0,0.0,0.0,0.0,0.0,0.0,0.0,0.0,0.0,0.0,0.0,0.0,0.0,0.0,0.0,0.0,0.0,0.0,0.0,0.0,0.0,0.0,0.0,0.0,0.0,0.0,0.0,0.0,0.0,0.0,0.0,0.0,0.0,0.0,0.0,0.0,0.0,0.0,0.0,0.0,0.0,1.5232,0.0,1.5082,1.5015,1.4671,1.402,0.0,0.0,0.0,0.0,0.0,0.0,0.0,0.0,0.0,0.0,0.0,0.0,0.0,0.0,0.0,0.0,0.0,0.0,0.0,0.0,0.0,0.0,0.0,0.0,0.0,0.0,0.0,0.0,0.0,0.0,0.0,0.0,0.0,0.0,0.0,0.0,0.0,0.0,0.0,0.0,0.0,0.0,0.0,0.0,0.0,0.0,0.0,0.0,0.0,0.0,0.0,0.0,0.0,0.0,0.0,0.0,0.0,0.0,0.0,0.0,0.0,0.0,0.0,0.0,0.0,0.0,0.0,0.0,0.0,0.0,0.0,0.0,0.0,0.0,0.0,0.0,0.0,0.0,0.0,0.0,0.0,0.0,0.0,0.0,0.0,0.0,0.0,0.0,0.0,0.0,0.0,0.0,0.0,0.0,0.0,0.0,0.0,0.0,0.0,0.0,0.0,0.0,0.0,0.0,0.0,0.0,0.0,0.0,0.0,1.5207,1.5127,1.5023,1.4955,1.485,0.0,0.0,0.0,0.0,0.0,0.0,0.0,0.0,0.0,0.0,0.0,0.0,0.0,0.0,0.0,0.0,0.0,0.0,0.0,0.0,0.0,0.0,0.0,0.0,0.0,0.0,0.0,0.0,0.0,0.0,0.0,0.0,0.0,0.0,0.0,0.0,0.0,0.0,0.0,0.0,0.0,0.0,0.0,0.0,0.0,0.0,0.0,0.0,0.0,0.0,0.0,0.0,0.0,0.0,0.0,0.0,0.0,0.0,0.0,0.0,0.0,0.0,0.0,0.0,0.0,0.0,0.0,0.0,0.0,0.0,0.0,0.0,0.0,0.0,0.0,0.0,0.0,0.0,0.0,0.0,0.0,0.0,0.0,0.0,0.0,0.0,0.0,0.0,0.0,0.0,0.0,0.0,0.0,0.0,0.0,0.0,0.0,0.0,0.0,0.0,0.0,0.0,0.0,0.0,0.0,0.0,0.0,0.0,0.0,1.5204,1.5177,1.5087,1.4992,1.4947,1.4841,0.0,0.0,0.0,0.0,0.0,0.0,0.0,0.0,0.0,0.0,0.0,0.0,0.0,0.0,0.0,0.0,0.0,0.0,0.0,0.0,0.0,0.0,0.0,0.0,0.0,0.0,0.0,0.0,0.0,0.0,0.0,0.0,0.0,0.0,0.0,0.0,0.0,0.0,0.0,0.0,0.0,0.0,0.0,0.0,0.0,0.0,0.0,0.0,0.0,0.0,0.0,0.0,0.0,0.0,0.0,0.0,0.0,0.0,0.0,0.0,0.0,0.0,0.0,0.0,0.0,0.0,0.0,0.0,0.0,0.0,0.0,0.0,0.0,0.0,0.0,0.0,0.0,0.0,0.0,0.0,0.0,0.0,0.0,0.0,0.0,0.0,0.0,0.0,0.0,0.0,0.0,0.0,0.0,0.0,0.0,0.0,0.0,0.0,0.0,0.0,0.0,0.0,0.0,0.0,0.0,0.0,0.0,0.0,0.0,1.5163,0.0,1.5078,0.0,1.4902,1.4832,0.0,0.0,0.0,0.0,0.0,0.0,0.0,0.0,0.0,0.0,0.0,0.0,0.0,0.0,0.0,0.0,0.0,0.0,0.0,0.0,0.0,0.0,0.0,0.0,0.0,0.0,0.0,0.0,0.0,0.0,0.0,0.0,0.0,0.0,0.0,0.0,0.0,0.0,0.0,0.0,0.0,0.0,0.0,0.0,0.0,0.0,0.0,0.0,0.0,0.0,0.0,0.0,0.0,0.0,0.0,0.0,0.0,0.0,0.0,0.0,0.0,0.0,0.0,0.0,0.0,0.0,0.0,0.0,0.0,0.0,0.0,0.0,0.0,0.0,0.0,0.0,0.0,0.0,0.0,0.0,0.0,0.0,0.0,0.0,0.0,0.0,0.0,0.0,0.0,0.0,0.0,0.0,0.0,0.0,0.0,0.0,0.0,0.0,0.0,0.0,0.0,0.0,0.0,0.0,0.0,0.0,0.0,0.0,1.5201,1.5133,1.5113,1.5083,1.5003,1.4886,1.4775,0.0,0.0,0.0,0.0,0.0,0.0,0.0,0.0,0.0,0.0,0.0,0.0,0.0,0.0,0.0,0.0,0.0,0.0,0.0,0.0,0.0,0.0,0.0,0.0,0.0,0.0,0.0,0.0,0.0,0.0,0.0,0.0,0.0,0.0,0.0,0.0,0.0,0.0,0.0,0.0,0.0,0.0,0.0,0.0,0.0,0.0,0.0,0.0,0.0,0.0,0.0,0.0,0.0,0.0,0.0,0.0,0.0,0.0,0.0,0.0,0.0,0.0,0.0,0.0,0.0,0.0,0.0,0.0,0.0,0.0,0.0,0.0,0.0,0.0,0.0,0.0,0.0,0.0,0.0,0.0,0.0,0.0,0.0,0.0,0.0,0.0,0.0,0.0,0.0,0.0,0.0,0.0,0.0,0.0,0.0,0.0,0.0,0.0,0.0,0.0,0.0,0.0,0.0,0.0,0.0,0.0,0.0,0.0,0.0,1.599,1.5419,1.5342,1.5784,1.5169,1.4747,0.0,0.0,0.0,0.0,0.0,0.0,0.0,0.0,0.0,0.0,0.0,0.0,0.0,0.0,0.0,0.0,0.0,0.0,0.0,0.0,0.0,0.0,0.0,0.0,0.0,0.0,0.0,0.0,0.0,0.0,0.0,0.0,0.0,0.0,0.0,0.0,0.0,0.0,0.0,0.0,0.0,0.0,0.0,0.0,0.0,0.0,0.0,0.0,0.0,0.0,0.0,0.0,0.0,0.0,0.0,0.0,0.0,0.0,0.0,0.0,0.0,0.0,0.0,0.0,0.0,0.0,0.0,0.0,0.0,0.0,0.0,0.0,0.0,0.0,0.0,0.0,0.0,0.0,0.0,0.0,0.0,0.0,0.0,0.0,0.0,0.0,0.0,0.0,0.0,0.0,0.0,0.0,0.0,0.0,0.0,0.0,0.0,0.0,0.0,0.0,0.0,0.0,0.0,0.0,0.0,0.0,0.0,0.0,0.0,1.7274,1.6491,1.6246,1.6685,1.5744,1.5194,1.5073,0.0,0.0,0.0,0.0,0.0,0.0,0.0,0.0,0.0,0.0,0.0,0.0,0.0,0.0,0.0,0.0,0.0,0.0,0.0,0.0,0.0,0.0,0.0,0.0,0.0,0.0,0.0,0.0,0.0,0.0,0.0,0.0,0.0,0.0,0.0,0.0,0.0,0.0,0.0,0.0,0.0,0.0,0.0,0.0,0.0,0.0,0.0,0.0,0.0,0.0,0.0,0.0,0.0,0.0,0.0,0.0,0.0,0.0,0.0,0.0,0.0,0.0,0.0,0.0,0.0,0.0,0.0,0.0,0.0,0.0,0.0,0.0,0.0,0.0,0.0,0.0,0.0,0.0,0.0,0.0,0.0,0.0,0.0,0.0,0.0,0.0,0.0,0.0,0.0,0.0,0.0,0.0,0.0,0.0,0.0,0.0,0.0,0.0,0.0,0.0,0.0,0.0,0.0,0.0,0.0,0.0,0.0,0.0,1.8934,1.8212,1.7733,1.7548,1.6591,1.6012,0.0,0.0,0.0,0.0,0.0,0.0,0.0,0.0,0.0,0.0,0.0,0.0,0.0,0.0,0.0,0.0,0.0,0.0,0.0,0.0,0.0,0.0,0.0,0.0,0.0,0.0,0.0,0.0,0.0,0.0,0.0,0.0,0.0,0.0,0.0,0.0,0.0,0.0,0.0,0.0,0.0,0.0,0.0,0.0,0.0,0.0,0.0,0.0,0.0,0.0,0.0,0.0,0.0,0.0,0.0,0.0,0.0,0.0,0.0,0.0,0.0,0.0,0.0,0.0,0.0,0.0,0.0,0.0,0.0,0.0,0.0,0.0,0.0,0.0,0.0,0.0,0.0,0.0,0.0,0.0,0.0,0.0,0.0,0.0,0.0,0.0,0.0,0.0,0.0,0.0,0.0,0.0,0.0,0.0,0.0,0.0,0.0,0.0,0.0,0.0,0.0,0.0,0.0,0.0,0.0,0.0,0.0,0.0,0.0,1.9743,2.0136,1.9715,1.8429,1.7418,1.6522,0.0,0.0,0.0,0.0,0.0,0.0,0.0,0.0,0.0,0.0,0.0,0.0,0.0,0.0,0.0,0.0,0.0,0.0,0.0,0.0,0.0,0.0,0.0,0.0,0.0,0.0,0.0,0.0,0.0,0.0,0.0,0.0,0.0,0.0,0.0,0.0,0.0,0.0,0.0,0.0,0.0,0.0,0.0,0.0,0.0,0.0,0.0,0.0,0.0,0.0,0.0,0.0,0.0,0.0,0.0,0.0,0.0,0.0,0.0,0.0,0.0,0.0,0.0,0.0,0.0,0.0,0.0,0.0,0.0,0.0,0.0,0.0,0.0,0.0,0.0,0.0,0.0,0.0,0.0,0.0,0.0,0.0,0.0,0.0,0.0,0.0,0.0,0.0,0.0,0.0,0.0,0.0,0.0,0.0,0.0,0.0,0.0,0.0,0.0,0.0,0.0,0.0,0.0,0.0,0.0,0.0,0.0,0.0,1.9863,2.0633,2.1401,2.1282,2.0193,1.8908,1.7585,0.0,0.0,0.0,0.0,0.0,0.0,0.0,0.0,0.0,0.0,0.0,0.0,0.0,0.0,0.0,0.0,0.0,0.0,0.0,0.0,0.0,0.0,0.0,0.0,0.0,0.0,0.0,0.0,0.0,0.0,0.0,0.0,0.0,0.0,0.0,0.0,0.0,0.0,0.0,0.0,0.0,0.0,0.0,0.0,0.0,0.0,0.0,0.0,0.0,0.0,0.0,0.0,0.0,0.0,0.0,0.0,0.0,0.0,0.0,0.0,0.0,0.0,0.0,0.0,0.0,0.0,0.0,0.0,0.0,0.0,0.0,0.0,0.0,0.0,0.0,0.0,0.0,0.0,0.0,0.0,0.0,0.0,0.0,0.0,0.0,0.0,0.0,0.0,0.0,0.0,0.0,0.0,0.0,0.0,0.0,0.0,0.0,0.0,0.0,0.0,0.0,0.0,0.0,0.0,0.0,0.0,0.0,0.0,2.0725,2.1483,2.2236,2.2508,2.229,2.063,1.8911,0.0,0.0,0.0,0.0,0.0,0.0,0.0,0.0,0.0,0.0,0.0,0.0,0.0,0.0,0.0,0.0,0.0,0.0,0.0,0.0,0.0,0.0,0.0,0.0,0.0,0.0,0.0,0.0,0.0,0.0,0.0,0.0,0.0,0.0,0.0,0.0,0.0,0.0,0.0,0.0,0.0,0.0,0.0,0.0,0.0,0.0,0.0,0.0,0.0,0.0,0.0,0.0,0.0,0.0,0.0,0.0,0.0,0.0,0.0,0.0,0.0,0.0,0.0,0.0,0.0,0.0,0.0,0.0,0.0,0.0,0.0,0.0,0.0,0.0,0.0,0.0,0.0,0.0,0.0,0.0,0.0,0.0,0.0,0.0,0.0,0.0,0.0,0.0,0.0,0.0,0.0,0.0,0.0,0.0,0.0,0.0,0.0,0.0,0.0,0.0,0.0,0.0,0.0,0.0,0.0,0.0,0.0,0.0,2.156,2.2258,2.2988,2.3258,2.307,2.1358,1.9911,0.0,0.0,0.0,0.0,0.0,0.0,0.0,0.0,0.0,0.0,0.0,0.0,0.0,0.0,0.0,0.0,0.0,0.0,0.0,0.0,0.0,0.0,0.0,0.0,0.0,0.0,0.0,0.0,0.0,0.0,0.0,0.0,0.0,0.0,0.0,0.0,0.0,0.0,0.0,0.0,0.0,0.0,0.0,0.0,0.0,0.0,0.0,0.0,1.1546,0.0,0.0,0.0,0.0,0.0,0.0,0.0,0.0,0.0,0.0,0.0,0.0,0.0,0.0,0.0,0.0,0.0,0.0,0.0,0.0,0.0,0.0,0.0,0.0,0.0,0.0,0.0,0.0,0.0,0.0,0.0,0.0,0.0,0.0,0.0,0.0,0.0,0.0,0.0,0.0,0.0,0.0,0.0,0.0,0.0,0.0,0.0,0.0,0.0,0.0,0.0,0.0,0.0,0.0,0.0,0.0,0.0,0.0,0.0,2.2218,2.2528,2.3547,2.4016,2.3752,2.2066,2.0486,0.0,0.0,0.0,0.0,0.0,0.0,0.0,0.0,0.0,0.0,0.0,0.0,0.0,0.0,0.0,0.0,0.0,0.0,0.0,0.0,0.0,0.0,0.0,0.0,0.0,0.0,0.0,0.0,0.0,0.0,0.0,0.0,0.0,0.0,0.0,0.0,0.0,0.0,0.0,0.0,0.0,0.0,0.0,0.0,0.0,0.0,0.0,0.0,0.0,0.0,0.0,0.0,0.0,0.0,0.0,0.0,0.0,0.0,0.0,0.0,0.0,0.0,0.0,0.0,0.0,0.0,0.0,0.0,0.0,0.0,0.0,0.0,0.0,0.0,0.0,0.0,0.0,0.0,0.0,0.0,0.0,0.0,0.0,0.0,0.0,0.0,0.0,0.0,0.0,0.0,0.0,0.0,0.0,0.0,0.0,0.0,0.0,0.0,0.0,0.0,0.0,0.0,0.0,0.0,0.0,0.0,0.0,2.0976,2.2626,2.2543,2.3931,2.4594,2.4353,2.2574,2.0898,1.938,0.0,0.0,0.0,0.0,0.0,0.0,0.0,0.0,0.0,0.0,0.0,0.0,0.0,0.0,0.0,0.0,0.0,0.0,0.0,0.0,0.0,0.0,0.0,0.0,0.0,0.0,0.0,0.0,0.0,0.0,0.0,0.0,0.0,0.0,0.0,0.0,0.0,0.0,1.1571,1.3194,0.0,0.0,0.0,0.0,0.0,0.0,0.0,0.0,1.355,0.0,0.0,0.0,0.0,0.0,0.0,0.0,0.0,0.0,0.0,0.0,0.0,0.0,0.0,0.0,0.0,0.0,0.0,0.0,0.0,0.0,0.0,0.0,0.0,0.0,0.0,0.0,0.0,0.0,0.0,0.0,0.0,0.0,0.0,0.0,0.0,0.0,0.0,0.0,0.0,0.0,0.0,0.0,0.0,0.0,0.0,0.0,0.0,0.0,0.0,0.0,0.0,0.0,0.0,0.0,0.0,1.7708,2.0948,2.2563,2.2445,2.3921,2.4545,2.4192,2.252,2.1369,2.0761,0.0,0.0,0.0,0.0,0.0,0.0,0.0,0.0,0.0,0.0,0.0,0.0,0.0,0.0,0.0,0.0,0.0,0.0,0.0,0.0,0.0,0.0,0.0,0.0,0.0,0.0,0.0,0.0,0.0,0.0,0.0,0.0,0.0,0.0,0.0,0.0,0.0,0.0,0.0,1.3867,1.4571,0.0,0.0,0.0,0.0,0.0,0.0,0.0,0.0,1.3715,0.0,0.0,0.0,0.0,0.0,0.0,0.0,0.0,0.0,0.0,0.0,0.0,0.0,0.0,0.0,0.0,0.0,0.0,0.0,0.0,0.0,0.0,0.0,0.0,0.0,0.0,0.0,0.0,0.0,0.0,0.0,0.0,0.0,0.0,0.0,0.0,0.0,0.0,0.0,0.0,0.0,0.0,0.0,0.0,0.0,0.0,0.0,0.0,0.0,0.0,0.0,0.0,0.0,0.0,0.0,1.7811,2.089,2.2467,2.2394,2.3814,2.4442,2.4118,2.2446,2.142,0.0,0.0,0.0,0.0,0.0,0.0,0.0,0.0,0.0,0.0,0.0,0.0,0.0,0.0,0.0,0.0,0.0,0.0,0.0,0.0,0.0,0.0,0.0,0.0,0.0,0.0,0.0,0.0,0.0,0.0,0.0,0.0,0.0,0.0,0.0,0.0,0.0,0.0,0.0,0.0,1.498,1.5715,1.5908,0.0,0.0,0.0,0.0,0.0,0.0,1.52,1.4618,0.0,0.0,0.0,0.0,0.0,0.0,0.0,0.0,0.0,0.0,0.0,0.0,0.0,0.0,0.0,0.0,0.0,0.0,0.0,0.0,0.0,0.0,0.0,0.0,0.0,0.0,0.0,0.0,0.0,0.0,0.0,0.0,0.0,0.0,0.0,0.0,0.0,0.0,0.0,0.0,0.0,0.0,0.0,0.0,0.0,0.0,0.0,0.0,0.0,0.0,0.0,0.0,0.0,0.0,0.0,1.7939,2.0896,2.2407,2.2308,2.3721,2.4356,2.4041,2.2389,2.1344,0.0,0.0,0.0,0.0,0.0,0.0,0.0,0.0,0.0,0.0,0.0,0.0,0.0,0.0,0.0,0.0,0.0,0.0,0.0,0.0,0.0,0.0,0.0,0.0,0.0,0.0,0.0,0.0,0.0,0.0,0.0,0.0,0.0,0.0,0.0,0.0,0.0,0.0,0.0,0.0,0.0,1.6826,1.6926,1.7346,0.0,0.0,0.0,0.0,1.7219,1.6454,0.0,0.0,0.0,0.0,0.0,0.0,0.0,0.0,0.0,0.0,0.0,0.0,0.0,0.0,0.0,0.0,0.0,0.0,0.0,0.0,0.0,0.0,0.0,0.0,0.0,0.0,0.0,0.0,0.0,0.0,0.0,0.0,0.0,0.0,0.0,0.0,0.0,0.0,0.0,0.0,0.0,0.0,0.0,0.0,0.0,0.0,0.0,0.0,0.0,0.0,0.0,0.0,0.0,0.0,0.0,0.0,1.8743,2.1107,2.2318,2.2214,2.3626,2.4303,2.3979,2.2254,2.1265,0.0,0.0,0.0,0.0,0.0,0.0,0.0,0.0,0.0,0.0,0.0,0.0,0.0,0.0,0.0,0.0,0.0,0.0,0.0,0.0,0.0,0.0,0.0,0.0,0.0,0.0,0.0,0.0,0.0,0.0,0.0,0.0,0.0,0.0,0.0,0.0,0.0,0.0,0.0,0.0,0.0,1.7222,1.837,1.8492,1.8651,0.0,0.0,1.8956,1.8186,1.8032,0.0,0.0,0.0,0.0,0.0,0.0,0.0,0.0,0.0,0.0,0.0,0.0,0.0,0.0,0.0,0.0,0.0,0.0,0.0,0.0,0.0,0.0,0.0,0.0,0.0,0.0,0.0,0.0,0.0,0.0,0.0,0.0,0.0,0.0,0.0,0.0,0.0,0.0,0.0,0.0,0.0,0.0,0.0,0.0,0.0,0.0,0.0,0.0,0.0,0.0,0.0,0.0,0.0,0.0,0.0,1.8053,1.8858,2.118,2.2297,2.2152,2.3575,2.3989,2.3283,2.1982,2.1012,0.0,0.0,0.0,0.0,0.0,0.0,0.0,0.0,0.0,0.0,0.0,0.0,0.0,0.0,0.0,0.0,0.0,0.0,0.0,0.0,0.0,0.0,0.0,0.0,0.0,0.0,0.0,0.0,0.0,0.0,0.0,0.0,0.0,0.0,0.0,0.0,0.0,0.0,0.0,0.0,0.0,0.0,1.8802,1.9185,0.0,0.0,0.0,1.9565,1.9102,0.0,0.0,0.0,0.0,0.0,0.0,0.0,0.0,0.0,0.0,0.0,0.0,0.0,0.0,0.0,0.0,0.0,0.0,0.0,0.0,0.0,0.0,0.0,0.0,0.0,0.0,0.0,0.0,0.0,0.0,0.0,0.0,0.0,0.0,0.0,0.0,0.0,0.0,0.0,0.0,0.0,0.0,0.0,0.0,0.0,0.0,0.0,0.0,0.0,0.0,0.0,0.0,0.0,0.0,0.0,0.0,0.0,1.944,2.1372,2.237,2.239,2.3599,2.384,2.2966,2.1848,0.0,0.0,0.0,0.0,0.0,0.0,0.0,0.0,0.0,0.0,0.0,0.0,0.0,0.0,0.0,0.0,0.0,0.0,0.0,0.0,0.0,0.0,0.0,0.0,0.0,0.0,0.0,1.1746,0.0,0.0,0.0,0.0,0.0,0.0,0.0,0.0,0.0,0.0,0.0,0.0,0.0,0.0,1.9344,1.945,1.9909,2.0295,0.0,0.0,2.0341,2.0067,1.9227,1.8333,0.0,0.0,0.0,0.0,0.0,0.0,0.0,0.0,0.0,0.0,0.0,0.0,0.0,0.0,0.0,0.0,0.0,0.0,0.0,0.0,0.0,0.0,0.0,0.0,0.0,0.0,0.0,0.0,0.0,0.0,0.0,0.0,0.0,0.0,0.0,0.0,0.0,0.0,0.0,0.0,0.0,0.0,0.0,0.0,0.0,0.0,0.0,0.0,0.0,0.0,0.0,0.0,0.0,0.0,0.0,2.1079,2.1909,2.2543,2.3041,2.375,2.3976,2.3631,2.1992,2.1004,0.0,0.0,0.0,0.0,0.0,0.0,0.0,0.0,0.0,0.0,0.0,0.0,0.0,0.0,0.0,0.0,0.0,0.0,0.0,0.0,0.0,0.0,0.0,0.0,0.0,0.0,0.0,0.0,0.0,0.0,0.0,0.0,0.0,0.0,0.0,0.0,0.0,0.0,0.0,0.0,0.0,1.9722,2.0883,2.0998,2.116,0.0,0.0,2.163,2.1011,2.1256,2.085,1.8903,0.0,0.0,0.0,0.0,0.0,0.0,0.0,0.0,0.0,0.0,0.0,0.0,0.0,0.0,0.0,0.0,0.0,0.0,0.0,0.0,0.0,0.0,0.0,0.0,0.0,0.0,0.0,0.0,0.0,0.0,0.0,0.0,0.0,0.0,0.0,0.0,0.0,0.0,0.0,0.0,0.0,0.0,0.0,0.0,0.0,0.0,0.0,0.0,0.0,0.0,0.0,0.0,0.0,1.9465,2.134,2.1983,2.2572,2.3149,2.3768,2.3737,2.2962,2.1697,2.0746,0.0,0.0,0.0,0.0,0.0,0.0,0.0,0.0,0.0,0.0,0.0,0.0,0.0,0.0,0.0,0.0,0.0,0.0,0.0,0.0,0.0,0.0,0.0,0.0,0.0,0.0,0.0,0.0,1.4304,1.4488,1.4488,0.0,0.0,0.0,0.0,0.0,0.0,0.0,0.0,0.0,0.0,2.0811,2.1267,2.162,0.0,0.0,2.2287,2.2203,2.1866,2.1972,2.1748,2.0716,2.0376,0.0,0.0,0.0,0.0,0.0,0.0,0.0,0.0,0.0,0.0,0.0,0.0,0.0,0.0,0.0,0.0,0.0,0.0,0.0,0.0,0.0,0.0,0.0,0.0,0.0,0.0,0.0,0.0,0.0,0.0,0.0,0.0,0.0,0.0,0.0,0.0,0.0,0.0,0.0,0.0,0.0,0.0,0.0,0.0,0.0,0.0,0.0,0.0,0.0,0.0,0.0,0.0,1.9985,2.1761,2.2144,2.2727,2.357,2.3897,2.368,2.2833,2.1636,2.0629,0.0,0.0,0.0,0.0,0.0,0.0,0.0,0.0,0.0,0.0,0.0,0.0,0.0,0.0,0.0,0.0,0.0,0.0,0.0,0.0,0.0,0.0,0.0,0.0,0.0,0.0,0.0,0.0,1.4488,1.4591,1.4829,0.0,0.0,0.0,0.0,0.0,0.0,0.0,0.0,0.0,0.0,2.1524,2.1738,2.2136,2.2405,2.2432,2.246,2.246,2.2338,2.2309,2.2169,2.1802,0.0,0.0,0.0,0.0,0.0,0.0,0.0,0.0,0.0,0.0,0.0,0.0,0.0,0.0,0.0,0.0,0.0,0.0,0.0,0.0,0.0,0.0,0.0,0.0,0.0,0.0,0.0,0.0,0.0,0.0,1.7695,0.0,0.0,0.0,0.0,0.0,0.0,0.0,0.0,0.0,0.0,0.0,0.0,0.0,0.0,0.0,0.0,0.0,0.0,0.0,0.0,0.0,0.0,2.0308,2.2603,2.2509,2.3078,2.44,2.4174,2.3862,2.3544,2.1839,2.0789,2.054,0.0,0.0,0.0,0.0,0.0,0.0,0.0,0.0,0.0,0.0,0.0,0.0,0.0,0.0,0.0,0.0,0.0,0.0,0.0,0.0,0.0,0.0,0.0,0.0,0.0,0.0,1.4489,1.4494,1.4829,0.0,0.0,0.0,0.0,0.0,0.0,0.0,0.0,0.0,0.0,2.1558,2.1704,2.2441,2.247,2.2449,2.2487,2.2487,2.2487,2.2405,2.2355,2.2185,0.0,0.0,0.0,0.0,0.0,0.0,0.0,0.0,0.0,0.0,0.0,0.0,0.0,0.0,0.0,0.0,0.0,0.0,0.0,0.0,0.0,0.0,0.0,0.0,0.0,0.0,0.0,1.8593,1.8579,0.0,0.0,0.0,0.0,0.0,0.0,0.0,0.0,0.0,0.0,0.0,2.1349,2.1352,0.0,0.0,0.0,0.0,0.0,0.0,0.0,0.0,0.0,0.0,0.0,0.0,2.1466,2.2717,2.3139,2.3746,2.4588,2.4338,2.4019,2.3667,2.245,2.0912,1.9117,0.0,0.0,0.0,0.0,0.0,0.0,0.0,0.0,0.0,0.0,0.0,0.0,0.0,0.0,0.0,0.0,0.0,0.0,0.0,0.0,0.0,0.0,0.0,0.0,0.0,1.4429,0.0,0.0,0.0,0.0,0.0,0.0,0.0,0.0,0.0,0.0,0.0,2.198,2.1805,2.2039,2.2304,2.2561,2.2542,2.2487,0.0,0.0,0.0,0.0,0.0,0.0,0.0,0.0,0.0,0.0,0.0,0.0,0.0,0.0,1.63,1.5518,1.5016,1.4595,1.4213,0.0,0.0,0.0,0.0,0.0,0.0,0.0,0.0,0.0,0.0,0.0,0.0,0.0,0.0,2.0111,0.0,1.9657,0.0,0.0,0.0,0.0,0.0,0.0,0.0,0.0,2.2408,2.2976,2.3025,2.3025,2.3026,0.0,2.3062,2.191,0.0,0.0,0.0,0.0,0.0,0.0,0.0,0.0,2.2235,2.3263,2.3667,2.4171,2.4752,2.4545,2.4229,2.3821,2.2747,2.1074,1.877,1.791,1.6868,0.0,0.0,0.0,0.0,0.0,0.0,0.0,0.0,0.0,0.0,0.0,0.0,0.0,0.0,0.0,0.0,0.0,0.0,0.0,0.0,0.0,0.0,0.0,1.4824,0.0,0.0,0.0,0.0,0.0,0.0,0.0,0.0,0.0,2.0686,2.1829,2.2535,2.2227,2.241,2.2605,2.2632,0.0,0.0,0.0,0.0,0.0,0.0,0.0,2.2197,2.1857,2.1413,2.0991,2.0679,1.9995,1.9332,1.8898,0.0,0.0,1.6157,1.5604,1.5133,1.4761,1.4332,1.3938,1.3651,1.3137,1.272,0.0,0.0,0.0,0.0,0.0,0.0,0.0,0.0,2.2262,2.2388,0.0,2.2395,0.0,0.0,0.0,0.0,0.0,2.2526,0.0,0.0,2.2927,2.294,2.3017,2.3046,2.2991,2.2972,2.3058,2.3038,2.2913,2.219,0.0,0.0,0.0,0.0,0.0,0.0,2.2639,2.4132,2.4094,2.437,2.4968,2.4741,2.4459,2.408,2.2812,2.1335,1.9691,1.8791,1.7928,1.7053,1.5645,0.0,0.0,0.0,0.0,0.0,0.0,0.0,0.0,0.0,0.0,0.0,0.0,0.0,0.0,0.0,0.0,0.0,0.0,0.0,0.0,1.5156,0.0,0.0,0.0,0.0,0.0,0.0,0.0,0.0,0.0,0.0,2.198,2.1972,2.2177,2.2797,0.0,0.0,0.0,0.0,2.2605,2.2685,2.2649,2.263,2.2566,2.2451,2.2269,2.1906,0.0,0.0,2.0392,1.9854,1.9369,1.8974,1.8514,1.7851,1.6744,1.5893,1.5197,1.4873,1.4489,1.3976,1.3556,1.3477,1.3203,1.9132,0.0,0.0,0.0,0.0,2.3199,2.3741,2.4252,2.4078,2.3824,2.3442,2.2973,0.0,0.0,0.0,0.0,0.0,0.0,2.3795,2.4049,2.5129,2.5423,2.5053,2.5042,2.4769,2.427,2.4263,2.3995,2.3429,2.3204,2.2813,2.228,0.0,0.0,0.0,0.0,2.3804,2.4268,2.4791,2.5089,2.5133,2.4975,2.4648,2.4173,2.3057,2.2135,2.144,2.0055,1.8898,1.8014,1.6498,0.0,0.0,0.0,0.0,0.0,0.0,0.0,0.0,0.0,0.0,0.0,0.0,0.0,0.0,0.0,0.0,0.0,0.0,0.0,1.5076,1.5886,1.6385,0.0,0.0,0.0,0.0,0.0,0.0,0.0,0.0,0.0,2.2998,2.2909,2.2856,0.0,0.0,2.2685,2.2703,2.2605,2.2569,2.2605,0.0,0.0,0.0,2.3545,2.3533,2.2781,2.1774,2.0958,2.0527,2.0015,1.9588,1.9124,1.863,1.8052,1.7357,1.6833,1.6389,1.5973,1.574,1.5365,1.4771,1.4072,1.3544,1.7335,1.9322,2.0466,2.1385,2.2113,2.2792,2.3502,2.4151,2.4195,2.4134,2.3968,2.3723,2.3294,2.2828,2.2847,0.0,0.0,0.0,2.4364,2.4599,2.5539,2.5799,2.5463,2.5465,2.5096,2.4468,2.4515,2.4164,2.3495,2.3562,2.3501,2.3355,0.0,0.0,2.3402,2.3972,2.4425,2.4801,2.5291,2.5457,2.5316,2.5102,2.4809,2.4372,2.3639,2.2984,2.2357,2.1007,1.9835,1.8944,1.7376,1.6221,0.0,0.0,0.0,0.0,0.0,0.0,0.0,0.0,0.0,0.0,0.0,1.4861,0.0,0.0,0.0,0.0,1.5293,1.5433,1.5843,1.6941,0.0,0.0,0.0,0.0,0.0,0.0,0.0,2.2392,2.2821,2.3208,2.3566,2.3445,2.3265,2.3052,2.3137,2.3196,2.3187,0.0,2.3515,2.3543,2.3819,2.4006,2.3994,2.4205,2.4139,2.3404,2.207,2.1147,2.097,2.0369,1.9762,1.9273,1.8822,1.8358,1.7841,1.7447,1.7031,1.6522,1.6286,1.5957,1.5165,1.4413,1.3939,1.4597,1.5452,1.7494,1.899,2.0133,2.083,2.1584,2.2378,2.3074,2.3587,2.3953,2.4368,2.4516,2.4464,2.4394,0.0,2.4313,2.433,2.435,2.4391,2.451,2.4597,2.4599,2.4593,2.4295,2.3717,2.3837,2.3684,2.3261,2.3371,2.359,2.3784,2.3003,2.3064,2.4003,2.4193,2.4695,2.5544,2.5586,2.5576,2.5507,2.5197,2.4905,2.464,2.4389,2.3768,2.2767,2.1749,2.08,1.9843,1.83,1.7082,1.6359,0.0,0.0,0.0,0.0,0.0,0.0,0.0,0.0,0.0,0.0,0.0,0.0,0.0,0.0,0.0,1.6739,0.0,1.6784,1.8226,0.0,0.0,0.0,2.1552,2.1662,2.2354,2.2809,2.2806,0.0,0.0,2.3876,0.0,2.3554,2.3344,2.3754,2.4023,2.4012,2.4562,2.5005,2.4902,2.4876,2.4804,2.4804,2.4655,2.4391,2.3902,2.2504,2.1652,2.1682,2.0987,2.0131,1.9745,1.9299,1.8892,1.8474,1.8085,1.7429,1.6764,1.6355,1.5924,1.5153,1.4674,1.4269,1.1615,1.2432,1.3181,1.5357,1.8397,1.9368,2.0286,2.1119,2.2027,2.2435,2.2432,2.2938,2.2976,2.2617,2.2457,2.2488,2.2676,2.2838,2.2742,2.2523,2.3262,2.337,2.2905,2.2889,2.263,2.2178,2.2278,2.2476,2.2679,2.2484,2.2615,2.3022,2.2693,2.3162,2.441,2.4636,2.4899,2.5278,2.5442,2.5506,2.5485,2.5316,2.512,2.4891,2.4714,2.4379,2.3897,2.2941,2.1967,2.1003,1.9416,1.8163,1.7394,1.6612,0.0,0.0,0.0,0.0,0.0,0.0,0.0,0.0,0.0,1.6428,1.6506,0.0,1.6718,0.0,1.7702,1.8339,1.8374,1.9813,0.0,0.0,2.1206,2.1752,2.2371,2.2664,2.3028,2.3611,2.3848,2.4151,2.4646,2.4653,2.4792,2.5145,2.467,2.4392,2.4871,2.4975,2.5,2.5086,2.5369,2.562,2.5589,2.5314,2.5009,2.4779,2.4065,2.3419,2.2908,2.2357,2.183,2.131,2.0882,2.0472,1.9908,1.947,1.8792,1.7887,1.6879,1.5993,1.5468,1.4915,1.4444,0.8523,0.9135,0.9531,1.1059,1.3494,1.6066,1.7789,1.8863,1.99,2.0437,2.063,2.1159,2.1269,2.104,2.0841,2.0824,2.0862,2.0812,2.0675,2.0448,2.085,2.0872,2.0554,2.0481,2.0323,2.0007,2.0174,2.0445,2.0651,2.0783,2.1104,2.1681,2.1857,2.2383,2.3253,2.3996,2.4524,2.4837,2.5193,2.5382,2.5447,2.541,2.5299,2.5155,2.4958,2.4776,2.4516,2.3557,2.2738,2.2118,2.0516,1.9231,1.8402,1.7595,1.6954,0.0,0.0,0.0,0.0,0.0,0.0,0.0,0.0,0.0,0.0,0.0,1.8417,0.0,1.956,2.0011,2.0029,2.1128,2.1886,2.1886,2.2272,2.2714,2.3188,2.3591,2.403,2.4488,2.4874,2.5236,2.559,2.5578,2.5796,2.6464,2.5954,2.5588,2.5848,2.5993,2.6167,2.6155,2.6364,2.6533,2.6453,2.6145,2.5882,2.5748,2.5446,2.4842,2.3929,2.3199,2.2592,2.211,2.162,2.1208,2.0726,2.0201,1.9554,1.8773,1.7856,1.6863,1.5787,1.5187,1.4731,0.5369,0.5724,0.6222,0.6714,0.7531,1.1632,1.4269,1.5775,1.691,1.7759,1.8426,1.8895,1.9154,1.9307,1.9089,1.8909,1.8645,1.841,1.8166,1.7926,1.767,1.7542,1.7658,1.7542,1.7427,1.7411,1.7711,1.7885,1.8017,1.8532,1.9138,1.987,2.0475,2.097,2.1294,2.2573,2.3596,2.4282,2.4819,2.5163,2.534,2.5409,2.5427,2.5309,2.5192,2.5031,2.4853,2.3982,2.3372,2.3043,2.1648,2.0409,1.9449,1.8642,1.7869,0.0,1.6962,0.0,0.0,0.0,0.0,0.0,0.0,0.0,0.0,1.9488,2.0698,2.1459,2.153,2.1565,2.1565,2.2269,2.2813,2.2901,2.356,2.4037,2.4224,2.4905,2.5363,2.5363,2.6048,2.6508,2.6571,2.6459,2.668,2.7375,2.7309,2.7077,2.6929,2.7216,2.7495,2.7539,2.7465,2.7238,2.7066,2.6889,2.6708,2.6607,2.6335,2.5894,2.4857,2.3911,2.3112,2.27,2.2297,2.1747,2.1291,2.0769,2.0175,1.9633,1.9022,1.8101,1.6433,1.5705,1.5211,0.2605,0.2986,0.322,0.3673,0.4417,0.6528,0.8954,1.1436,1.2452,1.3758,1.5201,1.559,1.5916,1.6177,1.6025,1.567,1.5243,1.5065,1.4601,1.3879,1.383,1.3745,1.3602,1.3602,1.3856,1.426,1.4591,1.5169,1.5846,1.609,1.6676,1.7557,1.7886,1.8486,1.9322,0.0,0.0,0.0,2.4219,2.4612,2.4908,2.5154,2.5266,2.5292,2.5278,0.0,2.511,2.4771,2.4233,2.3464,2.3011,0.0,0.0,0.0,0.0,0.0,0.0,0.0,0.0,0.0,0.0,0.0,2.0169,2.0296,1.9831,2.0698,2.1332,2.1514,2.2034,2.2375,2.2375,2.3102,2.3868,2.4538,2.4823,2.5215,2.5838,2.6118,2.6249,2.6249,2.6457,2.6826,2.7346,2.7433,2.7656,2.8221,2.8327,2.8216,2.7969,2.7826,2.776,2.773,2.763,2.7448,2.723,2.7184,2.7023,2.6775,2.6538,2.6229,2.5688,2.5185,2.4655,2.4177,2.3836,2.3348,2.2862,2.2377,2.1563,2.0676,1.9934,1.9003,1.7684,1.7015,1.6543,-0.0078,0.0,0.0311,0.0777,0.0,0.2175,0.365,0.551,0.795,0.9933,1.1458,1.1636,1.1831,1.205,1.1999,1.1795,1.1451,1.1328,1.0846,1.0142,0.9952,0.9806,0.9656,0.96,0.9965,1.0643,1.1441,1.2101,1.2619,1.3104,1.3837,1.4729,1.5487,1.6225,1.6912,1.8061,1.9997,2.2795,2.3149,2.3585,2.4148,2.4507,2.4822,2.5104,0.0,0.0,0.0,0.0,0.0,0.0,0.0,0.0,0.0,0.0,0.0,2.0528,2.0381,2.0298,2.0263,2.0553,2.0712,2.0712,2.1452,2.1798,2.1457,2.1841,2.2278,2.2697,2.3077,2.3456,2.3855,2.4257,2.4823,2.5645,2.5779,2.5987,2.6392,2.6838,2.7098,2.7193,2.7526,2.793,2.8292,2.8301,2.8401,2.867,2.8662,2.8562,2.8458,2.8174,2.7979,2.7911,2.7748,2.76,2.7461,2.7359,2.7233,2.6973,2.6725,2.6469,2.6189,2.5844,2.547,2.5005,2.4508,2.4009,2.3523,2.2949,2.2271,2.1467,2.071,1.9953,1.9019,1.7958,1.6971,-0.2765,-0.2838,-0.2512,-0.2194,-0.1958,-0.1559,-0.1089,-0.0389,0.0,0.0,0.0,0.7522,0.7667,0.7897,0.7892,0.7803,0.7635,0.743,0.7055,0.6475,0.6139,0.5981,0.5886,0.5756,0.6128,0.693,0.8206,0.885,0.9029,0.9837,1.0671,1.1606,1.2829,1.3838,1.4609,1.5883,1.7996,2.0841,2.1545,2.224,2.3084,2.3656,2.4162,2.4676,2.5021,2.5247,2.5362,2.5323,2.527,2.5149,2.4443,2.3926,2.3651,2.2835,2.2223,2.1962,2.1777,2.1677,2.1623,2.1662,2.1713,2.1858,2.2531,2.295,2.2892,2.2915,2.33,2.4142,2.4215,2.4543,2.5327,2.5418,2.5768,2.6556,2.6648,2.6746,2.6991,2.7545,2.7989,2.8084,2.858,2.9017,2.8938,2.8915,2.891,2.8881,2.8743,2.8637,2.8587,2.838,2.8182,2.8042,2.7893,2.7789,2.7672,2.7539,2.7359,2.7181,2.6923,2.6657,2.6418,2.6118,2.577,2.5333,2.4766,2.4204,2.3739,2.3127,2.2509,2.1935,2.1313,2.066,2.0016,1.8721,1.7426,-0.5618,-0.5609,-0.5178,-0.5055,-0.497,-0.4557,-0.4361,-0.3889,0.0541,0.2929,0.3605,0.3743,0.4038,0.4424,0.4424,0.4225,0.3849,0.3849,0.3507,0.0,0.2717,0.2541,0.2478,0.2405,0.2779,0.3449,0.471,0.5367,0.5603,0.6169,0.7007,0.8042,0.9217,1.0909,1.3016,1.4117,1.5415,1.7083,1.9051,2.054,2.1507,2.2428,2.322,2.3847,2.4457,2.4934,2.5223,2.533,2.5375,2.5368,2.5189,2.4726,2.3913,2.3588,2.3021,2.2239,2.2017,2.1893,2.1797,2.2336,2.2978,2.3654,2.3817,2.3832,2.3671,2.3735,2.416,2.4944,2.5017,2.5363,2.6133,2.6304,2.6677,2.7453,2.7644,2.7985,2.8618,2.8842,2.8913,2.8868,2.8993,2.9062,2.9017,2.8994,2.8989,2.8923,2.9059,2.8858,2.8782,2.8476,2.8345,2.8209,2.8154,2.8025,2.7789,2.7672,2.7491,2.7244,2.7021,2.6791,2.6504,2.6154,2.5824,2.5355,2.491,2.4369,2.3882,2.329,2.2663,2.2077,2.1547,2.0875,2.0156,1.9241,1.847,-0.7789,-0.7979,-0.7655,-0.7546,-0.7539,-0.7129,-0.6936,-0.6763,-0.4272,-0.2032,-0.0233,0.0077,0.0387,0.0696,0.0775,0.0693,0.0534,0.0534,0.0301,-0.0147,-0.0368,-0.0582,-0.0711,-0.0779,-0.0563,-0.0,0.0891,0.1631,0.2097,0.2531,0.3429,0.468,0.6432,0.8276,1.017,1.1152,1.2362,1.3986,1.6757,1.8817,2.01,2.0963,2.185,2.2799,2.3688,2.4398,2.4868,2.5148,2.5347,2.546,2.5414,2.5182,2.4745,2.4551,2.4238,2.3763,2.3554,2.3431,2.3329,2.3557,2.3842,2.4173,2.4247,2.4412,2.476,2.4794,2.4959,2.5328,2.577,2.6395,2.7166,2.7279,2.7672,2.8485,2.8581,2.875,2.9086,2.9218,2.9178,2.9156,2.9156,2.9134,2.913,2.9085,2.9265,2.9549,2.9923,3.01,3.0017,2.994,2.9483,2.8542,2.8254,2.8154,2.7996,2.7789,2.7642,2.7448,2.7213,2.6973,2.6725,2.6382,2.5974,2.5567,2.5107,2.4574,2.4036,2.3436,2.2844,2.2324,2.163,2.0997,2.0308,1.9411,1.8471,-0.978,-1.011,-0.9973,-0.9927,-0.9801,-0.9538,-0.9366,-0.9266,-0.8702,-0.7032,-0.4724,-0.3665,-0.3031,-0.2874,-0.2722,-0.2647,-0.2646,-0.2646,-0.2774,-0.3107,-0.333,-0.3513,-0.3655,-0.3721,-0.3491,-0.3105,-0.2621,-0.1887,-0.1107,-0.0746,0.0201,0.1862,0.3769,0.5531,0.7003,0.8042,0.9411,1.1167,1.3989,1.6435,1.8452,1.9398,2.048,2.1715,2.2757,2.3658,2.4304,2.4793,2.5162,2.5389,2.5468,2.5442,2.542,2.5298,2.5187,2.5061,2.491,2.478,2.4681,2.457,2.4459,2.4429,2.4649,2.5039,2.5615,2.6005,2.6134,2.617,2.6725,2.7409,2.8112,2.8278,2.8558,2.9169,2.9243,2.9228,2.9265,2.9265,2.9265,2.9243,2.9391,2.9518,2.9496,2.9599,2.9964,3.0549,3.1042,3.129,3.1258,3.1232,3.0545,2.9502,2.8775,2.8568,2.8477,2.8085,2.7824,2.7677,2.74,2.7166,2.6942,2.6589,2.6208,2.5775,2.5285,2.4735,2.4245,2.3595,2.3024,2.2449,2.1793,2.1006,2.0169,1.9202,1.8104,-1.2037,-1.2167,-1.21,-1.2038,-1.1852,-1.176,-1.1674,-1.149,-1.1449,-1.1027,-0.9887,-0.734,-0.5986,-0.5832,-0.5755,-0.5752,-0.5755,-0.5755,-0.5745,-0.581,-0.604,-0.6118,-0.6064,-0.6057,-0.5838,-0.5437,-0.5334,-0.4626,-0.3559,-0.3533,-0.2388,-0.0201,0.1131,0.2389,0.3701,0.5123,0.6733,0.846,1.0113,1.2795,1.6321,1.7856,1.9219,2.0608,2.1637,2.2605,2.3578,2.4219,2.4755,2.5105,2.5313,2.5436,2.5478,2.541,2.535,2.5264,2.5184,2.508,2.4883,2.4813,2.4794,2.4817,2.5458,2.5911,2.6099,2.7301,2.8035,2.7903,2.7919,2.8327,2.9052,2.9145,2.9202,2.9334,2.9372,2.9412,2.9488,2.9491,2.9414,2.9293,3.0073,3.042,3.0354,3.0808,3.1325,3.1431,3.1636,3.1728,3.1659,3.1591,3.1477,3.0899,3.0267,2.962,2.9321,2.8655,2.8255,2.7883,2.7604,2.7393,2.7091,2.6691,2.6279,2.5901,2.5454,2.491,2.4369,2.3767,2.3157,2.2526,2.1799,2.0988,1.9749,1.8903,1.819,-1.3516,-1.3789,-1.3761,-1.3725,-1.3625,-1.3625,-1.3619,-1.351,-1.3244,-1.3004,-1.2631,-1.1134,-0.973,-0.8458,-0.8196,-0.799,-0.8067,-0.799,-0.8062,-0.8067,-0.8214,-0.8321,-0.8257,-0.8248,-0.8198,-0.7964,-0.7565,-0.7033,-0.6358,-0.5494,-0.4172,-0.2539,-0.1398,-0.0266,0.0863,0.2586,0.4164,0.5524,0.7307,0.9643,1.2468,1.5421,1.7791,1.9443,2.0993,2.2186,2.3024,2.3973,2.4549,2.4695,2.5022,2.5288,2.5434,2.5445,2.5449,2.5428,2.5307,2.5194,2.503,2.545,2.572,2.5632,2.6393,2.7093,2.7554,2.8234,2.8732,2.9079,2.9064,2.9194,2.9416,2.9491,2.9472,2.9472,2.9434,2.9659,3.0221,3.0258,3.0387,3.0833,3.1206,3.1278,3.1043,3.1607,3.2167,3.236,3.2625,3.2859,3.2907,3.2893,3.2816,3.2672,3.1981,3.1129,3.0495,2.9983,2.9347,2.8735,2.8403,2.8091,2.7272,2.6792,2.64,2.6043,2.5546,2.5045,2.4539,2.3952,2.3334,2.2603,2.1657,2.0706,1.9658,1.9004,1.8387,-1.4928,-1.522,-1.5387,-1.5477,-1.547,-1.547,-1.547,-1.5365,-1.496,-1.4777,-1.466,-1.4207,-1.3153,-1.1582,-1.0588,-1.0116,-1.0056,-0.997,-0.9976,-1.0051,-1.0196,-1.0271,-1.0346,-1.0351,-1.0271,-1.0093,-0.9633,-0.915,-0.8617,-0.7168,-0.5962,-0.4922,-0.3877,-0.2797,-0.173,-0.0,0.1461,0.2779,0.4677,0.6759,0.9119,1.2572,1.5644,1.7987,1.9936,2.1391,2.2377,2.3653,2.4451,2.4706,2.5224,2.5572,2.5646,2.5771,2.5839,2.5859,2.5777,2.5772,2.588,2.645,2.6776,2.6727,2.7426,2.816,2.8684,2.8992,2.9357,2.982,2.9876,2.9754,2.9701,2.9664,2.972,2.9889,2.9926,3.0301,3.1088,3.1219,3.1425,3.1948,3.2098,3.2243,3.216,3.2691,3.3157,3.3308,3.371,3.4074,3.4049,3.3943,3.3865,3.385,3.3256,3.2474,3.1529,3.0864,3.0367,2.984,2.9347,2.8837,2.7794,2.7282,2.6673,2.6338,2.5745,2.5146,2.4605,2.4036,2.3275,2.2498,2.1547,2.0584,1.9786,1.9186,1.8548,-1.646,-1.6706,-1.7107,-1.7196,-1.7277,-1.7269,-1.7277,-1.7196,-1.6911,-1.6756,-1.6522,-1.6077,-1.5682,-1.5098,-1.3276,-1.2194,-1.188,-1.1706,-1.17,-1.1848,-1.1848,-1.1996,-1.215,-1.215,-1.2003,-1.1626,-1.1514,-1.0924,-0.9946,-0.8869,-0.8015,-0.7373,-0.6136,-0.5064,-0.4191,-0.2861,-0.1396,0.0199,0.2117,0.4177,0.6502,0.9205,1.253,1.5962,1.8181,1.9936,2.1576,2.3062,2.4305,2.5356,2.6093,2.6458,2.6313,2.6495,2.671,2.6813,2.6778,2.7051,2.764,2.7797,2.7797,2.7832,2.8464,2.8951,2.9111,2.9645,3.0051,3.0171,3.0128,3.0019,3.0004,2.9993,3.0205,3.0827,3.1015,3.1374,3.2147,3.2223,3.2185,3.2372,3.2785,3.3269,3.412,3.4334,3.4213,3.4204,3.4274,3.4269,3.4197,3.4148,3.4074,3.3998,3.3758,3.3359,3.2337,3.1779,3.1142,3.0534,3.0189,2.988,2.9039,2.8215,2.7402,2.663,2.602,2.5406,2.4742,2.3964,2.3143,2.2314,2.139,2.0521,1.9888,1.923,1.8555,-1.7674,-1.8006,-1.8167,-1.8247,-1.8256,-1.8256,-1.8256,-1.8247,-1.8086,-1.7925,-1.7747,-1.7548,-1.7204,-1.6727,-1.5928,-1.4805,-1.371,-1.3345,-1.3251,-1.3317,-1.3324,-1.3397,-1.347,-1.347,-1.3397,-1.3244,-1.3091,-1.2566,-1.1637,-1.0981,-1.0218,-0.9315,-0.8333,-0.7286,-0.6326,-0.5124,-0.3725,-0.2192,-0.0265,0.1793,0.385,0.6552,0.9426,1.2305,1.618,1.8968,2.0585,2.2255,2.3618,2.4574,2.5506,2.6243,2.6635,2.7151,2.7541,2.7653,2.7682,2.7796,2.809,2.8572,2.8833,2.882,2.9494,2.9894,2.9936,3.0151,3.0318,3.0324,3.0272,3.0376,3.0806,3.0817,3.0873,3.114,3.1632,3.2276,3.2958,3.3223,3.3374,3.3809,3.4092,3.4314,3.4492,3.4636,3.4617,3.4536,3.4473,3.4409,3.4386,3.4311,3.4221,3.4173,3.4074,3.3828,3.3423,3.2902,3.2329,3.1601,3.1105,3.0751,3.0062,2.923,2.8422,2.7389,2.6606,2.5789,2.5152,2.3882,2.3038,2.2235,2.1307,2.067,2.0042,1.9347,1.8727,-1.8816,-1.9125,-1.9292,-1.9301,-1.9301,-1.9292,-1.9292,-1.9292,-1.9213,-1.9054,-1.8816,-1.8736,-1.8505,-1.8118,-1.783,-1.7124,-1.592,-1.5096,-1.46,-1.4569,-1.4561,-1.4633,-1.4705,-1.4768,-1.4705,-1.4625,-1.4338,-1.3912,-1.3282,-1.2805,-1.2179,-1.133,-1.0257,-0.9274,-0.833,-0.7199,-0.5913,-0.432,-0.2525,-0.0597,0.139,0.402,0.6544,0.9244,1.3301,1.687,1.9294,2.1309,2.2963,2.4114,2.5293,2.6333,2.7156,2.7555,2.7977,2.8377,2.8527,2.8726,2.8987,2.9528,2.9823,2.9773,3.018,3.0511,3.0491,3.0449,3.0428,3.0463,3.0686,3.1015,3.1507,3.1948,3.2187,3.2181,3.2585,3.327,3.4032,3.4165,3.4412,3.4755,3.4775,3.4793,3.4826,3.4864,3.4826,3.4693,3.463,3.4586,3.4583,3.4495,3.4386,3.4363,3.4288,3.4148,3.3887,3.3505,3.3164,3.2527,3.2025,3.1639,3.1105,3.0248,2.9312,2.8216,2.7224,2.6349,2.5274,2.3978,2.3007,2.2226,2.1492,2.0795,2.0194,1.9488,1.8857,-2.001,-2.0235,-2.0479,-2.0557,-2.0557,-2.0557,-2.0566,-2.0479,-2.0323,-2.0089,-1.9854,-1.9687,-1.9511,-1.9279,-1.8916,-1.8629,-1.8172,-1.6819,-1.5892,-1.5652,-1.5513,-1.57,-1.6053,-1.6053,-1.5912,-1.5754,-1.5409,-1.5125,-1.4838,-1.4275,-1.3739,-1.3194,-1.2009,-1.1035,-1.0309,-0.9077,-0.7837,-0.6396,-0.4794,-0.2917,-0.0793,0.1586,0.4088,0.6686,0.9631,1.3201,1.7573,2.0067,2.216,2.3949,2.552,2.6926,2.7771,2.7823,2.8068,2.9038,2.9323,2.9851,3.0546,3.0662,3.0611,3.0584,3.0626,3.0614,3.0582,3.0548,3.0511,3.0598,3.1165,3.1703,3.1996,3.3057,3.3862,3.3976,3.3888,3.4292,3.4885,3.5152,3.5155,3.5105,3.4996,3.4943,3.5002,3.5059,3.504,3.4925,3.4832,3.4792,3.479,3.4728,3.4626,3.4539,3.4473,3.4381,3.4221,3.4005,3.3734,3.34,3.301,3.2608,3.1956,3.1184,3.0139,2.907,2.7771,2.688,2.5644,2.4418,2.3472,2.2653,2.1849,2.113,2.0489,1.9843,1.8934,-2.0964,-2.1328,-2.1415,-2.1425,-2.1415,-2.1415,-2.1415,-2.1415,-2.1185,-2.0964,-2.0809,-2.0557,-2.0401,-2.0226,-2.0014,-1.9822,-1.9544,-1.8929,-1.8101,-1.7215,-1.6808,-1.676,-1.6959,-1.6968,-1.689,-1.6742,-1.6603,-1.6394,-1.6079,-1.5678,-1.5307,-1.4627,-1.3878,-1.3021,-1.2047,-1.089,-0.9616,-0.8276,-0.6618,-0.4901,-0.2983,-0.0796,0.1588,0.4088,0.6788,0.9959,1.3277,1.7292,2.0422,2.2557,2.439,2.623,2.7882,2.8596,2.9093,2.9773,3.0059,3.0273,3.0645,3.076,3.0795,3.0768,3.074,3.0722,3.0672,3.0656,3.0645,3.0718,3.1361,3.201,3.2715,3.3611,3.4224,3.4164,3.4625,3.5,3.5258,3.53,3.5254,3.5223,3.5152,3.5122,3.5148,3.5188,3.5198,3.5114,3.5032,3.5001,3.5002,3.4908,3.4811,3.4732,3.4689,3.4602,3.4409,3.4227,3.3986,3.3643,3.3332,3.3001,3.2474,3.1916,3.092,2.9758,2.846,2.7248,2.5997,2.4939,2.4054,2.33,2.2583,2.183,2.1043,2.0198,1.9365,-2.1807,-2.2101,-2.2176,-2.2252,-2.2252,-2.2262,-2.2176,-2.2111,-2.2035,-2.1797,-2.1578,-2.1405,-2.1252,-2.1108,-2.1031,-2.0891,-2.0697,-2.0547,-2.0008,-1.9043,-1.8187,-1.7889,-1.7949,-1.792,-1.7852,-1.7784,-1.7657,-1.751,-1.7226,-1.6932,-1.6528,-1.5978,-1.5479,-1.4663,-1.366,-1.2668,-1.1518,-1.006,-0.8575,-0.6881,-0.5045,-0.2986,-0.073,0.1654,0.4398,0.7168,1.0011,1.4038,1.7663,2.0718,2.336,2.5741,2.7672,2.8494,2.9233,2.9817,3.0205,3.0459,3.0594,3.071,3.0775,3.0798,3.0796,3.0782,3.0735,3.0742,3.0814,3.1222,3.1942,3.2732,3.3547,3.4351,3.4754,3.4774,3.5149,3.547,3.5468,3.5435,3.5388,3.5379,3.5345,3.5304,3.5283,3.5353,3.5354,3.5302,3.5232,3.5176,3.516,3.5091,3.5001,3.4945,3.4889,3.479,3.4626,3.4435,3.4237,3.3854,3.3449,3.3051,3.2588,3.2143,3.1388,3.0141,2.8835,2.7739,2.6535,2.5601,2.4674,2.4007,2.3279,2.2442,2.1588,2.079,1.9903,-2.2553,-2.2777,-2.2927,-2.3001,-2.3001,-2.299,-2.2927,-2.2777,-2.2703,-2.2478,-2.2252,-2.209,-2.2025,-2.1883,-2.1873,-2.1852,-2.1811,-2.1489,-2.1303,-2.0876,-1.99,-1.914,-1.8926,-1.8865,-1.8865,-1.8731,-1.8539,-1.8327,-1.825,-1.791,-1.7638,-1.721,-1.6735,-1.6062,-1.5205,-1.4447,-1.3309,-1.189,-1.056,-0.8986,-0.7107,-0.5035,-0.285,-0.0596,0.2043,0.4724,0.7555,1.1024,1.4744,1.8927,2.2688,2.519,2.6659,2.7772,2.8603,2.9289,2.9851,3.0224,3.0451,3.0623,3.0723,3.0774,3.08,3.0784,3.0778,3.094,3.1246,3.1851,3.2752,3.3577,3.4367,3.5098,3.5533,3.5648,3.5562,3.5572,3.5604,3.5591,3.5534,3.5502,3.5502,3.5476,3.5417,3.5532,3.5509,3.5438,3.5359,3.5326,3.53,3.5258,3.5212,3.5126,3.5091,3.4964,3.4791,3.4685,3.4473,3.4136,3.367,3.3164,3.2674,3.2196,3.1565,3.0325,2.9275,2.8176,2.7226,2.6276,2.5369,2.4614,2.3843,2.2991,2.2133,2.1249,2.0326,-2.315,-2.3383,-2.3446,-2.3446,-2.3446,-2.3446,-2.3446,-2.3372,-2.3224,-2.3086,-2.2916,-2.2852,-2.2777,-2.2692,-2.2703,-2.2703,-2.266,-2.2563,-2.244,-2.2143,-2.1528,-2.0533,-1.992,-1.977,-1.9726,-1.9605,-1.9341,-1.9208,-1.9054,-1.8787,-1.8596,-1.8395,-1.8006,-1.7533,-1.6934,-1.6026,-1.5068,-1.3921,-1.2445,-1.0836,-0.9085,-0.7195,-0.5091,-0.2718,-0.0463,0.2175,0.5305,0.991,1.4668,1.9168,2.1871,2.403,2.551,2.6774,2.7798,2.8635,2.9308,2.9836,3.019,3.0474,3.0637,3.0719,3.0774,3.08,3.0823,3.1402,3.1807,3.2333,3.3297,3.4275,3.4614,3.5223,3.5621,3.5635,3.562,3.5608,3.5608,3.5604,3.5591,3.5572,3.5565,3.5546,3.5577,3.5616,3.562,3.5562,3.5495,3.5451,3.543,3.5407,3.5335,3.5273,3.519,3.5108,3.4983,3.4886,3.4701,3.4377,3.3891,3.331,3.2706,3.2109,3.1321,3.0327,2.9556,2.8525,2.7791,2.7011,2.6118,2.5107,2.4299,2.343,2.2541,2.1681,2.0761,-2.3824,-2.397,-2.4043,-2.4127,-2.4116,-2.4116,-2.4043,-2.397,-2.3824,-2.3751,-2.3666,-2.3593,-2.3519,-2.353,-2.3519,-2.3519,-2.353,-2.3519,-2.3425,-2.3183,-2.2567,-2.1565,-2.0707,-2.0506,-2.0506,-2.0453,-2.0129,-1.9987,-1.9846,-1.9649,-1.9462,-1.9274,-1.9065,-1.8731,-1.822,-1.7543,-1.6615,-1.5534,-1.4231,-1.2778,-1.1096,-0.9288,-0.7259,-0.5027,-0.2734,0.0198,0.4327,0.8788,1.336,1.755,2.0335,2.2388,2.4144,2.5638,2.6857,2.787,2.8695,2.9364,2.9855,3.0243,3.051,3.0642,3.0726,3.0991,3.1326,3.1856,3.2205,3.3278,3.4125,3.4653,3.5057,3.5436,3.559,3.562,3.5628,3.5608,3.562,3.562,3.5639,3.5651,3.5654,3.5676,3.5688,3.5707,3.5688,3.5658,3.5626,3.5562,3.5526,3.5496,3.5463,3.5388,3.5335,3.5242,3.5145,3.504,3.4745,3.4469,3.3876,3.3317,3.266,3.195,3.1167,3.0368,2.9677,2.8951,2.811,2.7246,2.6419,2.546,2.4696,2.3891,2.3007,2.2147,2.1186,-2.4345,-2.4574,-2.4718,-2.4801,-2.4801,-2.4801,-2.4646,-2.4574,-2.449,-2.4345,-2.4273,-2.4273,-2.4189,-2.4261,-2.4189,-2.4273,-2.4261,-2.4261,-2.4181,-2.3883,-2.3351,-2.2422,-2.1399,-2.1192,-2.1169,-2.1094,-2.0839,-2.0764,-2.0624,-2.0366,-2.0183,-2.0053,-1.9987,-1.9726,-1.9309,-1.887,-1.8088,-1.7083,-1.6069,-1.4681,-1.3153,-1.1375,-0.947,-0.7279,-0.4255,-0.073,0.342,0.7227,1.0737,1.5296,1.8119,2.0483,2.2468,2.4217,2.5737,2.6947,2.7976,2.8842,2.9474,2.998,3.0355,3.054,3.0799,3.1209,3.1894,3.2375,3.3135,3.4226,3.4661,3.5093,3.548,3.564,3.5562,3.556,3.5566,3.5572,3.5577,3.5631,3.5695,3.5697,3.5697,3.5728,3.5766,3.5776,3.5757,3.5728,3.5698,3.5658,3.5607,3.5562,3.5546,3.5509,3.5463,3.5417,3.5296,3.5166,3.4791,3.4435,3.3752,3.3118,3.2433,3.1733,3.1027,3.0309,2.9528,2.8748,2.7864,2.7108,2.6336,2.5605,2.4718,2.4116,2.342,2.2588,2.1644,-2.4718,-2.4718,-2.479,-2.4801,-2.4801,-2.4801,-2.479,-2.4718,-2.479,-2.4729,-2.4669,-2.4657,-2.4694,-2.4731,-2.4694,-2.4646,-2.4706,-2.4802,-2.4767,-2.4431,-2.4018,-2.3424,-2.2595,-2.2048,-2.1647,-2.1561,-2.1537,-2.1463,-2.1388,-2.1262,-2.1135,-2.1071,-2.0828,-2.0646,-2.0442,-1.9955,-1.9475,-1.8705,-1.7698,-1.642,-1.5059,-1.3451,-1.1558,-0.9264,-0.5525,-0.1826,0.1525,0.4469,0.735,1.0812,1.484,1.8242,2.058,2.2644,2.4359,2.5861,2.719,2.8254,2.9026,2.9633,3.0139,3.054,3.1216,3.1854,3.2125,3.3393,3.4092,3.474,3.5139,3.5496,3.56,3.5519,3.5438,3.5388,3.5388,3.5407,3.5422,3.5509,3.5601,3.5635,3.5658,3.5718,3.5728,3.5784,3.5784,3.5775,3.5747,3.5737,3.5689,3.5629,3.5596,3.5581,3.5534,3.5474,3.5289,3.5072,3.4653,3.4265,3.3634,3.297,3.2265,3.1585,3.0868,3.0123,2.9332,2.848,2.7615,2.6849,2.6136,2.5425,2.4694,2.4015,2.3318,2.2665,2.2037,-2.5135,-2.5277,-2.5289,-2.5277,-2.5289,-2.5289,-2.5289,-2.5277,-2.536,-2.5289,-2.5301,-2.5289,-2.5336,-2.5288,-2.5336,-2.5348,-2.5348,-2.5394,-2.5332,-2.5132,-2.4847,-2.4374,-2.3833,-2.3103,-2.2638,-2.2246,-2.2173,-2.2149,-2.2087,-2.2013,-2.1928,-2.1939,-2.1702,-2.1588,-2.1388,-2.0996,-2.0409,-1.9846,-1.9078,-1.7985,-1.6768,-1.5294,-1.3005,-1.0299,-0.6818,-0.3668,-0.0946,0.1749,0.4446,0.756,1.1243,1.5184,1.8554,2.0894,2.2873,2.4585,2.6252,2.7529,2.8415,2.9288,3.0064,3.0871,3.1592,3.2411,3.3094,3.4237,3.48,3.5183,3.5516,3.5715,3.5495,3.5383,3.5281,3.5184,3.5168,3.5203,3.5235,3.5397,3.5577,3.562,3.5657,3.5689,3.5737,3.5784,3.5801,3.5793,3.5773,3.5765,3.5757,3.5689,3.5639,3.5596,3.5572,3.5468,3.5285,3.4962,3.4449,3.4012,3.3487,3.2854,3.2179,3.1456,3.0764,2.9935,2.9104,2.8225,2.7348,2.664,2.5865,2.5021,2.435,2.378,2.3138,2.2543,2.1925,-2.5606,-2.5923,-2.5923,-2.5923,-2.5923,-2.5923,-2.584,-2.5853,-2.5923,-2.584,-2.5898,-2.5898,-2.5828,-2.5898,-2.5828,-2.591,-2.598,-2.6037,-2.5963,-2.5958,-2.564,-2.5156,-2.4618,-2.4142,-2.3615,-2.2971,-2.2787,-2.2775,-2.2763,-2.2798,-2.2774,-2.2774,-2.2628,-2.2457,-2.2249,-2.1865,-2.1428,-2.0887,-2.0278,-1.9477,-1.8455,-1.6978,-1.4588,-1.1312,-0.8814,-0.6309,-0.3684,-0.1035,0.1711,0.4532,0.7451,1.1359,1.5402,1.8967,2.1389,2.3191,2.5114,2.6779,2.8174,2.9156,3.0219,3.1488,3.2135,3.2972,3.4176,3.4765,3.523,3.5519,3.5737,3.553,3.5297,3.5133,3.5034,3.4944,3.4907,3.4944,3.5034,3.5266,3.5402,3.5591,3.5601,3.5618,3.5708,3.5757,3.5784,3.5801,3.5801,3.5782,3.5775,3.5728,3.5639,3.5596,3.5572,3.5364,3.5155,3.487,3.4379,3.3836,3.3335,3.266,3.1986,3.121,3.0444,2.9717,2.8857,2.7932,2.7093,2.6336,2.5522,2.4681,2.406,2.3543,2.2957,2.2359,2.18,-2.584,-2.5923,-2.5923,-2.5923,-2.5923,-2.5923,-2.591,-2.5923,-2.591,-2.5873,-2.5918,-2.5955,-2.5943,-2.5931,-2.5898,-2.6025,-2.6302,-2.6508,-2.6658,-2.665,-2.6327,-2.587,-2.5422,-2.4931,-2.44,-2.3935,-2.3662,-2.3497,-2.3484,-2.3518,-2.3623,-2.3564,-2.3458,-2.3339,-2.3173,-2.2932,-2.2543,-2.2039,-2.1467,-2.0771,-1.9879,-1.8517,-1.6526,-1.3233,-1.1019,-0.8831,-0.6354,-0.3838,-0.1136,0.1696,0.4775,0.8097,1.1858,1.5925,1.9296,2.1956,2.4147,2.6137,2.7975,2.941,3.0708,3.2064,3.3122,3.3854,3.4635,3.5214,3.5564,3.5565,3.548,3.5196,3.4994,3.4794,3.4693,3.4607,3.4567,3.4588,3.4691,3.4832,3.5049,3.5315,3.5405,3.555,3.5615,3.5658,3.5708,3.5699,3.5718,3.5718,3.5718,3.5669,3.5607,3.557,3.556,3.5285,3.5,3.4693,3.4298,3.3715,3.3148,3.2431,3.1718,3.0897,3.0133,2.9316,2.8528,2.765,2.6849,2.6028,2.5245,2.4465,2.3897,2.3378,2.2775,2.2173,2.1663,-2.6119,-2.6258,-2.6188,-2.6258,-2.6188,-2.6188,-2.6176,-2.6188,-2.6314,-2.6302,-2.6358,-2.6371,-2.644,-2.6496,-2.644,-2.6589,-2.685,-2.6985,-2.7134,-2.7178,-2.709,-2.6804,-2.6317,-2.5876,-2.5488,-2.5101,-2.4767,-2.435,-2.4118,-2.4408,-2.4509,-2.4523,-2.4408,-2.4305,-2.4131,-2.3826,-2.3505,-2.3088,-2.2543,-2.1928,-2.1152,-1.9846,-1.7648,-1.5558,-1.3442,-1.1372,-0.904,-0.6554,-0.3909,-0.1003,0.2065,0.523,0.8772,1.2578,1.6825,2.0489,2.331,2.5719,2.7894,2.9483,3.103,3.2673,3.3774,3.4542,3.508,3.5562,3.5722,3.5503,3.5182,3.4831,3.4578,3.4338,3.4189,3.4154,3.4062,3.4111,3.425,3.4375,3.4615,3.4925,3.513,3.5297,3.5483,3.555,3.5596,3.5618,3.5629,3.5629,3.5637,3.5593,3.5526,3.5391,3.5311,3.5049,3.4772,3.4532,3.408,3.3514,3.2854,3.2144,3.1367,3.0534,2.9685,2.8857,2.8094,2.7195,2.6428,2.5605,2.4921,2.4234,2.3603,2.303,2.2531,2.1975,2.1474,-2.6465,-2.6602,-2.6602,-2.6602,-2.6602,-2.6602,-2.6602,-2.6602,-2.6739,-2.6726,-2.6807,-2.6875,-2.6943,-2.7079,-2.7146,-2.7281,-2.7403,-2.7469,-2.759,-2.7709,-2.7815,-2.7706,-2.7337,-2.687,-2.6462,-2.6169,-2.573,-2.53,-2.4964,-2.5147,-2.5328,-2.537,-2.5328,-2.5216,-2.509,-2.4751,-2.4394,-2.3975,-2.3505,-2.2907,-2.1904,-2.0546,-1.8905,-1.7347,-1.5643,-1.376,-1.1553,-0.9212,-0.6584,-0.3805,-0.0799,0.2387,0.5884,0.9501,1.3907,1.882,2.235,2.5138,2.7584,2.9577,3.136,3.3258,3.4041,3.4855,3.5386,3.5594,3.5514,3.5172,3.4737,3.4352,3.4048,3.3784,3.3588,3.3514,3.3458,3.3514,3.3707,3.3873,3.4056,3.4367,3.4737,3.4992,3.5155,3.5364,3.5424,3.5445,3.5457,3.5457,3.5445,3.5451,3.535,3.5165,3.4997,3.4755,3.452,3.4303,3.3798,3.3148,3.2449,3.1718,3.0903,3.0091,2.9239,2.8288,2.7369,2.652,2.5865,2.5216,2.458,2.3897,2.3258,2.2665,2.2161,2.1726,2.1221,-2.6956,-2.6943,-2.6943,-2.6956,-2.6943,-2.6956,-2.6956,-2.6943,-2.6943,-2.6943,-2.7011,-2.7024,-2.7146,-2.7335,-2.7603,-2.7723,-2.7855,-2.8039,-2.817,-2.8222,-2.8417,-2.8416,-2.8078,-2.7418,-2.7276,-2.7032,-2.6519,-2.6071,-2.5865,-2.5988,-2.6042,-2.6136,-2.6136,-2.6082,-2.5974,-2.5701,-2.5481,-2.5007,-2.4553,-2.3682,-2.2543,-2.1455,-2.0278,-1.8951,-1.7504,-1.5809,-1.379,-1.1597,-0.9285,-0.6603,-0.3648,-0.0304,0.3336,0.715,1.1397,1.5927,2.0225,2.4221,2.7275,2.9639,3.166,3.3493,3.4594,3.524,3.5502,3.539,3.5119,3.4699,3.4199,3.3725,3.3358,3.3082,3.2854,3.2727,3.2695,3.2791,3.2978,3.3153,3.3367,3.366,3.3993,3.4457,3.4775,3.5013,3.5239,3.5266,3.5277,3.5243,3.5228,3.5165,3.5064,3.4832,3.4617,3.436,3.4185,3.4017,3.3429,3.2749,3.1777,3.1053,3.0336,2.9508,2.8529,2.7635,2.6715,2.5918,2.5287,2.4681,2.4176,2.359,2.2896,2.2347,2.1839,2.14,2.0967,-2.7348,-2.7024,-2.7024,-2.7024,-2.7024,-2.7024,-2.7079,-2.7146,-2.7281,-2.7335,-2.7456,-2.7536,-2.7736,-2.7921,-2.8118,-2.83,-2.8417,-2.8624,-2.8817,-2.8917,-2.9107,-2.9247,-2.9186,-2.8729,-2.8397,-2.8047,-2.774,-2.7394,-2.7091,-2.6841,-2.6788,-2.6893,-2.6907,-2.6907,-2.6826,-2.6602,-2.6336,-2.5946,-2.5342,-2.4496,-2.3551,-2.2688,-2.1818,-2.0632,-1.9336,-1.7765,-1.5957,-1.4055,-1.1786,-0.9239,-0.6428,-0.3299,0.0382,0.4402,0.8709,1.3319,1.7744,2.2279,2.662,2.9393,3.1671,3.3464,3.4639,3.5282,3.5396,3.5128,3.4679,3.4203,3.3621,3.3063,3.2556,3.2229,3.1951,3.1826,3.1737,3.1933,3.2092,3.2382,3.261,3.2924,3.3223,3.364,3.4041,3.4333,3.4581,3.4813,3.4851,3.4851,3.4775,3.4697,3.4576,3.4427,3.4176,3.3931,3.3799,3.3628,3.2959,3.2127,3.0564,2.9947,2.9572,2.881,2.7819,2.6909,2.6011,2.5315,2.4711,2.4221,2.3721,2.3125,2.2519,2.2025,2.1463,2.0955,2.0453,-2.7802,-2.7335,-2.7281,-2.7281,-2.7281,-2.7294,-2.7348,-2.7536,-2.7656,-2.7776,-2.7973,-2.8197,-2.8379,-2.856,-2.8766,-2.8944,-2.9058,-2.9261,-2.9387,-2.9623,-2.9856,-3.0101,-3.0038,-2.9783,-2.9503,-2.9302,-2.8674,-2.8333,-2.8061,-2.791,-2.7745,-2.7675,-2.766,-2.771,-2.766,-2.7429,-2.7144,-2.6759,-2.6108,-2.5384,-2.4641,-2.3995,-2.311,-2.2065,-2.0968,-1.9652,-1.7967,-1.6251,-1.4088,-1.176,-0.9155,-0.6112,-0.2598,0.1369,0.5813,1.0467,1.5135,1.9977,2.4657,2.8361,3.1253,3.3173,3.4513,3.5273,3.5179,3.4829,3.4183,3.3505,3.2762,3.2156,3.1614,3.1104,3.0813,3.067,3.063,3.0864,3.106,3.1316,3.1649,3.2004,3.2294,3.2559,3.3015,3.3442,3.3864,3.4251,3.4379,3.4401,3.4292,3.4157,3.3994,3.3817,3.3579,3.3335,3.3135,3.2882,3.2301,3.1384,2.9814,2.8909,2.8622,2.7954,2.6997,2.6119,2.5259,2.4456,2.3715,2.3471,2.3198,2.2641,2.2075,2.1577,2.1083,2.0518,1.9998,-2.8131,-2.817,-2.8066,-2.8013,-2.8013,-2.8013,-2.8013,-2.8066,-2.817,-2.83,-2.843,-2.8766,-2.9035,-2.9162,-2.9401,-2.9588,-2.9747,-2.9946,-3.0115,-3.0297,-3.0539,-3.0837,-3.0822,-3.0624,-3.0278,-2.9887,-2.9465,-2.9027,-2.8777,-2.8889,-2.8685,-2.8479,-2.8415,-2.8496,-2.8448,-2.824,-2.7849,-2.7449,-2.6886,-2.6347,-2.5741,-2.512,-2.4328,-2.3467,-2.253,-2.1397,-1.9868,-1.8245,-1.6381,-1.423,-1.1754,-0.8936,-0.5418,-0.1601,0.2791,0.7841,1.2719,1.7624,2.2398,2.7226,3.0733,3.2897,3.4429,3.5176,3.4928,3.4236,3.3503,3.259,3.1707,3.0891,3.0261,2.9762,2.944,2.9307,2.9307,2.9528,2.9805,3.0178,3.0516,3.0987,3.1278,3.1504,3.174,3.2137,3.2907,3.335,3.3551,3.3605,3.3561,3.3423,3.3328,3.3141,3.2885,3.2634,3.23,3.1962,3.1679,3.0443,2.8826,2.8171,2.7746,2.6968,2.6051,2.5218,2.4341,2.3598,2.2834,2.2616,2.2322,2.2013,2.1577,2.1083,2.0495,1.9857,1.9473,-2.8702,-2.8766,-2.8716,-2.8587,-2.8406,-2.8406,-2.8457,-2.8573,-2.8688,-2.8894,-2.9135,-2.9512,-2.9699,-2.9837,-3.0021,-3.0266,-3.0418,-3.0598,-3.0777,-3.1073,-3.1379,-3.1625,-3.1615,-3.1526,-3.1343,-3.0963,-3.0348,-2.9972,-2.9973,-2.9785,-2.9677,-2.9496,-2.9287,-2.915,-2.9104,-2.895,-2.8622,-2.824,-2.7799,-2.7297,-2.6857,-2.6279,-2.5577,-2.4697,-2.391,-2.2807,-2.1436,-2.0094,-1.8348,-1.6423,-1.4222,-1.1424,-0.8393,-0.4493,0.0152,0.5426,1.0325,1.5367,2.0772,2.5938,3.0456,3.3568,3.4797,3.5,3.4491,3.3623,3.2522,3.1514,3.043,2.9491,2.8731,2.8278,2.7941,2.7875,2.7923,2.8102,2.8435,2.8793,2.9233,2.961,2.9943,3.0195,3.0459,3.074,3.1616,3.2426,3.2606,3.2751,3.2656,3.2559,3.2429,3.2244,3.1969,3.1647,3.1287,3.1143,3.1065,2.948,2.7829,2.7195,2.6645,2.5887,2.5009,2.4226,2.3467,2.2701,2.2039,2.169,2.1451,2.1262,2.088,2.0442,1.9857,1.9264,1.8931,-2.9275,-2.9338,-2.9352,-2.9085,-2.883,-2.883,-2.8894,-2.9058,-2.9275,-2.9602,-2.9913,-3.0205,-3.0372,-3.0493,-3.0732,-3.1043,-3.1204,-3.1306,-3.1522,-3.1823,-3.2048,-3.2358,-3.2461,-3.2493,-3.24,-3.2057,-3.1563,-3.118,-3.0871,-3.0566,-3.0425,-3.0351,-3.0225,-3.0081,-2.9837,-2.9661,-2.9393,-2.9104,-2.8779,-2.8319,-2.7898,-2.7434,-2.6768,-2.5957,-2.5149,-2.4244,-2.3034,-2.1796,-2.0339,-1.8461,-1.6464,-1.4135,-1.0955,-0.7198,-0.2495,0.2619,0.7843,1.3005,1.8967,2.5773,3.0909,3.4058,3.4784,3.4577,3.3881,3.2809,3.1445,3.0013,2.8952,2.7962,2.7047,2.6518,2.6256,2.615,2.6285,2.648,2.6858,2.73,2.7762,2.8182,2.8467,2.8777,2.9157,2.9452,3.0245,3.1062,3.1522,3.1614,3.1558,3.1485,3.1373,3.1147,3.0931,3.059,3.0227,2.9935,2.951,2.8354,2.6911,2.6049,2.5354,2.4646,2.3981,2.317,2.2457,2.1729,2.1164,2.0666,2.056,2.0571,2.0118,1.966,1.932,1.8721,1.8395,-2.9651,-2.9808,-2.9808,-2.9623,-2.9387,-2.931,-2.9373,-2.9651,-2.9946,-3.0251,-3.0628,-3.0851,-3.1014,-3.1131,-3.148,-3.1724,-3.1966,-3.2064,-3.2327,-3.2547,-3.2749,-3.2964,-3.3193,-3.3344,-3.3377,-3.3032,-3.2686,-3.2262,-3.1686,-3.1391,-3.1227,-3.1117,-3.1067,-3.0965,-3.0675,-3.051,-3.0241,-2.9837,-2.9645,-2.9241,-2.8873,-2.8432,-2.7769,-2.7063,-2.6424,-2.5466,-2.4403,-2.3403,-2.203,-2.0381,-1.8715,-1.6419,-1.3585,-1.034,-0.6027,-0.1207,0.438,1.0335,1.6977,2.65,3.175,3.4099,3.4612,3.4144,3.3099,3.1731,3.0075,2.8479,2.7106,2.6012,2.5232,2.466,2.4433,2.4433,2.4547,2.4842,2.526,2.5656,2.6083,2.657,2.6872,2.7193,2.7678,2.815,2.8884,2.9599,3.0194,3.0419,3.0344,3.027,3.0153,2.9927,2.9686,2.9335,2.8916,2.8481,2.7898,2.6858,2.5852,2.4902,2.4173,2.3566,2.2809,2.2113,2.1353,2.0655,2.0085,1.9573,1.9441,1.9309,1.9121,1.8798,1.8519,1.825,1.792,-3.028,-3.0326,-3.0326,-3.0372,-3.0343,-3.0115,-3.0068,-3.0266,-3.0553,-3.0911,-3.1321,-3.1567,-3.1796,-3.2007,-3.216,-3.2453,-3.2672,-3.2819,-3.3033,-3.3314,-3.3455,-3.3662,-3.3933,-3.4118,-3.4235,-3.4116,-3.3885,-3.3466,-3.2875,-3.232,-3.191,-3.1737,-3.1768,-3.1637,-3.1257,-3.1021,-3.0747,-3.0625,-3.0351,-3.0011,-2.9689,-2.9271,-2.8717,-2.8046,-2.7455,-2.6672,-2.5672,-2.4786,-2.367,-2.2226,-2.0642,-1.8664,-1.6109,-1.2969,-0.9301,-0.4417,0.1251,0.9682,1.8508,2.7382,3.1619,3.3378,3.4121,3.3545,3.2252,3.0404,2.8592,2.6686,2.5148,2.3984,2.3069,2.2541,2.236,2.2481,2.2662,2.3106,2.3495,2.3916,2.4363,2.4815,2.5218,2.5602,2.6005,2.6347,2.7009,2.7459,2.7979,2.8684,2.8823,2.8839,2.8793,2.8561,2.8293,2.7972,2.756,2.7034,2.65,2.5642,2.4525,2.3406,2.2815,2.2348,2.1694,2.091,2.0268,1.9628,1.91,1.8576,1.824,1.8046,1.7978,1.7978,1.7842,1.7569,1.7373,-3.0925,-3.0925,-3.0925,-3.1087,-3.1263,-3.0777,-3.0747,-3.1043,-3.1278,-3.161,-3.1992,-3.2176,-3.2398,-3.2656,-3.2926,-3.3087,-3.3298,-3.3507,-3.3662,-3.4016,-3.4101,-3.4349,-3.4594,-3.4804,-3.4975,-3.4977,-3.4667,-3.4185,-3.3705,-3.3119,-3.2605,-3.2336,-3.237,-3.2318,-3.202,-3.175,-3.1432,-3.1261,-3.0988,-3.0788,-3.0444,-3.0064,-2.9613,-2.9011,-2.8434,-2.7803,-2.6931,-2.6076,-2.519,-2.389,-2.248,-2.0894,-1.843,-1.578,-1.2466,-0.783,0.0646,0.9645,1.9399,2.6403,3.032,3.3124,3.3415,3.2651,3.0939,2.8775,2.6614,2.4737,2.3094,2.1824,2.0773,2.0362,2.0233,2.0351,2.0744,2.1112,2.1634,2.2054,2.2481,2.3022,2.3559,2.3942,2.4262,2.456,2.4955,2.5314,2.568,2.6437,2.7134,2.725,2.725,2.7047,2.6792,2.6428,2.5966,2.5466,2.4925,2.4302,2.328,2.2116,2.1564,2.1129,2.0451,1.9824,1.9166,1.8566,1.8037,1.7569,1.7226,1.7019,1.695,1.7019,1.7097,1.6959,1.6751,-3.1537,-3.1537,-3.1537,-3.1724,-3.1853,-3.1422,-3.1495,-3.1981,-3.2038,-3.2247,-3.2656,-3.2803,-3.3071,-3.3282,-3.3575,-3.3781,-3.3933,-3.4184,-3.4399,-3.4546,-3.4691,-3.4977,-3.5182,-3.5337,-3.556,-3.5606,-3.5411,-3.5018,-3.4387,-3.3701,-3.3177,-3.2829,-3.288,-3.2862,-3.2734,-3.2504,-3.2127,-3.186,-3.164,-3.1397,-3.1111,-3.0868,-3.0385,-2.9859,-2.9313,-2.8732,-2.8048,-2.7339,-2.6538,-2.5479,-2.4349,-2.2874,-2.1012,-1.8898,-1.5692,-0.9723,0.028,0.9084,1.7812,2.3887,2.8549,3.1222,3.173,3.1013,2.9326,2.6811,2.4395,2.2387,2.0585,1.9414,1.8368,1.8121,1.7861,1.8208,1.8619,1.9083,1.9619,2.0127,2.0628,2.1146,2.1791,2.2212,2.2433,2.2722,2.2561,2.3043,2.3334,2.3741,2.4512,2.5506,2.5506,2.5424,2.5121,2.4856,2.4372,2.3897,2.3357,2.276,2.1944,2.0923,2.0429,1.9857,1.9135,1.8556,1.8037,1.7501,1.6941,1.6533,1.6254,1.6123,1.6044,1.6193,1.6324,1.6403,1.6193,-3.2139,-3.216,-3.2256,-3.2367,-3.2602,-3.2711,-3.2711,-3.2602,-3.2695,-3.298,-3.3419,-3.3626,-3.3866,-3.4134,-3.4349,-3.448,-3.4643,-3.4851,-3.4994,-3.5135,-3.5258,-3.5532,-3.5711,-3.58,-3.6088,-3.6274,-3.6203,-3.5915,-3.5398,-3.4587,-3.3645,-3.325,-3.328,-3.3357,-3.3339,-3.322,-3.2848,-3.2521,-3.23,-3.2003,-3.1733,-3.1435,-3.1033,-3.0575,-3.0133,-2.9553,-2.8965,-2.8497,-2.7724,-2.6887,-2.6101,-2.4914,-2.3586,-2.1583,-1.8659,-1.2369,-0.4064,0.3971,1.3639,1.8735,2.2956,2.7164,2.7823,2.7461,2.6165,2.4244,2.1632,1.9766,1.8038,1.6816,1.6017,1.5695,1.5573,1.5852,1.6347,1.6908,1.7445,1.8063,1.8578,1.9367,2.0009,2.0582,2.0824,2.0076,1.9976,2.0568,2.0997,2.1339,2.2006,2.3031,2.3658,2.3566,2.339,2.3094,2.2747,2.2274,2.1806,2.1192,2.0417,1.9695,1.9058,1.8469,1.7813,1.7276,1.6724,1.6245,1.5754,1.548,1.5338,1.5196,1.5196,1.5409,1.5559,1.563,1.563,-3.281,-3.2834,-3.2942,-3.3033,-3.3298,-3.3626,-3.3678,-3.3491,-3.3439,-3.3662,-3.4,-3.4267,-3.4529,-3.4804,-3.493,-3.5008,-3.5182,-3.5458,-3.5549,-3.5622,-3.58,-3.6002,-3.6174,-3.6259,-3.6509,-3.6753,-3.6886,-3.6635,-3.6096,-3.5127,-3.4147,-3.3595,-3.3643,-3.3726,-3.3734,-3.3707,-3.3559,-3.322,-3.288,-3.2553,-3.2265,-3.1986,-3.166,-3.1227,-3.0818,-3.0344,-2.9848,-2.9464,-2.8903,-2.8275,-2.761,-2.6858,-2.5528,-2.3791,-2.1463,-1.582,-1.1221,-0.388,0.4026,0.9763,1.5478,1.998,2.1462,2.1066,2.0815,1.951,1.8226,1.6859,1.5401,1.4134,1.3584,1.3165,1.331,1.3454,1.4109,1.4688,1.5325,1.5965,1.6669,1.7531,1.8259,1.8926,1.8726,1.7789,1.7568,1.8431,1.8864,1.8975,1.9749,2.0825,2.1463,2.1685,2.151,2.1272,2.098,2.0598,2.0095,1.9575,1.8916,1.82,1.7677,1.7129,1.6576,1.6018,1.5463,1.5046,1.4689,1.4617,1.4474,1.4338,1.4266,1.4418,1.4633,1.4856,1.4919,-3.3607,-3.3607,-3.3591,-3.3745,-3.3984,-3.43,-3.4448,-3.4546,-3.4382,-3.4349,-3.4578,-3.4785,-3.5085,-3.5304,-3.5424,-3.556,-3.5694,-3.5932,-3.6019,-3.6062,-3.6259,-3.6451,-3.6574,-3.6655,-3.6913,-3.7203,-3.7269,-3.7077,-3.6435,-3.5593,-3.4751,-3.4013,-3.3998,-3.403,-3.4105,-3.4124,-3.3998,-3.3823,-3.3465,-3.3105,-3.2844,-3.2654,-3.2404,-3.2021,-3.1605,-3.1227,-3.0851,-3.0444,-3.0005,-2.9492,-2.9009,-2.8388,-2.7205,-2.5891,-2.3405,-2.1339,-1.7722,-1.1806,-0.5278,0.0337,0.5621,0.9913,1.2597,1.338,1.3769,1.5446,1.493,1.3838,1.2349,1.1512,1.0947,1.0885,1.0965,1.1335,1.1851,1.251,1.3092,1.3814,1.4759,1.5641,1.6508,1.7014,1.6522,1.5679,1.5489,1.6372,1.6798,1.6798,1.725,1.8358,1.8965,1.9435,1.9521,1.9325,1.9159,1.8783,1.8335,1.7813,1.7267,1.6706,1.6149,1.5737,1.533,1.4752,1.425,1.397,1.3688,1.3608,1.3535,1.3477,1.3411,1.3411,1.363,1.3912,1.4209,-3.425,-3.4284,-3.4333,-3.4546,-3.4835,-3.4994,-3.5165,-3.5362,-3.5498,-3.5379,-3.5211,-3.5515,-3.5722,-3.5827,-3.6002,-3.6131,-3.6174,-3.6343,-3.6426,-3.655,-3.6713,-3.6873,-3.6992,-3.7069,-3.7317,-3.7559,-3.7577,-3.7383,-3.6626,-3.6048,-3.5409,-3.4431,-3.4311,-3.434,-3.4431,-3.4409,-3.4363,-3.4293,-3.4037,-3.3671,-3.3379,-3.3093,-3.2813,-3.2519,-3.2162,-3.1842,-3.1511,-3.1227,-3.0897,-3.0558,-3.0236,-2.9713,-2.9,-2.8107,-2.7304,-2.6108,-2.3906,-1.884,-1.3419,-0.8287,-0.333,0.2443,0.5836,0.6511,0.7888,1.0611,1.1584,1.0415,0.9579,0.8934,0.8505,0.859,0.867,0.9195,0.9723,1.0318,1.0914,1.1877,1.2757,1.368,1.4697,1.4649,1.4181,1.3897,1.381,1.4047,1.4538,1.4704,1.4688,1.5415,1.6165,1.6716,1.725,1.7201,1.717,1.7129,1.6742,1.6245,1.5745,1.518,1.4609,1.4171,1.3658,1.339,1.2966,1.2813,1.2732,1.2666,1.2592,1.2599,1.2606,1.2599,1.2599,1.2806,1.3185,-3.4913,-3.4913,-3.5085,-3.5287,-3.5441,-3.5577,-3.5722,-3.5924,-3.6174,-3.6174,-3.6002,-3.6174,-3.6259,-3.6301,-3.6509,-3.6609,-3.6632,-3.6736,-3.6834,-3.697,-3.7069,-3.7223,-3.7337,-3.7503,-3.7667,-3.7915,-3.8147,-3.79,-3.7036,-3.657,-3.6,-3.509,-3.4839,-3.4642,-3.4708,-3.467,-3.4628,-3.4586,-3.4476,-3.425,-3.3902,-3.3588,-3.3321,-3.3019,-3.2781,-3.2468,-3.2214,-3.1986,-3.1752,-3.1497,-3.124,-3.1134,-3.0734,-3.0497,-3.0347,-3.0058,-2.8721,-2.6376,-2.1008,-1.6323,-1.2077,-0.6597,-0.144,-0.0935,0.1411,0.4033,0.6439,0.5676,0.6695,0.627,0.6444,0.6528,0.6765,0.7222,0.7829,0.8433,0.919,1.0018,1.0754,1.1354,1.2131,1.2526,1.1991,1.1162,1.1315,1.2138,1.2545,1.2611,1.2611,1.2677,1.331,1.3871,1.4435,1.4972,1.5138,1.5259,1.5325,1.4824,1.4122,1.368,1.3077,1.2492,1.2063,1.1922,1.1855,1.1781,1.1706,1.1706,1.1781,1.1781,1.1781,1.1781,1.1781,1.1848,1.215,-3.5515,-3.556,-3.5783,-3.5898,-3.5941,-3.6139,-3.6266,-3.6468,-3.6632,-3.6776,-3.6838,-3.6816,-3.6753,-3.6794,-3.6913,-3.7009,-3.7087,-3.7164,-3.7259,-3.7317,-3.7431,-3.7541,-3.7703,-3.7881,-3.807,-3.83,-3.8597,-3.8309,-3.7755,-3.738,-3.6841,-3.5942,-3.539,-3.4962,-3.4907,-3.487,-3.4889,-3.4849,-3.4769,-3.4708,-3.445,-3.4124,-3.3815,-3.355,-3.3379,-3.3124,-3.2894,-3.2716,-3.2517,-3.2415,-3.2227,-3.2272,-3.236,-3.2353,-3.2629,-3.2545,-3.284,-3.1192,-2.8638,-2.4708,-2.0784,-1.6393,-1.1249,-0.7179,-0.4662,-0.206,0.0307,0.201,0.3018,0.4042,0.4208,0.453,0.4841,0.5309,0.5999,0.6692,0.7532,0.8219,0.8742,0.9261,0.9814,1.0363,0.9777,0.896,0.9205,1.0018,1.0421,1.0496,1.0484,1.0548,1.0896,1.1249,1.1678,1.2218,1.2844,1.3419,1.3696,1.2886,1.2184,1.1903,1.1545,1.1093,1.0795,1.0732,1.0663,1.0657,1.0738,1.0812,1.0812,1.0962,1.0962,1.0962,1.1111,1.1111,1.126,-3.6174,-3.6301,-3.636,-3.6468,-3.6615,-3.6701,-3.6895,-3.7087,-3.7206,-3.7356,-3.7504,-3.7613,-3.7521,-3.7182,-3.741,-3.7466,-3.7466,-3.7521,-3.7577,-3.7631,-3.7774,-3.7879,-3.8,-3.8204,-3.8478,-3.8725,-3.8886,-3.8681,-3.8364,-3.8131,-3.7505,-3.6326,-3.6159,-3.5685,-3.5092,-3.5091,-3.5054,-3.502,-3.502,-3.4946,-3.4732,-3.4458,-3.4221,-3.4005,-3.385,-3.3689,-3.3522,-3.3429,-3.3314,-3.3248,-3.3263,-3.3387,-3.3545,-3.3757,-3.4011,-3.4167,-3.4575,-3.3636,-3.1258,-2.8679,-2.4657,-2.0958,-1.5827,-1.2122,-0.9378,-0.6557,-0.4206,-0.2165,-0.0775,0.1324,0.1875,0.2503,0.2973,0.3677,0.4375,0.5151,0.5922,0.6384,0.6842,0.746,0.8089,0.8228,0.7969,0.7487,0.7263,0.7982,0.8533,0.8528,0.8519,0.8523,0.8604,0.8817,0.903,0.9873,1.0703,1.1664,1.1845,1.1037,1.0318,1.0018,0.9798,0.982,0.9599,0.9453,0.9528,0.9679,0.976,0.9841,0.9992,1.0062,1.0143,1.0148,1.0293,1.0443,1.0594]},{"header":{"parameterUnit":"m.s-1","parameterCategory":1,"la1":31.0,"la2":29.5877,"lo1":-88.7671,"lo2":-86.6584,"dy":0.0162,"dx":0.0185,"nx":115,"ny":88,"refTime":"2024-07-20T00:00:00:Z","depth":0,"parameterNumber":3,"parameterNumberName":"V-component_of_WINDS"},"data":[0.0,0.0,0.0,0.0,0.0,0.0,0.0,0.0,0.0,0.0,0.0,0.0,0.0,0.0,0.0,0.0,0.0,0.0,0.0,0.0,0.0,0.0,0.0,0.0,0.0,0.0,0.0,0.0,0.0,0.0,0.0,0.0,0.0,0.0,0.0,0.0,0.0,0.0,0.0,0.0,0.0,0.0,0.0,0.0,0.0,0.0,0.0,0.0,0.0,0.0,0.0,0.0,0.0,0.0,0.0,0.0,0.0,0.0,0.0,0.0,0.0,0.0,0.0,0.0,0.0,0.0,0.0,0.0,0.0,0.0,0.0,0.0,0.0,0.0,0.0,0.0,0.0,0.0,0.0,0.0,0.0,0.0,0.0,0.0,0.0,0.0,0.0,0.0,0.0,0.0,0.0,0.0,0.0,0.0,0.0,0.0,0.0,0.0,0.0,0.0,0.0,0.0,0.0,0.0,0.0,0.0,0.0,0.0,0.0,0.0,0.0,0.0,0.0,0.0,0.0,0.0,0.0,0.0,0.0,0.0,0.0,0.0,0.0,0.0,0.0,0.0,0.0,0.0,0.0,0.0,0.0,0.0,0.0,0.0,0.0,0.0,0.0,0.0,0.0,0.0,0.0,0.0,0.0,0.0,0.0,0.0,0.0,0.0,0.0,0.0,0.0,0.0,0.0,0.0,0.0,0.0,0.0,0.0,0.0,0.0,0.0,0.0,0.0,0.0,0.0,0.0,0.0,0.0,0.0,0.0,0.0,0.0,0.0,0.0,0.0,0.0,0.0,0.0,0.0,0.0,0.0,0.0,0.0,0.0,0.0,0.0,0.0,0.0,0.0,0.0,0.0,0.0,0.0,0.0,0.0,0.0,0.0,0.0,0.0,0.0,0.0,0.0,0.0,0.0,0.0,0.0,0.0,0.0,0.0,0.0,0.0,0.0,0.0,0.0,0.0,0.0,0.0,0.0,0.0,0.0,0.0,0.0,0.0,0.0,0.0,0.0,0.0,0.0,0.0,0.0,0.0,0.0,0.0,0.0,0.0,0.0,0.0,0.0,0.0,0.0,0.0,0.0,0.0,0.0,0.0,0.0,0.0,0.0,0.0,0.0,0.0,0.0,0.0,0.0,0.0,0.0,0.0,0.0,0.0,0.0,0.0,0.0,0.0,0.0,0.0,0.0,0.0,0.0,0.0,0.0,0.0,0.0,0.0,0.0,0.0,0.0,0.0,0.0,0.0,0.0,0.0,0.0,0.0,0.0,0.0,0.0,0.0,0.0,0.0,0.0,0.0,0.0,0.0,0.0,0.0,0.0,0.0,0.0,0.0,0.0,0.0,0.0,0.0,0.0,0.0,0.0,0.0,0.0,0.0,0.0,0.0,0.0,0.0,0.0,0.0,0.0,0.0,0.0,0.0,0.0,0.0,0.0,0.0,0.0,0.0,0.0,0.0,0.0,0.0,0.0,0.0,0.0,0.0,0.0,0.0,0.0,0.0,0.0,0.0,0.0,0.0,0.0,0.0,0.0,0.0,0.0,0.0,0.0,0.0,0.0,0.0,0.0,0.0,0.0,0.0,0.0,0.0,0.0,0.0,0.0,0.0,0.0,0.0,0.0,0.0,0.0,0.0,0.0,0.0,0.0,0.0,0.0,0.0,0.0,0.0,0.0,0.0,0.0,0.0,0.0,0.0,0.0,0.0,0.0,0.0,0.0,0.0,0.0,0.0,0.0,0.0,0.0,0.0,0.0,0.0,0.0,0.0,0.0,0.0,0.0,0.0,0.0,0.0,0.0,0.0,0.0,0.0,0.0,0.0,0.0,0.0,0.0,0.0,0.0,0.0,0.0,0.0,0.0,0.0,0.0,0.0,0.0,0.0,0.0,0.0,0.0,0.0,0.0,0.0,0.0,0.0,0.0,0.0,0.0,0.0,0.0,0.0,0.0,0.0,0.0,0.0,0.0,0.0,0.0,0.0,0.0,0.0,0.0,0.0,0.0,0.0,0.0,0.0,0.0,0.0,0.0,0.0,0.0,0.0,0.0,0.0,0.0,0.0,0.0,0.0,0.0,0.0,0.0,0.0,0.0,0.0,0.0,0.0,0.0,0.0,0.0,0.0,0.0,0.0,0.0,0.0,0.0,0.0,0.0,0.0,0.0,0.0,0.0,0.0,0.0,0.0,0.0,0.0,0.0,0.0,0.0,0.0,0.0,0.0,0.0,0.0,0.0,0.0,0.0,0.0,0.0,0.0,0.0,0.0,0.0,0.0,0.0,0.0,0.0,0.0,0.0,0.0,0.0,0.0,0.0,0.0,0.0,0.0,0.0,0.0,0.0,0.0,0.0,0.0,0.0,0.0,0.0,0.0,0.0,0.0,0.0,0.0,0.0,0.0,0.0,0.0,0.0,0.0,0.0,0.0,0.0,0.0,0.0,0.0,0.0,0.0,0.0,0.0,0.0,0.0,0.0,0.0,0.0,0.0,0.0,0.0,0.0,0.0,0.0,0.0,0.0,0.0,0.0,0.0,0.0,0.0,0.0,0.0,0.0,0.0,0.0,0.0,0.0,0.0,0.0,0.0,0.0,0.0,0.0,0.0,0.0,0.0,0.0,0.0,0.0,0.0,0.0,0.0,0.0,0.0,0.0,0.0,0.0,0.0,0.0,0.0,0.0,0.0,0.0,0.0,0.0,0.0,0.0,0.0,0.0,0.0,0.0,0.0,0.0,0.0,0.0,0.0,0.0,0.0,0.0,0.0,0.0,0.0,0.0,0.0,0.0,0.0,0.0,0.0,0.0,0.0,0.0,0.0,0.0,0.0,0.0,0.0,0.0,0.0,0.0,0.0,0.0,0.0,0.0,0.0,0.0,0.0,0.0,0.0,0.0,0.0,0.0,0.0,0.0,0.0,0.0,0.0,0.0,0.0,0.0,0.0,0.0,0.0,0.0,0.0,0.0,0.0,0.0,0.0,0.0,0.0,0.0,0.0,0.0,0.0,0.0,0.0,0.0,0.0,0.0,0.0,0.0,0.0,0.0,0.0,0.0,0.0,0.0,0.0,0.0,0.0,0.0,0.0,0.0,0.0,0.0,0.0,0.0,0.0,0.0,0.0,0.0,0.0,0.0,0.0,0.0,0.0,0.0,0.0,0.0,0.0,0.0,0.0,0.0,0.0,0.0,0.0,0.0,0.0,0.0,0.0,0.0,0.0,0.0,0.0,0.0,0.0,0.0,0.0,0.0,0.0,0.0,0.0,0.0,0.0,0.0,0.0,0.0,0.0,0.0,0.0,0.0,0.0,0.0,0.0,0.0,0.0,0.0,0.0,0.0,0.0,0.0,0.0,0.0,0.0,0.0,0.0,0.0,0.0,0.0,0.0,0.0,0.0,0.0,0.0,0.0,0.0,0.0,0.0,0.0,0.0,0.0,0.0,0.0,0.0,0.0,0.0,0.0,0.0,0.0,0.0,0.0,0.0,0.0,0.0,0.0,0.0,0.0,0.0,0.0,0.0,0.0,0.0,0.0,0.0,0.0,0.0,0.0,0.0,0.0,0.0,0.0,0.0,0.0,0.0,0.0,0.0,0.0,0.0,0.0,0.0,0.0,0.0,0.0,0.0,0.0,0.0,0.0,0.0,0.0,0.0,0.0,0.0,0.0,0.0,0.0,0.0,0.0,0.0,0.0,0.0,0.0,0.0,0.0,0.0,0.0,0.0,0.0,0.0,0.0,0.0,0.0,0.0,0.0,0.0,0.0,0.0,0.0,0.0,0.0,0.0,0.0,0.0,0.0,0.0,0.0,0.0,0.0,0.0,0.0,0.0,0.0,0.0,0.0,0.0,0.0,0.0,0.0,0.0,0.0,0.0,0.0,0.0,0.0,0.0,0.0,0.0,0.0,0.0,0.0,0.0,0.0,0.0,0.0,0.0,0.0,0.0,0.0,0.0,0.0,0.0,0.0,0.0,0.0,0.0,0.0,0.0,0.0,0.0,0.0,0.0,0.0,0.0,0.0,0.0,0.0,0.0,0.0,0.0,0.0,0.0,0.0,0.0,0.0,0.0,0.0,0.0,0.0,0.0,0.0,0.0,0.0,0.0,0.0,0.0,0.0,0.0,0.0,0.0,0.0,0.0,0.0,0.0,0.0,0.0,0.0,0.0,0.0,0.0,0.0,0.0,0.0,0.0,0.0,0.0,0.0,0.0,0.0,0.0,0.0,0.0,0.0,0.0,0.0,0.0,0.0,0.0,0.0,0.0,0.0,0.0,0.0,0.0,0.0,0.0,0.0,0.2752,0.0,0.0,0.0,0.0,0.0,0.0,0.0,0.0,0.0,0.0,0.0,0.0,0.0,0.0,0.0,0.0,0.0,0.0,0.0,0.0,0.0,0.0,0.0,0.0,0.0,0.0,0.0,0.0,0.0,0.0,0.0,0.0,0.0,0.0,0.0,0.0,0.0,0.0,0.0,0.0,0.0,0.0,0.0,0.0,0.0,0.0,0.0,0.0,0.0,0.0,0.0,0.0,0.0,0.0,0.0,0.0,0.0,0.0,0.0,0.0,0.0,0.0,0.0,0.0,0.0,0.0,0.0,0.0,0.0,0.0,0.0,0.0,0.0,0.0,0.0,0.0,0.0,0.0,0.0,0.0,0.0,0.0,0.0,0.0,0.0,0.0,0.0,0.0,0.0,0.0,0.0,0.0,0.0,0.0,0.0,0.0,0.0,0.0,0.0,0.0,0.0,0.0,0.0,0.0,0.0,0.0,0.0,0.0,0.0,0.0,0.2172,0.2415,0.2625,0.2762,0.2843,0.0,0.0,0.0,0.0,0.0,0.0,0.0,0.0,0.0,0.0,0.0,0.0,0.0,0.0,0.0,0.0,0.0,0.0,0.0,0.0,0.0,0.0,0.0,0.0,0.0,0.0,0.0,0.0,0.0,0.0,0.0,0.0,0.0,0.0,0.0,0.0,0.0,0.0,0.0,0.0,0.0,0.0,0.0,0.0,0.0,0.0,0.0,0.0,0.0,0.0,0.0,0.0,0.0,0.0,0.0,0.0,0.0,0.0,0.0,0.0,0.0,0.0,0.0,0.0,0.0,0.0,0.0,0.0,0.0,0.0,0.0,0.0,0.0,0.0,0.0,0.0,0.0,0.0,0.0,0.0,0.0,0.0,0.0,0.0,0.0,0.0,0.0,0.0,0.0,0.0,0.0,0.0,0.0,0.0,0.0,0.0,0.0,0.0,0.0,0.0,0.0,0.0,0.0,0.0,0.0,0.0,0.0,0.0,0.0,0.0,0.0,0.0,0.2841,0.2987,0.3056,0.0,0.0,0.0,0.0,0.0,0.0,0.0,0.0,0.0,0.0,0.0,0.0,0.0,0.0,0.0,0.0,0.0,0.0,0.0,0.0,0.0,0.0,0.0,0.0,0.0,0.0,0.0,0.0,0.0,0.0,0.0,0.0,0.0,0.0,0.0,0.0,0.0,0.0,0.0,0.0,0.0,0.0,0.0,0.0,0.0,0.0,0.0,0.0,0.0,0.0,0.0,0.0,0.0,0.0,0.0,0.0,0.0,0.0,0.0,0.0,0.0,0.0,0.0,0.0,0.0,0.0,0.0,0.0,0.0,0.0,0.0,0.0,0.0,0.0,0.0,0.0,0.0,0.0,0.0,0.0,0.0,0.0,0.0,0.0,0.0,0.0,0.0,0.0,0.0,0.0,0.0,0.0,0.0,0.0,0.0,0.0,0.0,0.0,0.0,0.0,0.0,0.0,0.0,0.0,0.0,0.0,0.0,0.0,0.0,0.0,0.242,0.2716,0.2944,0.0,0.352,0.0,0.0,0.0,0.0,0.0,0.0,0.0,0.0,0.0,0.0,0.0,0.0,0.0,0.0,0.0,0.0,0.0,0.0,0.0,0.0,0.0,0.0,0.0,0.0,0.0,0.0,0.0,0.0,0.0,0.0,0.0,0.0,0.0,0.0,0.0,0.0,0.0,0.0,0.0,0.0,0.0,0.0,0.0,0.0,0.0,0.0,0.0,0.0,0.0,0.0,0.0,0.0,0.0,0.0,0.0,0.0,0.0,0.0,0.0,0.0,0.0,0.0,0.0,0.0,0.0,0.0,0.0,0.0,0.0,0.0,0.0,0.0,0.0,0.0,0.0,0.0,0.0,0.0,0.0,0.0,0.0,0.0,0.0,0.0,0.0,0.0,0.0,0.0,0.0,0.0,0.0,0.0,0.0,0.0,0.0,0.0,0.0,0.0,0.0,0.0,0.0,0.0,0.0,0.0,0.0,0.0,0.0,0.0,0.0,0.0,0.0,0.2805,0.3204,0.3474,0.0,0.0,0.0,0.0,0.0,0.0,0.0,0.0,0.0,0.0,0.0,0.0,0.0,0.0,0.0,0.0,0.0,0.0,0.0,0.0,0.0,0.0,0.0,0.0,0.0,0.0,0.0,0.0,0.0,0.0,0.0,0.0,0.0,0.0,0.0,0.0,0.0,0.0,0.0,0.0,0.0,0.0,0.0,0.0,0.0,0.0,0.0,0.0,0.0,0.0,0.0,0.0,0.0,0.0,0.0,0.0,0.0,0.0,0.0,0.0,0.0,0.0,0.0,0.0,0.0,0.0,0.0,0.0,0.0,0.0,0.0,0.0,0.0,0.0,0.0,0.0,0.0,0.0,0.0,0.0,0.0,0.0,0.0,0.0,0.0,0.0,0.0,0.0,0.0,0.0,0.0,0.0,0.0,0.0,0.0,0.0,0.0,0.0,0.0,0.0,0.0,0.0,0.0,0.0,0.0,0.0,0.0,0.0,0.0,0.0,0.2583,0.0,0.3068,0.3467,0.3726,0.3822,0.0,0.0,0.0,0.0,0.0,0.0,0.0,0.0,0.0,0.0,0.0,0.0,0.0,0.0,0.0,0.0,0.0,0.0,0.0,0.0,0.0,0.0,0.0,0.0,0.0,0.0,0.0,0.0,0.0,0.0,0.0,0.0,0.0,0.0,0.0,0.0,0.0,0.0,0.0,0.0,0.0,0.0,0.0,0.0,0.0,0.0,0.0,0.0,0.0,0.0,0.0,0.0,0.0,0.0,0.0,0.0,0.0,0.0,0.0,0.0,0.0,0.0,0.0,0.0,0.0,0.0,0.0,0.0,0.0,0.0,0.0,0.0,0.0,0.0,0.0,0.0,0.0,0.0,0.0,0.0,0.0,0.0,0.0,0.0,0.0,0.0,0.0,0.0,0.0,0.0,0.0,0.0,0.0,0.0,0.0,0.0,0.0,0.0,0.0,0.0,0.0,0.0,0.0,0.0,0.0,0.0,0.0,0.0,0.0,0.2613,0.294,0.3434,0.3798,0.4118,0.0,0.0,0.0,0.0,0.0,0.0,0.0,0.0,0.0,0.0,0.0,0.0,0.0,0.0,0.0,0.0,0.0,0.0,0.0,0.0,0.0,0.0,0.0,0.0,0.0,0.0,0.0,0.0,0.0,0.0,0.0,0.0,0.0,0.0,0.0,0.0,0.0,0.0,0.0,0.0,0.0,0.0,0.0,0.0,0.0,0.0,0.0,0.0,0.0,0.0,0.0,0.0,0.0,0.0,0.0,0.0,0.0,0.0,0.0,0.0,0.0,0.0,0.0,0.0,0.0,0.0,0.0,0.0,0.0,0.0,0.0,0.0,0.0,0.0,0.0,0.0,0.0,0.0,0.0,0.0,0.0,0.0,0.0,0.0,0.0,0.0,0.0,0.0,0.0,0.0,0.0,0.0,0.0,0.0,0.0,0.0,0.0,0.0,0.0,0.0,0.0,0.0,0.0,0.0,0.0,0.0,0.0,0.0,0.0,0.251,0.2779,0.3138,0.3565,0.3831,0.4151,0.0,0.0,0.0,0.0,0.0,0.0,0.0,0.0,0.0,0.0,0.0,0.0,0.0,0.0,0.0,0.0,0.0,0.0,0.0,0.0,0.0,0.0,0.0,0.0,0.0,0.0,0.0,0.0,0.0,0.0,0.0,0.0,0.0,0.0,0.0,0.0,0.0,0.0,0.0,0.0,0.0,0.0,0.0,0.0,0.0,0.0,0.0,0.0,0.0,0.0,0.0,0.0,0.0,0.0,0.0,0.0,0.0,0.0,0.0,0.0,0.0,0.0,0.0,0.0,0.0,0.0,0.0,0.0,0.0,0.0,0.0,0.0,0.0,0.0,0.0,0.0,0.0,0.0,0.0,0.0,0.0,0.0,0.0,0.0,0.0,0.0,0.0,0.0,0.0,0.0,0.0,0.0,0.0,0.0,0.0,0.0,0.0,0.0,0.0,0.0,0.0,0.0,0.0,0.0,0.0,0.0,0.0,0.0,0.0,0.2639,0.0,0.3274,0.0,0.3923,0.4253,0.0,0.0,0.0,0.0,0.0,0.0,0.0,0.0,0.0,0.0,0.0,0.0,0.0,0.0,0.0,0.0,0.0,0.0,0.0,0.0,0.0,0.0,0.0,0.0,0.0,0.0,0.0,0.0,0.0,0.0,0.0,0.0,0.0,0.0,0.0,0.0,0.0,0.0,0.0,0.0,0.0,0.0,0.0,0.0,0.0,0.0,0.0,0.0,0.0,0.0,0.0,0.0,0.0,0.0,0.0,0.0,0.0,0.0,0.0,0.0,0.0,0.0,0.0,0.0,0.0,0.0,0.0,0.0,0.0,0.0,0.0,0.0,0.0,0.0,0.0,0.0,0.0,0.0,0.0,0.0,0.0,0.0,0.0,0.0,0.0,0.0,0.0,0.0,0.0,0.0,0.0,0.0,0.0,0.0,0.0,0.0,0.0,0.0,0.0,0.0,0.0,0.0,0.0,0.0,0.0,0.0,0.0,0.0,0.2646,0.2907,0.3109,0.3344,0.3602,0.4058,0.4447,0.0,0.0,0.0,0.0,0.0,0.0,0.0,0.0,0.0,0.0,0.0,0.0,0.0,0.0,0.0,0.0,0.0,0.0,0.0,0.0,0.0,0.0,0.0,0.0,0.0,0.0,0.0,0.0,0.0,0.0,0.0,0.0,0.0,0.0,0.0,0.0,0.0,0.0,0.0,0.0,0.0,0.0,0.0,0.0,0.0,0.0,0.0,0.0,0.0,0.0,0.0,0.0,0.0,0.0,0.0,0.0,0.0,0.0,0.0,0.0,0.0,0.0,0.0,0.0,0.0,0.0,0.0,0.0,0.0,0.0,0.0,0.0,0.0,0.0,0.0,0.0,0.0,0.0,0.0,0.0,0.0,0.0,0.0,0.0,0.0,0.0,0.0,0.0,0.0,0.0,0.0,0.0,0.0,0.0,0.0,0.0,0.0,0.0,0.0,0.0,0.0,0.0,0.0,0.0,0.0,0.0,0.0,0.0,0.0,0.3108,0.3172,0.3436,0.3862,0.4136,0.4473,0.0,0.0,0.0,0.0,0.0,0.0,0.0,0.0,0.0,0.0,0.0,0.0,0.0,0.0,0.0,0.0,0.0,0.0,0.0,0.0,0.0,0.0,0.0,0.0,0.0,0.0,0.0,0.0,0.0,0.0,0.0,0.0,0.0,0.0,0.0,0.0,0.0,0.0,0.0,0.0,0.0,0.0,0.0,0.0,0.0,0.0,0.0,0.0,0.0,0.0,0.0,0.0,0.0,0.0,0.0,0.0,0.0,0.0,0.0,0.0,0.0,0.0,0.0,0.0,0.0,0.0,0.0,0.0,0.0,0.0,0.0,0.0,0.0,0.0,0.0,0.0,0.0,0.0,0.0,0.0,0.0,0.0,0.0,0.0,0.0,0.0,0.0,0.0,0.0,0.0,0.0,0.0,0.0,0.0,0.0,0.0,0.0,0.0,0.0,0.0,0.0,0.0,0.0,0.0,0.0,0.0,0.0,0.0,0.0,0.3358,0.3393,0.3602,0.4044,0.4329,0.4681,0.5117,0.0,0.0,0.0,0.0,0.0,0.0,0.0,0.0,0.0,0.0,0.0,0.0,0.0,0.0,0.0,0.0,0.0,0.0,0.0,0.0,0.0,0.0,0.0,0.0,0.0,0.0,0.0,0.0,0.0,0.0,0.0,0.0,0.0,0.0,0.0,0.0,0.0,0.0,0.0,0.0,0.0,0.0,0.0,0.0,0.0,0.0,0.0,0.0,0.0,0.0,0.0,0.0,0.0,0.0,0.0,0.0,0.0,0.0,0.0,0.0,0.0,0.0,0.0,0.0,0.0,0.0,0.0,0.0,0.0,0.0,0.0,0.0,0.0,0.0,0.0,0.0,0.0,0.0,0.0,0.0,0.0,0.0,0.0,0.0,0.0,0.0,0.0,0.0,0.0,0.0,0.0,0.0,0.0,0.0,0.0,0.0,0.0,0.0,0.0,0.0,0.0,0.0,0.0,0.0,0.0,0.0,0.0,0.0,0.3723,0.3747,0.3931,0.4213,0.4562,0.501,0.0,0.0,0.0,0.0,0.0,0.0,0.0,0.0,0.0,0.0,0.0,0.0,0.0,0.0,0.0,0.0,0.0,0.0,0.0,0.0,0.0,0.0,0.0,0.0,0.0,0.0,0.0,0.0,0.0,0.0,0.0,0.0,0.0,0.0,0.0,0.0,0.0,0.0,0.0,0.0,0.0,0.0,0.0,0.0,0.0,0.0,0.0,0.0,0.0,0.0,0.0,0.0,0.0,0.0,0.0,0.0,0.0,0.0,0.0,0.0,0.0,0.0,0.0,0.0,0.0,0.0,0.0,0.0,0.0,0.0,0.0,0.0,0.0,0.0,0.0,0.0,0.0,0.0,0.0,0.0,0.0,0.0,0.0,0.0,0.0,0.0,0.0,0.0,0.0,0.0,0.0,0.0,0.0,0.0,0.0,0.0,0.0,0.0,0.0,0.0,0.0,0.0,0.0,0.0,0.0,0.0,0.0,0.0,0.0,0.4062,0.4464,0.4642,0.4638,0.4871,0.5209,0.0,0.0,0.0,0.0,0.0,0.0,0.0,0.0,0.0,0.0,0.0,0.0,0.0,0.0,0.0,0.0,0.0,0.0,0.0,0.0,0.0,0.0,0.0,0.0,0.0,0.0,0.0,0.0,0.0,0.0,0.0,0.0,0.0,0.0,0.0,0.0,0.0,0.0,0.0,0.0,0.0,0.0,0.0,0.0,0.0,0.0,0.0,0.0,0.0,0.0,0.0,0.0,0.0,0.0,0.0,0.0,0.0,0.0,0.0,0.0,0.0,0.0,0.0,0.0,0.0,0.0,0.0,0.0,0.0,0.0,0.0,0.0,0.0,0.0,0.0,0.0,0.0,0.0,0.0,0.0,0.0,0.0,0.0,0.0,0.0,0.0,0.0,0.0,0.0,0.0,0.0,0.0,0.0,0.0,0.0,0.0,0.0,0.0,0.0,0.0,0.0,0.0,0.0,0.0,0.0,0.0,0.0,0.0,0.3861,0.4292,0.4892,0.5306,0.5458,0.5556,0.5671,0.0,0.0,0.0,0.0,0.0,0.0,0.0,0.0,0.0,0.0,0.0,0.0,0.0,0.0,0.0,0.0,0.0,0.0,0.0,0.0,0.0,0.0,0.0,0.0,0.0,0.0,0.0,0.0,0.0,0.0,0.0,0.0,0.0,0.0,0.0,0.0,0.0,0.0,0.0,0.0,0.0,0.0,0.0,0.0,0.0,0.0,0.0,0.0,0.0,0.0,0.0,0.0,0.0,0.0,0.0,0.0,0.0,0.0,0.0,0.0,0.0,0.0,0.0,0.0,0.0,0.0,0.0,0.0,0.0,0.0,0.0,0.0,0.0,0.0,0.0,0.0,0.0,0.0,0.0,0.0,0.0,0.0,0.0,0.0,0.0,0.0,0.0,0.0,0.0,0.0,0.0,0.0,0.0,0.0,0.0,0.0,0.0,0.0,0.0,0.0,0.0,0.0,0.0,0.0,0.0,0.0,0.0,0.0,0.4029,0.4517,0.5185,0.5873,0.6444,0.6406,0.6327,0.0,0.0,0.0,0.0,0.0,0.0,0.0,0.0,0.0,0.0,0.0,0.0,0.0,0.0,0.0,0.0,0.0,0.0,0.0,0.0,0.0,0.0,0.0,0.0,0.0,0.0,0.0,0.0,0.0,0.0,0.0,0.0,0.0,0.0,0.0,0.0,0.0,0.0,0.0,0.0,0.0,0.0,0.0,0.0,0.0,0.0,0.0,0.0,0.0,0.0,0.0,0.0,0.0,0.0,0.0,0.0,0.0,0.0,0.0,0.0,0.0,0.0,0.0,0.0,0.0,0.0,0.0,0.0,0.0,0.0,0.0,0.0,0.0,0.0,0.0,0.0,0.0,0.0,0.0,0.0,0.0,0.0,0.0,0.0,0.0,0.0,0.0,0.0,0.0,0.0,0.0,0.0,0.0,0.0,0.0,0.0,0.0,0.0,0.0,0.0,0.0,0.0,0.0,0.0,0.0,0.0,0.0,0.0,0.4435,0.5088,0.5731,0.6395,0.7108,0.6888,0.6905,0.0,0.0,0.0,0.0,0.0,0.0,0.0,0.0,0.0,0.0,0.0,0.0,0.0,0.0,0.0,0.0,0.0,0.0,0.0,0.0,0.0,0.0,0.0,0.0,0.0,0.0,0.0,0.0,0.0,0.0,0.0,0.0,0.0,0.0,0.0,0.0,0.0,0.0,0.0,0.0,0.0,0.0,0.0,0.0,0.0,0.0,0.0,0.0,0.9391,0.0,0.0,0.0,0.0,0.0,0.0,0.0,0.0,0.0,0.0,0.0,0.0,0.0,0.0,0.0,0.0,0.0,0.0,0.0,0.0,0.0,0.0,0.0,0.0,0.0,0.0,0.0,0.0,0.0,0.0,0.0,0.0,0.0,0.0,0.0,0.0,0.0,0.0,0.0,0.0,0.0,0.0,0.0,0.0,0.0,0.0,0.0,0.0,0.0,0.0,0.0,0.0,0.0,0.0,0.0,0.0,0.0,0.0,0.0,0.4723,0.5305,0.6145,0.6943,0.7546,0.7544,0.7558,0.0,0.0,0.0,0.0,0.0,0.0,0.0,0.0,0.0,0.0,0.0,0.0,0.0,0.0,0.0,0.0,0.0,0.0,0.0,0.0,0.0,0.0,0.0,0.0,0.0,0.0,0.0,0.0,0.0,0.0,0.0,0.0,0.0,0.0,0.0,0.0,0.0,0.0,0.0,0.0,0.0,0.0,0.0,0.0,0.0,0.0,0.0,0.0,0.0,0.0,0.0,0.0,0.0,0.0,0.0,0.0,0.0,0.0,0.0,0.0,0.0,0.0,0.0,0.0,0.0,0.0,0.0,0.0,0.0,0.0,0.0,0.0,0.0,0.0,0.0,0.0,0.0,0.0,0.0,0.0,0.0,0.0,0.0,0.0,0.0,0.0,0.0,0.0,0.0,0.0,0.0,0.0,0.0,0.0,0.0,0.0,0.0,0.0,0.0,0.0,0.0,0.0,0.0,0.0,0.0,0.0,0.0,0.4268,0.4964,0.5412,0.6524,0.7402,0.7972,0.8161,0.8179,0.8027,0.0,0.0,0.0,0.0,0.0,0.0,0.0,0.0,0.0,0.0,0.0,0.0,0.0,0.0,0.0,0.0,0.0,0.0,0.0,0.0,0.0,0.0,0.0,0.0,0.0,0.0,0.0,0.0,0.0,0.0,0.0,0.0,0.0,0.0,0.0,0.0,0.0,0.0,0.6153,0.7656,0.0,0.0,0.0,0.0,0.0,0.0,0.0,0.0,1.0826,0.0,0.0,0.0,0.0,0.0,0.0,0.0,0.0,0.0,0.0,0.0,0.0,0.0,0.0,0.0,0.0,0.0,0.0,0.0,0.0,0.0,0.0,0.0,0.0,0.0,0.0,0.0,0.0,0.0,0.0,0.0,0.0,0.0,0.0,0.0,0.0,0.0,0.0,0.0,0.0,0.0,0.0,0.0,0.0,0.0,0.0,0.0,0.0,0.0,0.0,0.0,0.0,0.0,0.0,0.0,0.0,0.3482,0.4405,0.5157,0.5805,0.6634,0.7563,0.8448,0.842,0.858,0.8973,0.0,0.0,0.0,0.0,0.0,0.0,0.0,0.0,0.0,0.0,0.0,0.0,0.0,0.0,0.0,0.0,0.0,0.0,0.0,0.0,0.0,0.0,0.0,0.0,0.0,0.0,0.0,0.0,0.0,0.0,0.0,0.0,0.0,0.0,0.0,0.0,0.0,0.0,0.0,0.8168,0.8929,0.0,0.0,0.0,0.0,0.0,0.0,0.0,0.0,1.1057,0.0,0.0,0.0,0.0,0.0,0.0,0.0,0.0,0.0,0.0,0.0,0.0,0.0,0.0,0.0,0.0,0.0,0.0,0.0,0.0,0.0,0.0,0.0,0.0,0.0,0.0,0.0,0.0,0.0,0.0,0.0,0.0,0.0,0.0,0.0,0.0,0.0,0.0,0.0,0.0,0.0,0.0,0.0,0.0,0.0,0.0,0.0,0.0,0.0,0.0,0.0,0.0,0.0,0.0,0.0,0.3664,0.4583,0.5394,0.6,0.6941,0.7824,0.8659,0.856,0.8818,0.0,0.0,0.0,0.0,0.0,0.0,0.0,0.0,0.0,0.0,0.0,0.0,0.0,0.0,0.0,0.0,0.0,0.0,0.0,0.0,0.0,0.0,0.0,0.0,0.0,0.0,0.0,0.0,0.0,0.0,0.0,0.0,0.0,0.0,0.0,0.0,0.0,0.0,0.0,0.0,0.878,0.9303,0.9701,0.0,0.0,0.0,0.0,0.0,0.0,1.1145,1.1268,0.0,0.0,0.0,0.0,0.0,0.0,0.0,0.0,0.0,0.0,0.0,0.0,0.0,0.0,0.0,0.0,0.0,0.0,0.0,0.0,0.0,0.0,0.0,0.0,0.0,0.0,0.0,0.0,0.0,0.0,0.0,0.0,0.0,0.0,0.0,0.0,0.0,0.0,0.0,0.0,0.0,0.0,0.0,0.0,0.0,0.0,0.0,0.0,0.0,0.0,0.0,0.0,0.0,0.0,0.0,0.3813,0.4824,0.5639,0.6239,0.7252,0.815,0.8869,0.8763,0.895,0.0,0.0,0.0,0.0,0.0,0.0,0.0,0.0,0.0,0.0,0.0,0.0,0.0,0.0,0.0,0.0,0.0,0.0,0.0,0.0,0.0,0.0,0.0,0.0,0.0,0.0,0.0,0.0,0.0,0.0,0.0,0.0,0.0,0.0,0.0,0.0,0.0,0.0,0.0,0.0,0.0,0.9763,1.017,1.0682,0.0,0.0,0.0,0.0,1.1669,1.1575,0.0,0.0,0.0,0.0,0.0,0.0,0.0,0.0,0.0,0.0,0.0,0.0,0.0,0.0,0.0,0.0,0.0,0.0,0.0,0.0,0.0,0.0,0.0,0.0,0.0,0.0,0.0,0.0,0.0,0.0,0.0,0.0,0.0,0.0,0.0,0.0,0.0,0.0,0.0,0.0,0.0,0.0,0.0,0.0,0.0,0.0,0.0,0.0,0.0,0.0,0.0,0.0,0.0,0.0,0.0,0.0,0.4069,0.5116,0.598,0.6633,0.762,0.8427,0.9145,0.9048,0.9136,0.0,0.0,0.0,0.0,0.0,0.0,0.0,0.0,0.0,0.0,0.0,0.0,0.0,0.0,0.0,0.0,0.0,0.0,0.0,0.0,0.0,0.0,0.0,0.0,0.0,0.0,0.0,0.0,0.0,0.0,0.0,0.0,0.0,0.0,0.0,0.0,0.0,0.0,0.0,0.0,0.0,1.0246,1.0875,1.1166,1.1542,0.0,0.0,1.2193,1.198,1.2106,0.0,0.0,0.0,0.0,0.0,0.0,0.0,0.0,0.0,0.0,0.0,0.0,0.0,0.0,0.0,0.0,0.0,0.0,0.0,0.0,0.0,0.0,0.0,0.0,0.0,0.0,0.0,0.0,0.0,0.0,0.0,0.0,0.0,0.0,0.0,0.0,0.0,0.0,0.0,0.0,0.0,0.0,0.0,0.0,0.0,0.0,0.0,0.0,0.0,0.0,0.0,0.0,0.0,0.0,0.0,0.355,0.4181,0.5232,0.6131,0.6773,0.7774,0.8554,0.8996,0.8993,0.9082,0.0,0.0,0.0,0.0,0.0,0.0,0.0,0.0,0.0,0.0,0.0,0.0,0.0,0.0,0.0,0.0,0.0,0.0,0.0,0.0,0.0,0.0,0.0,0.0,0.0,0.0,0.0,0.0,0.0,0.0,0.0,0.0,0.0,0.0,0.0,0.0,0.0,0.0,0.0,0.0,0.0,0.0,1.091,1.1301,0.0,0.0,0.0,1.2107,1.2111,0.0,0.0,0.0,0.0,0.0,0.0,0.0,0.0,0.0,0.0,0.0,0.0,0.0,0.0,0.0,0.0,0.0,0.0,0.0,0.0,0.0,0.0,0.0,0.0,0.0,0.0,0.0,0.0,0.0,0.0,0.0,0.0,0.0,0.0,0.0,0.0,0.0,0.0,0.0,0.0,0.0,0.0,0.0,0.0,0.0,0.0,0.0,0.0,0.0,0.0,0.0,0.0,0.0,0.0,0.0,0.0,0.0,0.4354,0.5428,0.6309,0.706,0.8011,0.8736,0.9163,0.9162,0.0,0.0,0.0,0.0,0.0,0.0,0.0,0.0,0.0,0.0,0.0,0.0,0.0,0.0,0.0,0.0,0.0,0.0,0.0,0.0,0.0,0.0,0.0,0.0,0.0,0.0,0.0,0.4333,0.0,0.0,0.0,0.0,0.0,0.0,0.0,0.0,0.0,0.0,0.0,0.0,0.0,0.0,1.0503,1.1116,1.161,1.1955,0.0,0.0,1.2222,1.2297,1.2131,1.2077,0.0,0.0,0.0,0.0,0.0,0.0,0.0,0.0,0.0,0.0,0.0,0.0,0.0,0.0,0.0,0.0,0.0,0.0,0.0,0.0,0.0,0.0,0.0,0.0,0.0,0.0,0.0,0.0,0.0,0.0,0.0,0.0,0.0,0.0,0.0,0.0,0.0,0.0,0.0,0.0,0.0,0.0,0.0,0.0,0.0,0.0,0.0,0.0,0.0,0.0,0.0,0.0,0.0,0.0,0.0,0.4721,0.5615,0.6624,0.7709,0.8527,0.9263,0.9909,0.962,0.9628,0.0,0.0,0.0,0.0,0.0,0.0,0.0,0.0,0.0,0.0,0.0,0.0,0.0,0.0,0.0,0.0,0.0,0.0,0.0,0.0,0.0,0.0,0.0,0.0,0.0,0.0,0.0,0.0,0.0,0.0,0.0,0.0,0.0,0.0,0.0,0.0,0.0,0.0,0.0,0.0,0.0,1.0708,1.1875,1.2184,1.2526,0.0,0.0,1.2997,1.2624,1.2709,1.2777,1.2631,0.0,0.0,0.0,0.0,0.0,0.0,0.0,0.0,0.0,0.0,0.0,0.0,0.0,0.0,0.0,0.0,0.0,0.0,0.0,0.0,0.0,0.0,0.0,0.0,0.0,0.0,0.0,0.0,0.0,0.0,0.0,0.0,0.0,0.0,0.0,0.0,0.0,0.0,0.0,0.0,0.0,0.0,0.0,0.0,0.0,0.0,0.0,0.0,0.0,0.0,0.0,0.0,0.0,0.3432,0.4536,0.5481,0.6526,0.7633,0.8534,0.9231,0.9688,0.966,0.9674,0.0,0.0,0.0,0.0,0.0,0.0,0.0,0.0,0.0,0.0,0.0,0.0,0.0,0.0,0.0,0.0,0.0,0.0,0.0,0.0,0.0,0.0,0.0,0.0,0.0,0.0,0.0,0.0,0.5242,0.5309,0.5309,0.0,0.0,0.0,0.0,0.0,0.0,0.0,0.0,0.0,0.0,1.1241,1.191,1.2357,0.0,0.0,1.2803,1.2754,1.2752,1.2686,1.2683,1.2882,1.2981,0.0,0.0,0.0,0.0,0.0,0.0,0.0,0.0,0.0,0.0,0.0,0.0,0.0,0.0,0.0,0.0,0.0,0.0,0.0,0.0,0.0,0.0,0.0,0.0,0.0,0.0,0.0,0.0,0.0,0.0,0.0,0.0,0.0,0.0,0.0,0.0,0.0,0.0,0.0,0.0,0.0,0.0,0.0,0.0,0.0,0.0,0.0,0.0,0.0,0.0,0.0,0.0,0.3165,0.4329,0.5316,0.641,0.7602,0.8521,0.9268,0.9692,0.9747,0.9784,0.0,0.0,0.0,0.0,0.0,0.0,0.0,0.0,0.0,0.0,0.0,0.0,0.0,0.0,0.0,0.0,0.0,0.0,0.0,0.0,0.0,0.0,0.0,0.0,0.0,0.0,0.0,0.0,0.5309,0.5311,0.5397,0.0,0.0,0.0,0.0,0.0,0.0,0.0,0.0,0.0,0.0,1.1687,1.1988,1.2397,1.2676,1.2627,1.2578,1.2578,1.2832,1.2686,1.2735,1.3165,0.0,0.0,0.0,0.0,0.0,0.0,0.0,0.0,0.0,0.0,0.0,0.0,0.0,0.0,0.0,0.0,0.0,0.0,0.0,0.0,0.0,0.0,0.0,0.0,0.0,0.0,0.0,0.0,0.0,0.0,-0.0116,0.0,0.0,0.0,0.0,0.0,0.0,0.0,0.0,0.0,0.0,0.0,0.0,0.0,0.0,0.0,0.0,0.0,0.0,0.0,0.0,0.0,0.0,0.299,0.4189,0.5042,0.6238,0.7635,0.856,0.934,1.0115,1.001,1.0083,1.0409,0.0,0.0,0.0,0.0,0.0,0.0,0.0,0.0,0.0,0.0,0.0,0.0,0.0,0.0,0.0,0.0,0.0,0.0,0.0,0.0,0.0,0.0,0.0,0.0,0.0,0.0,0.5417,0.5347,0.5397,0.0,0.0,0.0,0.0,0.0,0.0,0.0,0.0,0.0,0.0,1.1705,1.1846,1.2248,1.252,1.2637,1.2529,1.2529,1.2529,1.2676,1.2842,1.3133,0.0,0.0,0.0,0.0,0.0,0.0,0.0,0.0,0.0,0.0,0.0,0.0,0.0,0.0,0.0,0.0,0.0,0.0,0.0,0.0,0.0,0.0,0.0,0.0,0.0,0.0,0.0,-0.1913,-0.1136,0.0,0.0,0.0,0.0,0.0,0.0,0.0,0.0,0.0,0.0,0.0,0.0885,0.0792,0.0,0.0,0.0,0.0,0.0,0.0,0.0,0.0,0.0,0.0,0.0,0.0,0.2588,0.3649,0.4708,0.592,0.7283,0.8143,0.904,0.9925,0.9937,0.9918,0.9846,0.0,0.0,0.0,0.0,0.0,0.0,0.0,0.0,0.0,0.0,0.0,0.0,0.0,0.0,0.0,0.0,0.0,0.0,0.0,0.0,0.0,0.0,0.0,0.0,0.0,0.5467,0.0,0.0,0.0,0.0,0.0,0.0,0.0,0.0,0.0,0.0,0.0,1.0308,1.111,1.1718,1.2173,1.2314,1.2431,1.2529,0.0,0.0,0.0,0.0,0.0,0.0,0.0,0.0,0.0,0.0,0.0,0.0,0.0,0.0,1.6732,1.6641,1.6677,1.6789,1.7165,0.0,0.0,0.0,0.0,0.0,0.0,0.0,0.0,0.0,0.0,0.0,0.0,0.0,0.0,-0.3591,0.0,-0.3113,0.0,0.0,0.0,0.0,0.0,0.0,0.0,0.0,-0.1223,-0.0752,-0.0301,-0.0301,-0.0251,0.0,-0.0453,-0.043,0.0,0.0,0.0,0.0,0.0,0.0,0.0,0.0,0.1994,0.3011,0.412,0.5303,0.6632,0.7563,0.8461,0.9444,0.9891,0.9939,0.9667,0.9373,0.8922,0.0,0.0,0.0,0.0,0.0,0.0,0.0,0.0,0.0,0.0,0.0,0.0,0.0,0.0,0.0,0.0,0.0,0.0,0.0,0.0,0.0,0.0,0.0,0.569,0.0,0.0,0.0,0.0,0.0,0.0,0.0,0.0,0.0,0.9048,0.989,1.0688,1.1142,1.1853,1.2274,1.2224,0.0,0.0,0.0,0.0,0.0,0.0,0.0,1.3075,1.3525,1.4039,1.463,1.5232,1.612,1.6879,1.7393,0.0,0.0,1.7327,1.733,1.7486,1.7827,1.8099,1.833,1.8617,1.8936,1.9218,0.0,0.0,0.0,0.0,0.0,0.0,0.0,0.0,-0.6331,-0.579,0.0,-0.5273,0.0,0.0,0.0,0.0,0.0,-0.4685,0.0,0.0,-0.3018,-0.2411,-0.2014,-0.1915,-0.186,-0.1858,-0.1764,-0.1763,-0.1854,-0.0872,0.0,0.0,0.0,0.0,0.0,0.0,0.1286,0.227,0.3279,0.4407,0.5764,0.6745,0.7771,0.8764,0.9742,1.0119,0.9925,0.9626,0.9382,0.9115,0.7885,0.0,0.0,0.0,0.0,0.0,0.0,0.0,0.0,0.0,0.0,0.0,0.0,0.0,0.0,0.0,0.0,0.0,0.0,0.0,0.0,0.597,0.0,0.0,0.0,0.0,0.0,0.0,0.0,0.0,0.0,0.0,0.95,1.0187,1.0936,1.1616,0.0,0.0,0.0,0.0,1.2274,1.2126,1.2234,1.2351,1.2508,1.2832,1.3183,1.3556,0.0,0.0,1.5647,1.6293,1.6837,1.731,1.7801,1.8166,1.8035,1.7806,1.7715,1.7962,1.8298,1.8546,1.8831,1.9247,1.9483,-1.7686,0.0,0.0,0.0,0.0,-1.2531,-1.1515,-1.0545,-0.9485,-0.8495,-0.7617,-0.7354,0.0,0.0,0.0,0.0,0.0,0.0,-0.6936,-0.6613,-0.6265,-0.552,-0.4361,-0.4641,-0.4927,-0.5214,-0.4661,-0.4285,-0.4237,-0.3935,-0.3409,-0.2686,0.0,0.0,0.0,0.0,0.0467,0.1537,0.2551,0.3638,0.4999,0.5823,0.7009,0.862,0.9199,0.9682,0.9941,0.9673,0.9371,0.9129,0.8361,0.0,0.0,0.0,0.0,0.0,0.0,0.0,0.0,0.0,0.0,0.0,0.0,0.0,0.0,0.0,0.0,0.0,0.0,0.0,0.6168,0.6459,0.6578,0.0,0.0,0.0,0.0,0.0,0.0,0.0,0.0,0.0,0.9703,1.044,1.1148,0.0,0.0,1.2126,1.2135,1.2274,1.2382,1.2274,0.0,0.0,0.0,1.3594,1.4001,1.396,1.4344,1.4812,1.5468,1.6064,1.6582,1.7144,1.7679,1.8131,1.8532,1.8695,1.8853,1.9206,1.9524,1.9844,2.0145,2.0474,2.0757,-2.2592,-2.0811,-1.8919,-1.7629,-1.6739,-1.5665,-1.4615,-1.3595,-1.2528,-1.1511,-1.0609,-1.0192,-1.025,-1.0524,-1.0053,0.0,0.0,0.0,-1.003,-0.9814,-0.9549,-0.8883,-0.8029,-0.8152,-0.8276,-0.8306,-0.7788,-0.7272,-0.6848,-0.6756,-0.6242,-0.5285,0.0,0.0,-0.2305,-0.1571,-0.064,0.0433,0.1436,0.2563,0.384,0.505,0.6416,0.7978,0.8604,0.917,0.9663,0.9574,0.9408,0.9188,0.8616,0.8043,0.0,0.0,0.0,0.0,0.0,0.0,0.0,0.0,0.0,0.0,0.0,0.5704,0.0,0.0,0.0,0.0,0.6101,0.6275,0.6562,0.6974,0.0,0.0,0.0,0.0,0.0,0.0,0.0,0.8539,0.9105,0.9554,0.9761,1.0438,1.0972,1.1368,1.1852,1.2204,1.2264,0.0,1.2768,1.2716,1.3067,1.3375,1.3437,1.3975,1.4433,1.4624,1.4816,1.5153,1.5659,1.6058,1.6436,1.6976,1.7475,1.7962,1.8475,1.8874,1.925,1.969,2.0112,2.0424,2.0777,2.1069,2.1362,-2.6745,-2.6101,-2.2593,-2.0454,-1.9273,-1.8429,-1.7478,-1.6483,-1.5563,-1.4811,-1.425,-1.3647,-1.338,-1.3352,-1.3522,0.0,-1.3826,-1.3556,-1.3359,-1.3243,-1.2895,-1.26,-1.2467,-1.2262,-1.185,-1.1249,-1.1179,-1.0669,-0.9933,-0.9621,-0.9233,-0.8833,-0.6217,-0.4483,-0.3641,-0.2971,-0.2106,-0.1059,0.0056,0.1228,0.2456,0.433,0.5864,0.6891,0.7925,0.8651,0.9083,0.9344,0.937,0.9253,0.868,0.8193,0.7803,0.0,0.0,0.0,0.0,0.0,0.0,0.0,0.0,0.0,0.0,0.0,0.0,0.0,0.0,0.0,0.6848,0.0,0.6995,0.7596,0.0,0.0,0.0,0.8435,0.837,0.8637,0.887,0.8984,0.0,0.0,0.9829,0.0,1.0672,1.126,1.1843,1.2307,1.25,1.2923,1.3296,1.3241,1.3577,1.3749,1.3749,1.4092,1.4583,1.5227,1.5394,1.5588,1.6044,1.625,1.6448,1.6939,1.73,1.7772,1.8234,1.8728,1.9104,1.9715,2.0106,2.0474,2.0761,2.1055,2.1355,-3.0061,-2.9647,-2.8592,-2.6202,-2.3025,-2.2085,-2.1191,-2.0305,-1.9317,-1.8412,-1.7605,-1.6973,-1.6389,-1.5984,-1.6241,-1.6564,-1.6933,-1.6977,-1.7138,-1.7361,-1.7291,-1.6979,-1.6489,-1.6478,-1.6067,-1.5385,-1.524,-1.4876,-1.431,-1.351,-1.286,-1.2241,-1.0582,-0.843,-0.5917,-0.4789,-0.3721,-0.2768,-0.1835,-0.0334,0.1782,0.3277,0.4542,0.5575,0.6622,0.757,0.8345,0.8634,0.882,0.8753,0.8392,0.7992,0.7654,0.7396,0.0,0.0,0.0,0.0,0.0,0.0,0.0,0.0,0.0,0.6471,0.6377,0.0,0.6586,0.0,0.7332,0.7832,0.7799,0.8359,0.0,0.0,0.8568,0.8568,0.8756,0.8757,0.8897,0.9123,0.9214,0.9513,0.9958,1.0149,1.0524,1.1327,1.1701,1.2095,1.2536,1.2932,1.3223,1.3268,1.3774,1.4129,1.4184,1.4395,1.4805,1.5484,1.5479,1.5574,1.6115,1.6543,1.6979,1.7567,1.8073,1.8595,1.9141,1.9641,1.989,1.9953,2.0027,2.0196,2.0527,2.0909,2.1214,-3.1808,-3.1597,-3.1418,-2.9978,-2.7666,-2.6347,-2.5288,-2.4472,-2.3611,-2.2598,-2.1457,-2.0433,-1.9748,-1.9449,-1.9691,-1.9935,-2.0234,-2.0452,-2.0675,-2.0899,-2.0941,-2.0781,-2.0464,-2.0481,-2.0059,-1.932,-1.9145,-1.8653,-1.7952,-1.7132,-1.6194,-1.504,-1.4467,-1.2793,-1.005,-0.7681,-0.5944,-0.4884,-0.3317,-0.1552,0.0333,0.1721,0.2938,0.3984,0.5362,0.6465,0.732,0.7768,0.8108,0.8325,0.803,0.7721,0.7529,0.7333,0.7196,0.0,0.0,0.0,0.0,0.0,0.0,0.0,0.0,0.0,0.0,0.0,0.7441,0.0,0.8052,0.8391,0.8399,0.886,0.9122,0.9122,0.9055,0.9004,0.9134,0.9174,0.9285,0.94,0.9486,0.9687,1.0016,1.0205,1.0553,1.1233,1.1623,1.2136,1.2677,1.3173,1.3477,1.3543,1.3944,1.4331,1.4438,1.4792,1.517,1.5548,1.5593,1.575,1.6216,1.6548,1.6947,1.7509,1.8141,1.8681,1.9243,1.9765,2.0161,2.0309,2.045,2.0548,2.0481,2.0712,2.1039,-3.2964,-3.2884,-3.2774,-3.2637,-3.2298,-3.0702,-2.9417,-2.8459,-2.7731,-2.6704,-2.5361,-2.4076,-2.3443,-2.3318,-2.3572,-2.3666,-2.3651,-2.3884,-2.3997,-2.4006,-2.4099,-2.4144,-2.4083,-2.4144,-2.3768,-2.3001,-2.2771,-2.2185,-2.1188,-2.0582,-1.9475,-1.7891,-1.8035,-1.7057,-1.498,-1.1626,-0.8999,-0.7078,-0.4768,-0.2923,-0.1605,-0.0222,0.1055,0.227,0.3877,0.5206,0.6081,0.6707,0.7257,0.7766,0.756,0.7428,0.732,0.7297,0.7129,0.0,0.7026,0.0,0.0,0.0,0.0,0.0,0.0,0.0,0.0,0.8072,0.852,0.867,0.8808,0.8877,0.8877,0.9167,0.9333,0.9427,0.9519,0.959,0.9542,0.9622,0.9736,0.9736,0.9804,0.9911,1.0133,1.0422,1.0712,1.113,1.1592,1.2126,1.2772,1.3348,1.3708,1.3881,1.407,1.4255,1.4619,1.4982,1.5342,1.5594,1.5746,1.5946,1.6375,1.6588,1.6869,1.7419,1.8056,1.8656,1.9087,1.9709,2.0263,2.0599,2.1034,2.1193,2.0845,2.0936,2.1129,-3.5059,-3.501,-3.5048,-3.4944,-3.472,-3.4386,-3.2844,-3.0588,-3.0062,-2.9336,-2.8438,-2.7981,-2.7707,-2.7601,-2.7757,-2.7555,-2.7079,-2.7178,-2.7031,-2.6662,-2.671,-2.6688,-2.6695,-2.6695,-2.6476,-2.6127,-2.5922,-2.5497,-2.4873,-2.3967,-2.3059,-2.2171,-2.1222,-2.0174,-1.9071,0.0,0.0,0.0,-0.6945,-0.5569,-0.428,-0.2644,-0.1158,0.0166,0.1934,0.0,0.4597,0.5662,0.638,0.6673,0.7035,0.0,0.0,0.0,0.0,0.0,0.0,0.0,0.0,0.0,0.0,0.0,0.8718,0.872,0.8265,0.8468,0.8673,0.8692,0.9071,0.9268,0.9268,0.9451,0.9643,0.9914,0.9778,0.9742,0.9918,0.9895,0.9879,0.9879,0.9826,0.9897,1.0292,1.0393,1.0685,1.133,1.1589,1.1905,1.2379,1.2976,1.339,1.345,1.37,1.4061,1.4478,1.4606,1.4902,1.5303,1.571,1.6073,1.6602,1.7148,1.7668,1.8219,1.879,1.9332,1.9874,2.0505,2.0914,2.0948,2.147,2.186,2.1644,2.1976,2.2357,-3.5703,0.0,-3.5682,-3.5616,0.0,-3.5558,-3.473,-3.3376,-3.28,-3.1989,-3.1059,-3.0513,-3.0228,-3.0204,-3.0267,-3.0137,-2.9831,-2.9899,-2.9599,-2.9042,-2.9107,-2.8889,-2.8445,-2.8484,-2.8338,-2.8091,-2.7965,-2.7665,-2.7217,-2.6573,-2.6023,-2.5641,-2.4546,-2.3497,-2.2545,-2.0504,-1.6854,-1.149,-0.9946,-0.841,-0.6981,-0.5321,-0.371,-0.2141,0.0,0.0,0.0,0.0,0.0,0.0,0.0,0.0,0.0,0.0,0.0,0.7269,0.7671,0.7996,0.8033,0.8461,0.8739,0.8739,0.8996,0.9029,0.8778,0.8769,0.8832,0.8941,0.9148,0.9358,0.9517,0.9616,0.9778,1.0037,0.996,0.991,0.9999,1.0034,1.0064,1.0032,1.0087,1.0235,1.0438,1.0581,1.076,1.1149,1.1435,1.1685,1.1934,1.2544,1.2972,1.3164,1.3459,1.3761,1.3992,1.4318,1.4556,1.4951,1.5352,1.5826,1.6285,1.6864,1.7423,1.8084,1.8721,1.9356,1.9914,2.0573,2.1135,2.1374,2.192,2.2454,2.2566,2.2576,2.2623,-3.6144,-3.606,-3.5928,-3.587,-3.5864,-3.5708,-3.5647,-3.5623,0.0,0.0,0.0,-3.258,-3.2245,-3.227,-3.2252,-3.2193,-3.2112,-3.2181,-3.1825,-3.1131,-3.1218,-3.0772,-2.9934,-2.996,-2.9786,-2.9429,-2.9343,-2.9175,-2.8855,-2.8569,-2.8351,-2.8193,-2.7356,-2.6442,-2.5304,-2.2474,-1.9298,-1.5992,-1.3398,-1.1332,-0.9799,-0.8088,-0.6418,-0.4685,-0.2961,-0.1157,0.0664,0.2104,0.3327,0.4265,0.4862,0.5414,0.5897,0.6386,0.6741,0.6924,0.7605,0.7997,0.8031,0.8424,0.8773,0.8831,0.8989,0.9098,0.9191,0.9027,0.9061,0.9267,0.9295,0.9421,0.9722,0.9757,0.9827,1.0061,1.0096,1.0,0.9958,1.0094,1.0187,1.0153,1.0332,1.0561,1.0604,1.0667,1.0737,1.087,1.1178,1.1498,1.1622,1.212,1.2621,1.2928,1.3155,1.3329,1.3571,1.3881,1.4318,1.4529,1.5001,1.5468,1.5874,1.64,1.6976,1.7656,1.841,1.9081,1.9656,2.0372,2.1082,2.165,2.2263,2.2844,2.323,2.3016,2.2916,-3.759,-3.7532,-3.6845,-3.6547,-3.6519,-3.5824,-3.5514,-3.551,-3.5425,-3.525,-3.503,-3.4878,-3.4766,-3.4778,-3.4778,-3.4409,-3.3785,-3.3785,-3.3371,0.0,-3.27,-3.2283,-3.1485,-3.1432,-3.0989,-3.0273,-3.0162,-3.0052,-2.987,-2.9658,-2.9471,-2.9246,-2.8795,-2.8051,-2.6986,-2.5337,-2.3851,-2.2465,-1.7457,-1.4183,-1.2859,-1.1,-0.9264,-0.7633,-0.5366,-0.3338,-0.1598,0.0276,0.1663,0.2666,0.3765,0.4527,0.492,0.5663,0.6222,0.6482,0.6942,0.7325,0.7665,0.813,0.8534,0.8903,0.9023,0.9148,0.9504,0.929,0.9274,0.9575,0.9603,0.9736,0.9966,0.99,0.9908,1.006,0.9993,0.991,0.9994,1.0002,1.0097,1.0223,1.0338,1.0434,1.0561,1.0624,1.0694,1.0814,1.1009,1.115,1.1556,1.1941,1.2251,1.256,1.2683,1.292,1.3329,1.3571,1.3932,1.441,1.4824,1.5235,1.5768,1.6343,1.6931,1.759,1.8182,1.8869,1.9512,2.0156,2.0858,2.1506,2.2119,2.2781,2.329,2.3549,2.3962,-3.7859,-3.754,-3.7209,-3.7092,-3.7053,-3.6677,-3.6535,-3.6488,-3.6096,-3.5782,-3.5527,-3.5488,-3.5447,-3.5462,-3.5499,-3.5306,-3.4957,-3.4976,-3.453,-3.3789,-3.3748,-3.3315,-3.257,-3.2471,-3.2261,-3.1855,-3.1394,-3.1129,-3.0964,-3.0461,-3.0098,-2.9969,-2.9622,-2.91,-2.8327,-2.7091,-2.6064,-2.5231,-2.0509,-1.7394,-1.5988,-1.3941,-1.1987,-1.021,-0.7869,-0.5801,-0.405,-0.209,-0.0498,0.0667,0.1944,0.2925,0.3698,0.4717,0.554,0.609,0.6643,0.6996,0.7132,0.7768,0.8268,0.862,0.8586,0.8705,0.8951,0.9086,0.9146,0.9218,0.9316,0.9542,0.9821,0.9794,0.9799,1.0017,0.9981,0.997,1.0015,0.9989,1.0047,1.011,1.011,1.0174,1.0244,1.0371,1.0507,1.0755,1.1039,1.1404,1.1673,1.1869,1.2062,1.2336,1.2506,1.2683,1.2981,1.3329,1.3631,1.4061,1.4469,1.4951,1.543,1.6009,1.6627,1.7245,1.7909,1.8602,1.9291,2.0016,2.066,2.1277,2.201,2.2615,2.3157,2.3864,2.4623,-3.8161,-3.7731,-3.7546,-3.7376,-3.7227,-3.7215,-3.7218,-3.7163,-3.6597,-3.6178,-3.5882,-3.5613,-3.5535,-3.5528,-3.558,-3.5624,-3.5605,-3.5605,-3.5243,-3.4646,-3.4586,-3.4136,-3.3375,-3.3308,-3.3215,-3.2999,-3.2394,-3.1995,-3.1699,-3.1085,-3.0663,-3.0451,-3.0156,-2.9843,-2.9452,-2.8516,-2.7724,-2.6958,-2.3631,-2.0942,-1.9107,-1.6863,-1.4743,-1.2855,-1.0491,-0.8378,-0.6569,-0.4483,-0.2756,-0.1442,-0.0111,0.1166,0.2336,0.3555,0.4611,0.5441,0.6095,0.6524,0.6671,0.7278,0.7771,0.8055,0.8009,0.8075,0.8261,0.8575,0.8808,0.8884,0.9072,0.9304,0.9543,0.9599,0.9625,0.9831,0.9856,0.9779,0.9792,0.9792,0.9792,0.9856,0.9906,1.002,1.0084,1.0264,1.0464,1.0743,1.1222,1.1621,1.1765,1.1833,1.1878,1.2069,1.2288,1.257,1.2679,1.3022,1.3346,1.3649,1.4112,1.4597,1.5088,1.5662,1.6218,1.6899,1.7623,1.8387,1.9028,1.9798,2.0459,2.1118,2.1793,2.2526,2.3201,2.4032,2.4918,-3.9066,-3.8883,-3.8085,-3.7326,-3.6749,-3.6738,-3.6745,-3.6721,-3.659,-3.6638,-3.6578,-3.5679,-3.5297,-3.5323,-3.5335,-3.5316,-3.5335,-3.5335,-3.5277,-3.5188,-3.5149,-3.4699,-3.3955,-3.3916,-3.3539,-3.2933,-3.2752,-3.2406,-3.1853,-3.162,-3.1217,-3.0644,-3.0487,-3.0355,-3.0145,-2.9817,-2.9455,-2.9026,-2.7413,-2.5112,-2.2157,-1.9744,-1.7765,-1.6101,-1.3324,-1.0904,-0.8992,-0.6945,-0.5093,-0.3528,-0.2215,-0.0833,0.0723,0.2,0.3169,0.4284,0.4838,0.5445,0.6204,0.6707,0.6993,0.7058,0.73,0.7491,0.7545,0.7958,0.8438,0.8865,0.9071,0.9204,0.9439,0.947,0.9418,0.939,0.9402,0.9274,0.9227,0.9087,0.9204,0.9518,0.9771,1.0031,1.023,1.0533,1.071,1.0823,1.1125,1.1391,1.1523,1.1654,1.1847,1.1938,1.1999,1.2345,1.2749,1.2758,1.3026,1.3449,1.3838,1.4336,1.494,1.5488,1.6104,1.674,1.7412,1.8182,1.8869,1.9592,2.0308,2.1006,2.1704,2.2409,2.3432,2.4194,2.4808,-3.8704,-3.867,-3.8327,-3.7966,-3.7691,-3.7691,-3.7672,-3.7629,-3.7143,-3.6979,-3.6943,-3.6136,-3.569,-3.5571,-3.5151,-3.4958,-3.494,-3.4958,-3.4921,-3.494,-3.4886,-3.466,-3.4394,-3.4356,-3.4147,-3.3821,-3.3432,-3.3089,-3.2708,-3.1973,-3.1167,-3.0559,-3.0495,-3.0468,-3.0417,-3.032,-3.0104,-2.9805,-2.9036,-2.7809,-2.5993,-2.2863,-2.0377,-1.8694,-1.6402,-1.4066,-1.1858,-0.9747,-0.7681,-0.5645,-0.4075,-0.2491,-0.0888,0.0444,0.1724,0.2841,0.3895,0.4783,0.5492,0.5934,0.6234,0.651,0.6764,0.6944,0.719,0.7368,0.7699,0.8133,0.854,0.8856,0.9064,0.9087,0.9081,0.9081,0.9139,0.9139,0.9239,0.9251,0.9363,0.9574,0.969,0.9787,1.0012,1.0422,1.0841,1.1064,1.1313,1.1475,1.1572,1.1729,1.1944,1.2053,1.2116,1.2262,1.2632,1.3037,1.322,1.3476,1.3853,1.439,1.4731,1.5313,1.5941,1.6591,1.7312,1.803,1.8744,1.9396,2.0105,2.0894,2.1846,2.2696,2.3636,2.4214,2.4735,-3.814,-3.815,-3.8083,-3.8068,-3.805,-3.805,-3.805,-3.8029,-3.7497,-3.7275,-3.7217,-3.6534,-3.6138,-3.5913,-3.5179,-3.4708,-3.4502,-3.4486,-3.4505,-3.4483,-3.442,-3.4398,-3.4375,-3.4394,-3.4398,-3.4349,-3.3872,-3.356,-3.3318,-3.2,-3.1034,-3.0642,-3.0477,-3.0438,-3.0459,-3.0469,-3.0414,-3.0244,-2.995,-2.9569,-2.8703,-2.592,-2.3302,-2.1341,-1.9168,-1.6939,-1.4671,-1.251,-1.0379,-0.8087,-0.6289,-0.4452,-0.2639,-0.1238,0.0225,0.1752,0.3051,0.4082,0.4622,0.5081,0.5448,0.5864,0.6143,0.6437,0.6688,0.6827,0.698,0.7228,0.7727,0.8112,0.8447,0.8576,0.8663,0.8783,0.8794,0.8904,0.9135,0.9173,0.9234,0.9463,0.9508,0.9704,0.9909,1.0307,1.0773,1.1064,1.1279,1.1484,1.1558,1.1687,1.1909,1.207,1.2104,1.2303,1.2579,1.2863,1.3283,1.3599,1.3919,1.4299,1.4623,1.52,1.5712,1.6378,1.7121,1.7854,1.8625,1.9291,2.0144,2.0979,2.1927,2.286,2.358,2.412,2.4614,-3.7632,-3.7523,-3.7321,-3.7301,-3.7264,-3.7246,-3.7264,-3.7301,-3.7324,-3.7415,-3.7327,-3.6755,-3.65,-3.645,-3.5509,-3.4676,-3.402,-3.3998,-3.3979,-3.3928,-3.3928,-3.3876,-3.3842,-3.3842,-3.3895,-3.4005,-3.3919,-3.3621,-3.3047,-3.1713,-3.0992,-3.101,-3.0502,-3.0263,-3.0297,-3.0412,-3.0456,-3.037,-3.0278,-3.0201,-2.9947,-2.8758,-2.6568,-2.3888,-2.1382,-1.9252,-1.7239,-1.5264,-1.3196,-1.1091,-0.9048,-0.6904,-0.464,-0.3136,-0.1225,0.1112,0.2284,0.3082,0.3578,0.4154,0.4652,0.4908,0.5468,0.5824,0.5923,0.6234,0.6388,0.6482,0.6679,0.7068,0.762,0.7897,0.8164,0.8332,0.831,0.848,0.8614,0.8709,0.8775,0.8978,0.9169,0.954,1.0107,1.0415,1.0542,1.0703,1.0807,1.0887,1.1111,1.126,1.1484,1.1706,1.2037,1.239,1.2819,1.3001,1.3059,1.3435,1.3917,1.4252,1.4637,1.5081,1.5662,1.6239,1.7059,1.779,1.8476,1.9319,2.0295,2.1175,2.2053,2.2891,2.3493,2.396,2.4511,-3.7055,-3.6917,-3.6838,-3.6799,-3.6816,-3.6816,-3.6816,-3.6799,-3.6878,-3.6956,-3.6999,-3.6791,-3.6478,-3.6076,-3.5774,-3.5091,-3.4147,-3.3662,-3.3426,-3.3379,-3.3397,-3.3368,-3.3339,-3.3339,-3.3368,-3.3408,-3.3447,-3.3168,-3.2636,-3.212,-3.1448,-3.0708,-3.0564,-3.0349,-3.0084,-3.0213,-3.0338,-3.039,-3.0409,-3.0396,-3.0264,-2.9556,-2.8378,-2.6845,-2.433,-2.1916,-1.9705,-1.7703,-1.5485,-1.3066,-1.109,-0.8972,-0.6764,-0.424,-0.2047,-0.0422,0.0846,0.1761,0.2519,0.3192,0.3796,0.4307,0.4803,0.5137,0.5346,0.5588,0.5756,0.5826,0.609,0.6457,0.6689,0.7257,0.7769,0.7909,0.8034,0.8197,0.8447,0.8437,0.8554,0.8744,0.8976,0.9355,0.9809,1.0014,1.0008,1.0148,1.0293,1.0438,1.0513,1.0818,1.1037,1.1186,1.1484,1.1896,1.233,1.2877,1.3308,1.3577,1.393,1.4421,1.4906,1.546,1.6081,1.6457,1.7196,1.789,1.8611,1.9512,2.0472,2.1286,2.2161,2.2756,2.3363,2.3891,2.4405,-3.6533,-3.635,-3.6284,-3.6301,-3.6301,-3.6284,-3.6284,-3.6284,-3.6326,-3.6409,-3.6533,-3.6574,-3.6319,-3.5946,-3.5762,-3.5304,-3.4534,-3.3708,-3.318,-3.2916,-3.2898,-3.2866,-3.2834,-3.2784,-3.2834,-3.2848,-3.2975,-3.2775,-3.2466,-3.23,-3.1727,-3.0919,-3.0654,-3.0333,-3.0038,-2.9988,-3.0069,-3.026,-3.0383,-3.0404,-3.032,-3.0025,-2.9518,-2.8663,-2.6825,-2.4547,-2.2098,-2.0134,-1.7941,-1.5511,-1.3378,-1.1042,-0.8173,-0.5231,-0.3064,-0.186,-0.0685,0.0501,0.1456,0.2194,0.2872,0.3524,0.404,0.4356,0.4625,0.4891,0.5024,0.5166,0.548,0.5748,0.5982,0.6573,0.7136,0.743,0.7673,0.7834,0.8092,0.8123,0.8182,0.8344,0.859,0.8917,0.9332,0.9342,0.9332,0.9377,0.9604,0.9836,0.9916,1.0218,1.0513,1.0588,1.0893,1.126,1.1668,1.2278,1.3064,1.339,1.3925,1.4502,1.5087,1.5746,1.6332,1.6787,1.7427,1.8109,1.8873,1.9766,2.0625,2.1464,2.2063,2.2694,2.3231,2.3852,2.4354,-3.5915,-3.5766,-3.565,-3.5605,-3.5605,-3.5605,-3.5622,-3.565,-3.5739,-3.5871,-3.6002,-3.6071,-3.6122,-3.6069,-3.5576,-3.5221,-3.4909,-3.4106,-3.3318,-3.2632,-3.2525,-3.237,-3.2197,-3.2197,-3.2266,-3.23,-3.2488,-3.2621,-3.2559,-3.2063,-3.1787,-3.1657,-3.0683,-3.032,-3.0368,-2.9923,-2.9767,-3.0089,-3.0267,-3.029,-3.0302,-3.0271,-3.0036,-2.9546,-2.8577,-2.6917,-2.4411,-2.2484,-2.0395,-1.8294,-1.6102,-1.2915,-0.8956,-0.6423,-0.4571,-0.3244,-0.205,-0.0847,0.0267,0.1138,0.1805,0.2474,0.3084,0.3556,0.3823,0.409,0.4356,0.4573,0.4866,0.5092,0.5354,0.5755,0.6352,0.699,0.7126,0.7289,0.7415,0.7472,0.7553,0.7783,0.7999,0.8228,0.8565,0.866,0.8574,0.8385,0.8685,0.9079,0.9241,0.9468,0.9765,1.0067,1.0293,1.0594,1.1037,1.1626,1.2445,1.3157,1.3757,1.4348,1.5072,1.5718,1.6449,1.6953,1.7949,1.8647,1.9678,2.0489,2.1042,2.1781,2.2233,2.2758,2.3363,2.3964,2.4343,-3.5412,-3.5148,-3.5118,-3.5135,-3.5118,-3.5118,-3.5118,-3.5118,-3.5258,-3.5412,-3.5503,-3.5605,-3.5694,-3.5749,-3.5555,-3.5214,-3.4721,-3.4326,-3.3687,-3.272,-3.2117,-3.1856,-3.1728,-3.1746,-3.1765,-3.1821,-3.1894,-3.2002,-3.2074,-3.1968,-3.1735,-3.1367,-3.1171,-3.0862,-3.0584,-3.0123,-3.0041,-3.0357,-3.0161,-3.0092,-3.0283,-3.04,-3.031,-3.0036,-2.9402,-2.8319,-2.6924,-2.4467,-2.2189,-2.0132,-1.7966,-1.484,-1.0913,-0.8471,-0.665,-0.4915,-0.3425,-0.2183,-0.107,-0.0268,0.0605,0.1411,0.2217,0.2688,0.3021,0.3357,0.3627,0.384,0.4198,0.4499,0.4671,0.5023,0.565,0.6332,0.6417,0.6645,0.6853,0.6942,0.7173,0.7326,0.7472,0.7706,0.8034,0.8124,0.7723,0.7464,0.7927,0.8403,0.8484,0.8784,0.9084,0.9306,0.9539,0.9922,1.0438,1.0956,1.162,1.2579,1.3382,1.4178,1.4885,1.5739,1.6441,1.7441,1.8394,1.9346,2.0402,2.1113,2.1564,2.2207,2.2881,2.3307,2.3681,2.4177,2.4675,-3.4899,-3.4691,-3.4643,-3.4594,-3.4594,-3.4611,-3.4643,-3.4707,-3.4756,-3.4883,-3.5041,-3.5102,-3.5195,-3.5304,-3.535,-3.5115,-3.4616,-3.4365,-3.3799,-3.2983,-3.2145,-3.1618,-3.1247,-3.1196,-3.1235,-3.1274,-3.1368,-3.1428,-3.1562,-3.1677,-3.1581,-3.1359,-3.1217,-3.1091,-3.0862,-3.0395,-3.0202,-3.0287,-3.0152,-3.0102,-3.0147,-3.0322,-3.0401,-3.0287,-2.9873,-2.9292,-2.8467,-2.6402,-2.42,-2.1832,-1.9256,-1.6007,-1.2611,-1.0512,-0.859,-0.6815,-0.5055,-0.3538,-0.2341,-0.1408,-0.0604,0.0403,0.121,0.1883,0.2284,0.269,0.2967,0.3213,0.3639,0.3946,0.4193,0.4675,0.5039,0.543,0.5803,0.6015,0.6254,0.6328,0.6479,0.6637,0.671,0.7022,0.7419,0.7273,0.6872,0.6623,0.7088,0.7638,0.7714,0.8021,0.8322,0.8551,0.878,0.9241,0.9765,1.0282,1.0795,1.1822,1.2924,1.386,1.468,1.5764,1.6601,1.8021,1.9176,1.9969,2.0919,2.1387,2.1925,2.2682,2.3483,2.3857,2.4294,2.4777,2.5247,-3.4399,-3.425,-3.4151,-3.4101,-3.4101,-3.4084,-3.4151,-3.425,-3.43,-3.4448,-3.4594,-3.4675,-3.4739,-3.4851,-3.4835,-3.4802,-3.4736,-3.4223,-3.3763,-3.3247,-3.2474,-3.1541,-3.0734,-3.0634,-3.0634,-3.0716,-3.0855,-3.0958,-3.0982,-3.1179,-3.1334,-3.137,-3.0984,-3.0855,-3.1003,-3.0631,-3.0248,-3.0184,-3.024,-3.0093,-2.9889,-3.0089,-3.0296,-3.0365,-3.0165,-2.9823,-2.9215,-2.7985,-2.6194,-2.3477,-1.9984,-1.7071,-1.455,-1.2292,-1.0269,-0.8606,-0.6755,-0.5058,-0.3604,-0.2477,-0.1543,-0.0671,0.0269,0.1008,0.1613,0.2164,0.2528,0.2787,0.3226,0.3603,0.3916,0.4387,0.4678,0.4851,0.5315,0.5634,0.5559,0.5637,0.5867,0.5941,0.5941,0.6096,0.6644,0.6345,0.6022,0.5851,0.6314,0.6707,0.6942,0.7253,0.7565,0.7868,0.8021,0.8556,0.916,0.97,1.0293,1.1174,1.2338,1.3484,1.4633,1.579,1.7139,1.8583,1.9746,2.0565,2.1367,2.1951,2.2643,2.346,2.4052,2.444,2.4907,2.5437,2.5783,-3.4,-3.3864,-3.3797,-3.3797,-3.3797,-3.3797,-3.3797,-3.3848,-3.3949,-3.4066,-3.4134,-3.4201,-3.425,-3.4284,-3.43,-3.43,-3.4235,-3.4088,-3.3583,-3.2983,-3.2219,-3.1169,-3.0239,-3.0011,-3.0087,-3.0189,-3.0359,-3.0443,-3.0493,-3.0658,-3.0797,-3.0918,-3.0875,-3.0989,-3.1188,-3.0785,-3.0723,-3.0724,-3.0044,-2.9976,-3.0186,-2.9969,-3.0021,-3.0308,-3.0328,-3.0156,-2.9706,-2.8378,-2.6192,-2.3356,-2.1213,-1.8859,-1.6409,-1.4087,-1.2087,-1.0352,-0.8542,-0.682,-0.5256,-0.3742,-0.2546,-0.161,-0.0671,0.0202,0.1009,0.1646,0.2085,0.2403,0.284,0.33,0.3638,0.4169,0.4611,0.5087,0.5323,0.5401,0.5401,0.5559,0.5637,0.5634,0.5553,0.555,0.5476,0.5482,0.5323,0.5315,0.5622,0.6012,0.6247,0.6483,0.6868,0.7176,0.748,0.7944,0.8479,0.9103,0.9787,1.0674,1.1835,1.3121,1.4561,1.6009,1.7541,1.9135,2.0029,2.0915,2.2007,2.2867,2.362,2.4245,2.4727,2.5126,2.559,2.6068,2.6336,-3.3555,-3.345,-3.3398,-3.3361,-3.3346,-3.3346,-3.3398,-3.345,-3.3555,-3.3607,-3.3642,-3.3694,-3.3745,-3.3761,-3.3745,-3.3745,-3.3761,-3.3745,-3.3454,-3.2955,-3.1932,-3.0798,-2.9849,-2.956,-2.956,-2.9621,-2.9842,-2.9913,-2.9984,-3.0113,-3.0258,-3.0401,-3.051,-3.0716,-3.0931,-3.0849,-3.0761,-3.0818,-3.0344,-3.0286,-3.0485,-3.0144,-3.0235,-3.0447,-3.0483,-3.0253,-2.9844,-2.8745,-2.6796,-2.4379,-2.2585,-2.0695,-1.836,-1.6098,-1.4055,-1.2263,-1.0302,-0.8489,-0.6824,-0.5061,-0.3611,-0.2479,-0.1476,-0.0541,0.0342,0.1112,0.1617,0.2035,0.2536,0.3032,0.353,0.4194,0.4844,0.5323,0.5404,0.5401,0.5323,0.5323,0.5326,0.5249,0.509,0.4935,0.4698,0.4701,0.4698,0.4774,0.5007,0.5315,0.5547,0.586,0.6173,0.6479,0.6868,0.733,0.7872,0.8493,0.9554,1.0374,1.1996,1.3208,1.4712,1.6367,1.7813,1.9253,2.0302,2.1325,2.2359,2.3374,2.4103,2.4694,2.5241,2.5845,2.635,2.6748,2.6995,-3.3203,-3.3058,-3.2951,-3.2912,-3.2912,-3.2912,-3.3005,-3.3058,-3.3096,-3.3203,-3.3256,-3.3256,-3.3293,-3.324,-3.3293,-3.3256,-3.324,-3.324,-3.313,-3.2573,-3.1558,-3.0302,-2.9453,-2.9169,-2.9137,-2.9167,-2.935,-2.938,-2.9454,-2.9633,-2.9782,-2.987,-2.9913,-3.0087,-3.0309,-3.0493,-3.0555,-3.0503,-3.0542,-3.0607,-3.0614,-3.0423,-3.0497,-3.0912,-3.0762,-3.0421,-3.0021,-2.9257,-2.7971,-2.5967,-2.4374,-2.2451,-2.0231,-1.8166,-1.6161,-1.4178,-1.202,-1.0002,-0.8243,-0.6441,-0.474,-0.3345,-0.2221,-0.1158,-0.0139,0.0706,0.1374,0.1869,0.2424,0.3147,0.3807,0.4613,0.5315,0.5712,0.5792,0.5634,0.5476,0.5246,0.4937,0.4779,0.4779,0.4545,0.4392,0.4314,0.4311,0.4387,0.4621,0.4774,0.5004,0.5315,0.555,0.5783,0.6173,0.6644,0.7261,0.7957,0.916,1.0282,1.2285,1.3803,1.5296,1.6784,1.8094,1.9309,2.0484,2.1565,2.2665,2.3564,2.4452,2.5161,2.5709,2.6433,2.7181,2.7523,2.7828,-3.2951,-3.2951,-3.2897,-3.2912,-3.2912,-3.2912,-3.2897,-3.2951,-3.2897,-3.2966,-3.3036,-3.302,-3.292,-3.2819,-3.292,-3.3005,-3.2935,-3.2765,-3.2423,-3.1696,-3.088,-2.9981,-2.9314,-2.8995,-2.8857,-2.8873,-2.8842,-2.8873,-2.8904,-2.8997,-2.909,-2.9136,-2.9335,-2.9486,-2.9605,-2.9865,-3.0133,-3.0227,-3.0196,-3.04,-3.0705,-3.057,-3.0709,-3.1274,-3.1333,-3.0962,-3.0372,-2.9902,-2.9207,-2.7984,-2.623,-2.4209,-2.2069,-1.9946,-1.7943,-1.5925,-1.3705,-1.1559,-0.9642,-0.7733,-0.5858,-0.4292,-0.2868,-0.16,-0.0491,0.0583,0.1414,0.2125,0.2843,0.3653,0.4766,0.5467,0.6089,0.6479,0.6479,0.6483,0.6405,0.5783,0.5321,0.5087,0.4774,0.4465,0.4387,0.4077,0.4077,0.4155,0.4231,0.4309,0.454,0.4849,0.5082,0.5318,0.5867,0.6335,0.7099,0.8016,0.9448,1.064,1.2492,1.425,1.5737,1.706,1.8365,1.9562,2.073,2.1854,2.2967,2.3859,2.4694,2.5425,2.6136,2.6788,2.7423,2.7989,2.8462,-3.2609,-3.2499,-3.2514,-3.2499,-3.2514,-3.2514,-3.2514,-3.2499,-3.2459,-3.2514,-3.253,-3.2514,-3.2428,-3.2367,-3.2428,-3.2444,-3.2444,-3.2358,-3.2133,-3.1595,-3.0821,-3.0099,-2.9431,-2.8915,-2.8587,-2.8473,-2.8381,-2.835,-2.8398,-2.8431,-2.8448,-2.8463,-2.8669,-2.8779,-2.8904,-2.9166,-2.9556,-2.9843,-2.9947,-3.023,-3.0722,-3.0676,-3.0826,-3.1463,-3.1737,-3.1584,-3.0962,-3.081,-3.0202,-2.9233,-2.8003,-2.6168,-2.3748,-2.1636,-1.9622,-1.7699,-1.531,-1.3057,-1.105,-0.8884,-0.6872,-0.5097,-0.3599,-0.2124,-0.0867,0.0299,0.1291,0.2229,0.3029,0.399,0.5622,0.6398,0.6938,0.7318,0.7395,0.7322,0.7169,0.6321,0.5476,0.5323,0.4932,0.454,0.4309,0.4077,0.3921,0.3999,0.3997,0.4075,0.4311,0.454,0.4771,0.5082,0.5634,0.6254,0.7019,0.8232,0.9959,1.1298,1.2771,1.4371,1.5869,1.7257,1.8576,1.9814,2.1049,2.2151,2.3255,2.4092,2.4978,2.5797,2.6457,2.6997,2.7575,2.8088,2.8573,-3.2191,-3.2012,-3.2012,-3.2012,-3.2012,-3.2012,-3.2053,-3.2068,-3.2012,-3.2053,-3.1981,-3.1981,-3.2038,-3.1981,-3.2038,-3.1996,-3.194,-3.1868,-3.1777,-3.163,-3.0829,-3.0113,-2.9469,-2.8771,-2.8143,-2.7866,-2.789,-2.7875,-2.786,-2.778,-2.775,-2.775,-2.7944,-2.8107,-2.8222,-2.8496,-2.8826,-2.9148,-2.9504,-2.9992,-3.0563,-3.0629,-3.0932,-3.1507,-3.2052,-3.2081,-3.172,-3.1604,-3.134,-3.0327,-2.9886,-2.8293,-2.6017,-2.3319,-2.1203,-1.9459,-1.694,-1.4615,-1.2397,-1.011,-0.7885,-0.5978,-0.4302,-0.274,-0.1268,0.0076,0.1307,0.2484,0.3599,0.4993,0.6542,0.7468,0.8008,0.8389,0.8461,0.8309,0.8008,0.7015,0.6402,0.5637,0.5321,0.4927,0.4543,0.4311,0.4077,0.3921,0.3921,0.3919,0.4155,0.4387,0.4771,0.5082,0.5634,0.6714,0.7553,0.8613,1.0265,1.1816,1.3215,1.4712,1.621,1.7658,1.9023,2.0139,2.1353,2.2518,2.3551,2.4452,2.53,2.6122,2.6721,2.7203,2.7725,2.8235,2.8668,-3.2053,-3.2012,-3.2012,-3.2012,-3.2012,-3.2012,-3.1996,-3.2012,-3.1996,-3.1951,-3.1864,-3.191,-3.1894,-3.1879,-3.1981,-3.1853,-3.1625,-3.1452,-3.1351,-3.1203,-3.0554,-2.9891,-2.9116,-2.8429,-2.77,-2.7173,-2.71,-2.7269,-2.7255,-2.7174,-2.7056,-2.7108,-2.7225,-2.7327,-2.7494,-2.7695,-2.7963,-2.8336,-2.8748,-2.9255,-2.9751,-3.0366,-3.0919,-3.1556,-3.2231,-3.2392,-3.2311,-3.243,-3.2519,-3.2358,-3.195,-3.1031,-2.9166,-2.5861,-2.3098,-2.0927,-1.8613,-1.6332,-1.4101,-1.1511,-0.9315,-0.7329,-0.5246,-0.3185,-0.1512,0.023,0.1708,0.3346,0.5065,0.6762,0.7918,0.8836,0.9377,0.976,0.983,0.9755,0.9458,0.8846,0.7851,0.6865,0.6163,0.5392,0.5085,0.4774,0.4543,0.4462,0.4307,0.4307,0.4465,0.4696,0.5004,0.5395,0.5712,0.7019,0.8241,0.9377,1.0732,1.2271,1.373,1.5209,1.6688,1.82,1.9475,2.0719,2.1791,2.2895,2.3859,2.4808,2.5577,2.6351,2.6893,2.7372,2.7875,2.8381,2.8748,-3.1826,-3.1712,-3.1769,-3.1712,-3.1769,-3.1769,-3.1754,-3.1769,-3.164,-3.1625,-3.1552,-3.1567,-3.1509,-3.1437,-3.1509,-3.1409,-3.1161,-3.1043,-3.094,-3.0719,-3.0352,-2.9769,-2.8973,-2.8238,-2.7453,-2.68,-2.6443,-2.6457,-2.6669,-2.6404,-2.6283,-2.6297,-2.6404,-2.6525,-2.6683,-2.693,-2.7159,-2.7515,-2.7963,-2.8448,-2.898,-2.9843,-3.0722,-3.1548,-3.2252,-3.2564,-3.2598,-3.2948,-3.3031,-3.2817,-3.2591,-3.2116,-3.0847,-2.8927,-2.6032,-2.357,-2.0989,-1.843,-1.5943,-1.3204,-1.0609,-0.8222,-0.6184,-0.3936,-0.1608,0.0543,0.2655,0.4753,0.6521,0.8362,0.9427,1.0335,1.0944,1.118,1.1397,1.1248,1.0881,1.0346,0.9437,0.8304,0.7387,0.6542,0.5699,0.5392,0.5082,0.4927,0.4849,0.4849,0.4929,0.524,0.5547,0.624,0.6784,0.7851,0.9155,1.0229,1.1403,1.2865,1.4371,1.5852,1.7298,1.8803,2.0117,2.1353,2.2347,2.3433,2.4323,2.5272,2.592,2.6563,2.7152,2.769,2.8073,2.851,2.8889,-3.1539,-3.1424,-3.1424,-3.1424,-3.1424,-3.1424,-3.1424,-3.1424,-3.1307,-3.1292,-3.1249,-3.119,-3.1132,-3.1014,-3.0955,-3.0836,-3.0702,-3.0642,-3.0507,-3.0372,-3.0222,-2.9711,-2.8933,-2.8191,-2.7283,-2.6284,-2.5618,-2.5522,-2.5851,-2.5701,-2.555,-2.5481,-2.555,-2.566,-2.5756,-2.6082,-2.639,-2.6745,-2.7159,-2.7665,-2.8417,-2.9342,-3.0402,-3.1295,-3.2072,-3.2415,-3.2624,-3.3219,-3.348,-3.3397,-3.3291,-3.3098,-3.2539,-3.157,-2.9655,-2.6878,-2.3863,-2.0814,-1.7913,-1.4827,-1.1881,-0.9145,-0.7158,-0.4589,-0.1313,0.1476,0.4203,0.6678,0.858,1.0013,1.1063,1.1964,1.2558,1.2865,1.3011,1.2865,1.2352,1.1829,1.123,1.0099,0.8822,0.7838,0.7073,0.6395,0.6167,0.5931,0.5854,0.5854,0.5931,0.6012,0.6472,0.7314,0.808,0.8988,1.0062,1.1228,1.2385,1.373,1.5217,1.6688,1.8113,1.9541,2.076,2.2101,2.317,2.4195,2.4978,2.566,2.6244,2.6893,2.7473,2.7989,2.8365,2.87,2.9075,-3.1146,-3.1132,-3.1132,-3.1146,-3.1132,-3.1146,-3.1146,-3.1132,-3.1132,-3.1132,-3.1073,-3.1087,-3.0955,-3.0762,-3.0522,-3.0387,-3.0266,-3.0068,-2.9946,-2.987,-2.9685,-2.917,-2.8324,-2.7658,-2.6804,-2.5878,-2.5056,-2.4848,-2.4978,-2.4878,-2.4821,-2.4694,-2.4694,-2.4751,-2.4865,-2.5147,-2.537,-2.5783,-2.6215,-2.7004,-2.7963,-2.8732,-2.9504,-3.0328,-3.1096,-3.1882,-3.2487,-3.3209,-3.3766,-3.4371,-3.4711,-3.4842,-3.4644,-3.4002,-3.2637,-2.9955,-2.6357,-2.2194,-1.9545,-1.6345,-1.3033,-1.016,-0.7828,-0.4953,-0.062,0.333,0.643,0.8732,1.0456,1.1777,1.2889,1.3787,1.4371,1.4657,1.4728,1.4514,1.4083,1.3563,1.2976,1.2251,1.1045,0.9718,0.867,0.7923,0.7249,0.7015,0.6857,0.693,0.7007,0.7314,0.7693,0.8604,0.9357,1.026,1.1273,1.2297,1.3506,1.4752,1.6191,1.7658,1.9048,2.0375,2.1694,2.2882,2.3949,2.4811,2.5508,2.6122,2.6616,2.7137,2.7775,2.822,2.859,2.892,2.9259,-3.0776,-3.1087,-3.1087,-3.1087,-3.1087,-3.1087,-3.1014,-3.0955,-3.0836,-3.0762,-3.0628,-3.0582,-3.0401,-3.0205,-3.0021,-2.9822,-2.9685,-2.9512,-2.9324,-2.917,-2.898,-2.8616,-2.8062,-2.7382,-2.6481,-2.5476,-2.465,-2.3919,-2.3968,-2.3956,-2.4015,-2.3897,-2.391,-2.391,-2.3943,-2.4163,-2.4452,-2.4838,-2.5453,-2.6269,-2.7093,-2.7769,-2.8434,-2.9329,-3.0061,-3.0925,-3.183,-3.2714,-3.3515,-3.4183,-3.4683,-3.506,-3.5037,-3.4604,-3.3677,-3.2155,-2.9098,-2.5404,-2.1749,-1.8012,-1.4433,-1.0712,-0.7442,-0.3009,0.1932,0.5564,0.8326,1.0375,1.2071,1.3526,1.4751,1.5632,1.6192,1.648,1.6609,1.6271,1.5913,1.5359,1.4775,1.406,1.3339,1.2078,1.0896,1.0007,0.9266,0.868,0.8528,0.8528,0.8751,0.9054,0.9508,1.0034,1.0858,1.1601,1.2553,1.3587,1.4761,1.6018,1.7292,1.8713,2.004,2.1318,2.2628,2.3702,2.4684,2.5425,2.604,2.6549,2.7049,2.756,2.8057,2.8446,2.8873,2.9243,2.9621,-3.0341,-3.0762,-3.0836,-3.0836,-3.0836,-3.085,-3.0776,-3.0582,-3.0447,-3.0312,-3.0129,-2.9974,-2.9775,-2.9574,-2.9401,-2.9198,-2.9058,-2.8881,-2.8753,-2.8481,-2.8208,-2.7947,-2.7525,-2.6935,-2.5987,-2.5027,-2.4167,-2.3356,-2.2825,-2.2702,-2.2871,-2.3017,-2.3005,-2.2944,-2.3005,-2.322,-2.3492,-2.3989,-2.4667,-2.5384,-2.6079,-2.6649,-2.7419,-2.8242,-2.8993,-2.9831,-3.0808,-3.1724,-3.2594,-3.3442,-3.4166,-3.4661,-3.4962,-3.4856,-3.4276,-3.2947,-3.069,-2.7878,-2.3811,-1.9767,-1.5582,-1.1099,-0.5698,-0.0077,0.5493,0.8201,0.9963,1.2278,1.3991,1.5424,1.6633,1.7687,1.815,1.8429,1.8496,1.818,1.7842,1.7269,1.6651,1.5957,1.5317,1.4838,1.3591,1.2503,1.1495,1.0553,1.0265,1.019,1.0484,1.0852,1.1292,1.181,1.2471,1.3215,1.4065,1.5072,1.6193,1.7307,1.863,1.9868,2.1179,2.2335,2.3572,2.457,2.5481,2.6226,2.6923,2.724,2.7524,2.7959,2.8383,2.8764,2.9152,2.9576,2.993,-3.0036,-2.9946,-3.0097,-3.0172,-3.0172,-3.0172,-3.0172,-3.0097,-2.9946,-2.9822,-2.9699,-2.9401,-2.9162,-2.9035,-2.8766,-2.8573,-2.8352,-2.817,-2.796,-2.7762,-2.7497,-2.7162,-2.6793,-2.6155,-2.5294,-2.4418,-2.3542,-2.2678,-2.1883,-2.1474,-2.1714,-2.1951,-2.2002,-2.1865,-2.1928,-2.2163,-2.2652,-2.3135,-2.3787,-2.4355,-2.4966,-2.5563,-2.6318,-2.7115,-2.7822,-2.8654,-2.9735,-3.0667,-3.1636,-3.2532,-3.3423,-3.4244,-3.4697,-3.4924,-3.4497,-3.3629,-3.2083,-2.9331,-2.5766,-2.1081,-1.6169,-1.0689,-0.4227,0.2614,0.7584,1.006,1.2111,1.434,1.6156,1.7745,1.8909,1.9792,2.0233,2.0426,2.0426,2.0105,1.9727,1.9225,1.8609,1.7891,1.7338,1.684,1.6435,1.5329,1.3799,1.2802,1.2378,1.2231,1.2464,1.283,1.3128,1.3643,1.4299,1.4958,1.5754,1.6727,1.7741,1.8839,2.0091,2.1228,2.2469,2.3546,2.4614,2.5439,2.6332,2.7027,2.77,2.7929,2.8189,2.8431,2.8764,2.9152,2.9544,3.0,3.0274,-2.9463,-2.9401,-2.9477,-2.9602,-2.9803,-2.9803,-2.9727,-2.9588,-2.9449,-2.9275,-2.9008,-2.8624,-2.843,-2.8314,-2.8118,-2.7855,-2.763,-2.743,-2.7229,-2.6892,-2.6564,-2.6302,-2.5946,-2.5529,-2.482,-2.3974,-2.3077,-2.2178,-2.1379,-2.0662,-2.0302,-2.0462,-2.0794,-2.0985,-2.1049,-2.1227,-2.1667,-2.2163,-2.2713,-2.3314,-2.3761,-2.4399,-2.5134,-2.6026,-2.6672,-2.7545,-2.8576,-2.9512,-3.0537,-3.1548,-3.2514,-3.3414,-3.43,-3.471,-3.4726,-3.426,-3.2747,-3.0487,-2.707,-2.1958,-1.5855,-0.7673,-0.1367,0.422,0.876,1.1414,1.4057,1.6318,1.8374,1.9986,2.1163,2.1796,2.2226,2.2372,2.2311,2.2054,2.1623,2.1112,2.0565,1.9878,1.9445,1.9052,1.8665,1.8198,1.6546,1.5035,1.4688,1.4411,1.4625,1.4838,1.5122,1.5466,1.6114,1.6738,1.7522,1.8436,1.9318,2.0451,2.1547,2.2618,2.3677,2.4673,2.5672,2.6438,2.7115,2.7784,2.8336,2.8654,2.8858,2.8997,2.9273,2.9605,3.0,3.0384,3.0593,-2.8894,-2.883,-2.8844,-2.9085,-2.9338,-2.9338,-2.9275,-2.9058,-2.8894,-2.8587,-2.8262,-2.7921,-2.7709,-2.7577,-2.731,-2.6985,-2.6769,-2.662,-2.6333,-2.6,-2.5721,-2.5394,-2.5134,-2.4708,-2.4084,-2.3398,-2.2514,-2.153,-2.0628,-1.9849,-1.9383,-1.9243,-1.9441,-1.9628,-2.0031,-2.0291,-2.0677,-2.1049,-2.1491,-2.2125,-2.2592,-2.3122,-2.3891,-2.4741,-2.548,-2.6342,-2.733,-2.8278,-2.9319,-3.0423,-3.146,-3.2509,-3.3467,-3.4232,-3.4598,-3.4236,-3.3308,-3.1397,-2.7727,-2.1057,-1.3842,-0.5699,0.0304,0.5168,0.9237,1.3006,1.6195,1.8754,2.0556,2.2043,2.3306,2.3877,2.4165,2.4279,2.4191,2.3948,2.3554,2.3009,2.2481,2.192,2.1549,2.11,2.0606,2.0147,1.8899,1.7484,1.6849,1.6633,1.678,1.6917,1.7123,1.7532,1.7948,1.8562,1.9257,2.0096,2.0952,2.1954,2.2984,2.387,2.4915,2.5859,2.6634,2.7369,2.7981,2.8575,2.8996,2.9377,2.9499,2.9515,2.9826,3.013,3.0326,3.0699,3.0918,-2.8509,-2.8287,-2.8287,-2.8481,-2.8753,-2.8803,-2.8739,-2.8509,-2.817,-2.7842,-2.7456,-2.7175,-2.696,-2.6824,-2.6414,-2.6151,-2.5886,-2.5734,-2.537,-2.5087,-2.4791,-2.4504,-2.4227,-2.3784,-2.3262,-2.228,-2.1532,-2.0751,-1.9799,-1.9049,-1.8486,-1.8056,-1.8027,-1.824,-1.8798,-1.9065,-1.9452,-2.0031,-2.0279,-2.0858,-2.1365,-2.1916,-2.2688,-2.3526,-2.4213,-2.5135,-2.6169,-2.7041,-2.8071,-2.9243,-3.0244,-3.1373,-3.2595,-3.356,-3.418,-3.4569,-3.3839,-3.2046,-2.8966,-1.8815,-1.0855,-0.4187,0.1587,0.6947,1.1316,1.5135,1.843,2.0977,2.2845,2.4256,2.5232,2.5873,2.6087,2.6087,2.598,2.5725,2.526,2.4885,2.4323,2.3819,2.3566,2.3225,2.2614,2.1993,2.0986,1.9965,1.9236,1.8916,1.8961,1.9007,1.9117,1.9435,1.9836,2.0351,2.1009,2.1756,2.2592,2.3554,2.4426,2.523,2.6036,2.6872,2.767,2.8304,2.8857,2.9361,2.9777,3.014,3.0225,3.0309,3.0452,3.0675,3.0821,3.0982,3.1196,-2.7868,-2.7789,-2.7789,-2.7709,-2.7683,-2.796,-2.8039,-2.7855,-2.751,-2.7108,-2.6633,-2.6371,-2.6094,-2.5804,-2.5581,-2.5241,-2.4957,-2.4731,-2.4443,-2.4093,-2.3863,-2.357,-2.3213,-2.2905,-2.2446,-2.1839,-2.1071,-2.0109,-1.9268,-1.8472,-1.7688,-1.7232,-1.6802,-1.7088,-1.7774,-1.8182,-1.8566,-1.8767,-1.9243,-1.977,-2.0215,-2.0782,-2.1542,-2.2408,-2.3037,-2.391,-2.5009,-2.5779,-2.6755,-2.7941,-2.8939,-3.0161,-3.1446,-3.2508,-3.3539,-3.4129,-3.3727,-3.0942,-2.5591,-1.7361,-1.0197,-0.3435,0.306,0.8753,1.3442,1.7377,2.0489,2.3096,2.4929,2.6289,2.725,2.7713,2.7859,2.7762,2.7614,2.7294,2.6909,2.6562,2.6126,2.5697,2.5329,2.494,2.4463,2.4037,2.317,2.2635,2.1958,2.1225,2.1037,2.1049,2.1112,2.1424,2.1808,2.225,2.282,2.35,2.4071,2.4871,2.5731,2.6572,2.731,2.7969,2.8529,2.918,2.9629,3.0081,3.0418,3.0764,3.0965,3.11,3.114,3.114,3.1218,3.1372,3.1504,-2.7121,-2.7121,-2.7121,-2.6905,-2.6701,-2.7229,-2.7323,-2.6985,-2.6714,-2.6289,-2.5791,-2.5594,-2.5312,-2.4945,-2.4587,-2.4371,-2.4082,-2.379,-2.357,-2.3161,-2.3001,-2.2628,-2.2252,-2.1959,-2.1538,-2.112,-2.042,-1.9538,-1.8396,-1.7796,-1.6973,-1.6122,-1.57,-1.5762,-1.6315,-1.6793,-1.7423,-1.7687,-1.8162,-1.8499,-1.9023,-1.9617,-2.0257,-2.1078,-2.1818,-2.2615,-2.3618,-2.453,-2.5411,-2.6533,-2.7637,-2.8758,-3.0075,-3.1307,-3.2475,-3.3251,-3.2884,-2.9683,-2.3849,-1.5708,-0.8337,-0.1157,0.5143,1.0688,1.551,1.9684,2.2731,2.5173,2.692,2.8059,2.8989,2.9351,2.944,2.9335,2.9082,2.8793,2.8451,2.8102,2.7762,2.7315,2.6983,2.6591,2.6246,2.5994,2.5506,2.5094,2.4691,2.3909,2.3175,2.3069,2.3069,2.3306,2.3599,2.4006,2.4533,2.5135,2.5699,2.6289,2.7018,2.7804,2.8358,2.8949,2.948,2.9951,3.0377,3.0747,3.1083,3.1372,3.1562,3.1674,3.1711,3.1674,3.1654,3.1728,3.1839,-2.6346,-2.6346,-2.6346,-2.6151,-2.6025,-2.6483,-2.6427,-2.5898,-2.5828,-2.5535,-2.4945,-2.4719,-2.436,-2.407,-2.3728,-2.3434,-2.3213,-2.2841,-2.2553,-2.2327,-2.2101,-2.1645,-2.1349,-2.1128,-2.0634,-2.0042,-1.9427,-1.8718,-1.7521,-1.6711,-1.5825,-1.5048,-1.4553,-1.4545,-1.4832,-1.533,-1.6105,-1.6585,-1.7001,-1.7404,-1.7872,-1.8365,-1.9079,-1.9857,-2.0621,-2.1455,-2.2311,-2.3144,-2.4,-2.5038,-2.6112,-2.726,-2.8526,-2.9807,-3.1132,-3.2054,-3.2089,-2.8592,-2.2393,-1.3861,-0.5227,0.232,0.828,1.3164,1.7708,2.2101,2.5043,2.7158,2.886,2.9753,3.057,3.0763,3.0937,3.0757,3.0533,3.0245,2.9923,2.956,2.9188,2.884,2.8528,2.8176,2.7826,2.7564,2.7368,2.722,2.6842,2.6483,2.5717,2.4955,2.4955,2.5094,2.5452,2.5739,2.625,2.6657,2.7107,2.761,2.8213,2.893,2.9448,2.9859,3.0327,3.073,3.1083,3.1411,3.1694,3.193,3.2073,3.2161,3.2179,3.2126,3.2038,3.202,3.2126,-2.5451,-2.5581,-2.5429,-2.5288,-2.5016,-2.4874,-2.4874,-2.5016,-2.4862,-2.4515,-2.3948,-2.3655,-2.3276,-2.2916,-2.2628,-2.2392,-2.2176,-2.1883,-2.1655,-2.1425,-2.1185,-2.0722,-2.0411,-2.0255,-1.9696,-1.9186,-1.8646,-1.8005,-1.6884,-1.5853,-1.4804,-1.3943,-1.3615,-1.3477,-1.347,-1.376,-1.4625,-1.5338,-1.5754,-1.6306,-1.6784,-1.7335,-1.8007,-1.8736,-1.9475,-2.0311,-2.1141,-2.1768,-2.2651,-2.3579,-2.4446,-2.5464,-2.6542,-2.7875,-2.9288,-3.1402,-3.0866,-2.8257,-1.9752,-1.2283,-0.338,0.7215,1.4484,1.8349,2.2052,2.4671,2.7564,2.9167,3.0471,3.1296,3.1777,3.2003,3.2106,3.1969,3.1741,3.1468,3.1151,3.0819,3.0466,3.011,2.9805,2.9531,2.9194,2.9074,2.893,2.8968,2.89,2.8576,2.804,2.7205,2.674,2.6872,2.7026,2.728,2.7595,2.8003,2.8418,2.8903,2.9432,2.9897,3.0352,3.0737,3.1167,3.149,3.1787,3.2056,3.23,3.2454,3.2521,3.2588,3.2588,3.2488,3.2438,3.2404,3.2404,-2.4612,-2.4743,-2.4599,-2.4443,-2.4082,-2.3655,-2.3582,-2.3779,-2.3852,-2.357,-2.315,-2.2681,-2.2317,-2.1959,-2.1721,-2.1558,-2.1349,-2.0886,-2.0731,-2.0566,-2.0255,-1.9854,-1.9539,-1.9381,-1.8904,-1.8425,-1.7891,-1.7376,-1.6166,-1.482,-1.371,-1.298,-1.2746,-1.2526,-1.2445,-1.2519,-1.2966,-1.376,-1.4553,-1.518,-1.5737,-1.6298,-1.6922,-1.7668,-1.8335,-1.9145,-1.9944,-2.044,-2.1192,-2.1992,-2.276,-2.3554,-2.4652,-2.5963,-2.7225,-2.8836,-2.7949,-2.2876,-1.4895,-0.7457,0.2279,1.2064,2.0455,2.4233,2.6168,2.8255,2.9742,3.105,3.1929,3.2701,3.2997,3.3208,3.3151,3.3092,3.284,3.2606,3.2311,3.2022,3.1683,3.1304,3.0998,3.0734,3.0558,3.0504,3.0429,3.0373,3.0336,3.022,2.9697,2.8928,2.8483,2.8388,2.8545,2.8747,2.9009,2.9281,2.9653,2.9999,3.0419,3.0897,3.1244,3.1548,3.1842,3.2127,3.2419,3.2636,3.2798,3.283,3.2894,3.2975,3.3006,3.2961,3.2866,3.2787,3.2737,-2.3751,-2.3751,-2.374,-2.3519,-2.3139,-2.2703,-2.2478,-2.2327,-2.2542,-2.2628,-2.2241,-2.1842,-2.1395,-2.1108,-2.0867,-2.0634,-2.0401,-2.002,-1.9863,-1.9784,-1.9381,-1.8975,-1.8736,-1.8576,-1.8103,-1.7546,-1.6985,-1.6411,-1.5185,-1.3931,-1.2906,-1.1961,-1.1706,-1.1552,-1.1329,-1.1335,-1.1706,-1.2144,-1.3098,-1.3882,-1.4537,-1.5054,-1.563,-1.6228,-1.6982,-1.7668,-1.8355,-1.9023,-1.9672,-2.0364,-2.098,-2.1685,-2.2727,-2.3725,-2.4989,-2.4875,-2.406,-1.7669,-0.9979,-0.2161,0.7527,1.6829,2.4993,2.837,3.0213,3.0644,3.1656,3.2403,3.325,3.3672,3.3942,3.4003,3.3998,3.3877,3.37,3.346,3.3237,3.2943,3.2574,3.2247,3.2053,3.1832,3.1738,3.1619,3.1582,3.1618,3.1593,3.1593,3.1281,3.0553,3.0203,2.9927,2.9917,3.0044,3.0219,3.0501,3.0818,3.1167,3.1473,3.1752,3.2039,3.2265,3.2504,3.2749,3.297,3.3111,3.325,3.3262,3.3291,3.3357,3.3404,3.3404,3.3316,3.3178,3.3073,-2.2777,-2.2692,-2.2617,-2.2327,-2.1873,-2.1655,-2.1339,-2.0934,-2.0702,-2.0944,-2.1262,-2.0712,-2.0313,-2.0167,-1.9854,-1.9618,-1.9539,-1.9222,-1.9063,-1.8825,-1.8505,-1.8184,-1.7942,-1.7781,-1.7302,-1.6722,-1.6144,-1.5294,-1.3968,-1.2942,-1.2106,-1.1022,-1.0818,-1.0663,-1.0363,-1.0438,-1.0588,-1.0812,-1.1471,-1.2505,-1.3317,-1.3962,-1.4609,-1.5251,-1.5948,-1.6576,-1.7198,-1.7668,-1.82,-1.8726,-1.917,-1.976,-2.059,-2.1084,-2.1236,-2.0954,-1.9359,-1.2828,-0.4818,0.3264,1.1906,2.0637,2.7752,3.0963,3.2855,3.2901,3.3172,3.3803,3.4252,3.4547,3.4756,3.4775,3.4775,3.462,3.4475,3.4282,3.4096,3.3773,3.3451,3.3232,3.3009,3.2902,3.2809,3.2739,3.2733,3.2696,3.2652,3.2642,3.2606,3.2139,3.1725,3.1438,3.1281,3.1353,3.1459,3.1548,3.1821,3.2056,3.2283,3.2553,3.2813,3.2983,3.3178,3.335,3.3559,3.3597,3.3606,3.3652,3.368,3.3698,3.3716,3.3698,3.3698,3.3578,3.3473,-2.1711,-2.1711,-2.1395,-2.1098,-2.0876,-2.0644,-2.0313,-1.9913,-1.9539,-1.9539,-1.9854,-1.9539,-1.9381,-1.9301,-1.8904,-1.8754,-1.8665,-1.8416,-1.8264,-1.8031,-1.7781,-1.7456,-1.7212,-1.6894,-1.6476,-1.5899,-1.5123,-1.4076,-1.2843,-1.2148,-1.1437,-1.0478,-1.0155,-0.9852,-0.9544,-0.9533,-0.9685,-0.9836,-1.0212,-1.0881,-1.1922,-1.2725,-1.3462,-1.4186,-1.4681,-1.5313,-1.5886,-1.6298,-1.6706,-1.7101,-1.7406,-1.7436,-1.7744,-1.7607,-1.7082,-1.5814,-1.3089,-0.8253,0.055,0.8317,1.5598,2.3992,2.9985,3.2975,3.4014,3.4078,3.4323,3.4853,3.4851,3.5109,3.5196,3.522,3.5215,3.5105,3.4954,3.4793,3.4601,3.437,3.4106,3.3932,3.3787,3.3726,3.3629,3.3605,3.3574,3.3576,3.3552,3.3506,3.3506,3.346,3.3151,3.2877,3.2612,3.2477,3.2464,3.2537,3.2679,3.2909,3.3068,3.3232,3.3411,3.3634,3.3831,3.3902,3.3947,3.3972,3.3998,3.3998,3.3972,3.3972,3.3972,3.3972,3.3972,3.3928,3.3842,-2.0712,-2.0634,-2.0245,-2.0001,-1.9923,-1.952,-1.9283,-1.8984,-1.8665,-1.8336,-1.8167,-1.8256,-1.8425,-1.8345,-1.8103,-1.7951,-1.7789,-1.7627,-1.7473,-1.7302,-1.696,-1.6714,-1.6394,-1.6079,-1.5575,-1.4894,-1.4048,-1.3284,-1.2359,-1.1607,-1.0825,-1.0137,-0.9566,-0.9123,-0.8865,-0.8775,-0.878,-0.9013,-0.9316,-0.9544,-1.0368,-1.1335,-1.2224,-1.2879,-1.3317,-1.389,-1.4474,-1.4824,-1.5163,-1.5288,-1.5458,-1.5134,-1.4662,-1.4151,-1.2771,-1.1365,-0.8036,-0.1908,0.5696,1.2118,1.9552,2.649,3.0907,3.3417,3.4254,3.4939,3.5174,3.5392,3.5379,3.5474,3.5553,3.5611,3.557,3.5523,3.5374,3.5249,3.5059,3.4905,3.4737,3.4562,3.451,3.4431,3.4379,3.4338,3.4354,3.437,3.4353,3.433,3.4292,3.4232,3.4041,3.3864,3.3677,3.3568,3.3459,3.3422,3.3478,3.3569,3.3705,3.3847,3.4012,3.4141,3.4237,3.4298,3.434,3.4321,3.4316,3.4293,3.4293,3.4245,3.4245,3.4245,3.4197,3.4197,3.4148,-1.9539,-1.9301,-1.9231,-1.8984,-1.8656,-1.8399,-1.8095,-1.7789,-1.7448,-1.7123,-1.6796,-1.6648,-1.6902,-1.7635,-1.7147,-1.6976,-1.6976,-1.6902,-1.673,-1.6558,-1.6131,-1.5884,-1.5643,-1.5242,-1.4482,-1.3808,-1.3105,-1.2289,-1.1729,-1.0934,-1.0049,-0.931,-0.9015,-0.8567,-0.8102,-0.8021,-0.8093,-0.8327,-0.8408,-0.8632,-0.9306,-1.0207,-1.1037,-1.1626,-1.207,-1.2512,-1.2952,-1.3084,-1.3375,-1.3433,-1.3186,-1.2649,-1.1879,-1.0887,-0.9352,-0.7029,-0.3634,0.1542,0.8157,1.3911,2.069,2.5652,2.9455,3.2208,3.3254,3.4539,3.4884,3.5403,3.5499,3.5678,3.5771,3.5791,3.5775,3.5729,3.5631,3.5527,3.5387,3.5306,3.52,3.5095,3.5035,3.4943,3.4863,3.4849,3.4917,3.492,3.487,3.4851,3.4813,3.4832,3.4832,3.4718,3.4603,3.4433,3.4204,3.4116,3.4157,3.4221,3.4282,3.437,3.4454,3.4529,3.4612,3.4672,3.4651,3.4609,3.4607,3.4604,3.4561,3.452,3.4517,3.4536,3.4473,3.4427,3.4381]}]]